<?xml version="1.0" encoding="UTF-8" standalone="no" ?>
<gpx xmlns="http://www.topografix.com/GPX/1/1" xmlns:xsi="http://www.w3.org/2001/XMLSchema-instance" xsi:schemaLocation="http://www.topografix.com/GPX/1/1 http://www.topografix.com/GPX/1/1/gpx.xsd" version="1.1" creator="VisuGPX - https://www.visugpx.com">
  <metadata>
    <name>Sur un air de piste 28</name>
    <desc><![CDATA[Parcours qui reprend beaucoup de morceaux de la piste 28 de l'espace VTT Pyrénées Comminges.
On emprunte essentiellement des pistes forestières et quelques singles.
La montée depuis le bois perché jusqu?à Raoux ainsi que l'autre montée au dessus de Sengouagnet sont assez usantes (les genoux et le derche ont un peu souffert)
La première descente sur Milhas n'est pas terrible: des lacets très court dans une pente super raide pour en plus se taper 2km de route pour atteindre réellement Milhas (tout ça pour ça).
Par contre la descente sur Aspet est top, c'étais une première pour moi, j'y repasserai certainement!
A refaire en changeant la descente sur Milhas (prendre plutôt celle de la piste 28 ou voir si d'autres possibilités existent)]]></desc>
  </metadata>
  <trk>
    <name><![CDATA[2019-04-28 12:32:27]]></name>
    <trkseg>
      <trkpt lat="43.02334" lon="0.79886">
        <ele>461.09</ele>
        <time>2019-04-28T06:57:37Z</time>
      </trkpt>
      <trkpt lat="43.02334" lon="0.79886">
        <ele>461.09</ele>
        <time>2019-04-28T06:57:38Z</time>
      </trkpt>
      <trkpt lat="43.02335" lon="0.79886">
        <ele>461.09</ele>
        <time>2019-04-28T06:57:39Z</time>
      </trkpt>
      <trkpt lat="43.02332" lon="0.79886">
        <ele>461.09</ele>
        <time>2019-04-28T06:58:04Z</time>
      </trkpt>
      <trkpt lat="43.02331" lon="0.79886">
        <ele>461.09</ele>
        <time>2019-04-28T06:58:12Z</time>
      </trkpt>
      <trkpt lat="43.02344" lon="0.79903">
        <ele>461.09</ele>
        <time>2019-04-28T06:58:21Z</time>
      </trkpt>
      <trkpt lat="43.02346" lon="0.79906">
        <ele>461.09</ele>
        <time>2019-04-28T06:58:22Z</time>
      </trkpt>
      <trkpt lat="43.02357" lon="0.79915">
        <ele>461.09</ele>
        <time>2019-04-28T06:58:26Z</time>
      </trkpt>
      <trkpt lat="43.02361" lon="0.79915">
        <ele>461.09</ele>
        <time>2019-04-28T06:58:27Z</time>
      </trkpt>
      <trkpt lat="43.02363" lon="0.79913">
        <ele>461.09</ele>
        <time>2019-04-28T06:58:28Z</time>
      </trkpt>
      <trkpt lat="43.02365" lon="0.79909">
        <ele>461.09</ele>
        <time>2019-04-28T06:58:29Z</time>
      </trkpt>
      <trkpt lat="43.02366" lon="0.79905">
        <ele>461.09</ele>
        <time>2019-04-28T06:58:30Z</time>
      </trkpt>
      <trkpt lat="43.02369" lon="0.79894">
        <ele>461.09</ele>
        <time>2019-04-28T06:58:33Z</time>
      </trkpt>
      <trkpt lat="43.02372" lon="0.79891">
        <ele>461.09</ele>
        <time>2019-04-28T06:58:34Z</time>
      </trkpt>
      <trkpt lat="43.02376" lon="0.79891">
        <ele>459.65</ele>
        <time>2019-04-28T06:58:35Z</time>
      </trkpt>
      <trkpt lat="43.02378" lon="0.79894">
        <ele>459.17</ele>
        <time>2019-04-28T06:58:36Z</time>
      </trkpt>
      <trkpt lat="43.02379" lon="0.79898">
        <ele>459.17</ele>
        <time>2019-04-28T06:58:37Z</time>
      </trkpt>
      <trkpt lat="43.02378" lon="0.79903">
        <ele>459.17</ele>
        <time>2019-04-28T06:58:38Z</time>
      </trkpt>
      <trkpt lat="43.02376" lon="0.79907">
        <ele>459.17</ele>
        <time>2019-04-28T06:58:39Z</time>
      </trkpt>
      <trkpt lat="43.02349" lon="0.79972">
        <ele>459.17</ele>
        <time>2019-04-28T06:58:54Z</time>
      </trkpt>
      <trkpt lat="43.02327" lon="0.8003">
        <ele>456.28</ele>
        <time>2019-04-28T06:59:03Z</time>
      </trkpt>
      <trkpt lat="43.02325" lon="0.80039">
        <ele>456.28</ele>
        <time>2019-04-28T06:59:04Z</time>
      </trkpt>
      <trkpt lat="43.02323" lon="0.80048">
        <ele>455.32</ele>
        <time>2019-04-28T06:59:05Z</time>
      </trkpt>
      <trkpt lat="43.02321" lon="0.80057">
        <ele>454.84</ele>
        <time>2019-04-28T06:59:06Z</time>
      </trkpt>
      <trkpt lat="43.02318" lon="0.80066">
        <ele>454.84</ele>
        <time>2019-04-28T06:59:07Z</time>
      </trkpt>
      <trkpt lat="43.02313" lon="0.80073">
        <ele>453.88</ele>
        <time>2019-04-28T06:59:08Z</time>
      </trkpt>
      <trkpt lat="43.02307" lon="0.80079">
        <ele>453.88</ele>
        <time>2019-04-28T06:59:09Z</time>
      </trkpt>
      <trkpt lat="43.02301" lon="0.80083">
        <ele>453.4</ele>
        <time>2019-04-28T06:59:10Z</time>
      </trkpt>
      <trkpt lat="43.02267" lon="0.80115">
        <ele>452.44</ele>
        <time>2019-04-28T06:59:16Z</time>
      </trkpt>
      <trkpt lat="43.02261" lon="0.80117">
        <ele>452.44</ele>
        <time>2019-04-28T06:59:17Z</time>
      </trkpt>
      <trkpt lat="43.02255" lon="0.80117">
        <ele>451.96</ele>
        <time>2019-04-28T06:59:18Z</time>
      </trkpt>
      <trkpt lat="43.02249" lon="0.80116">
        <ele>451.96</ele>
        <time>2019-04-28T06:59:19Z</time>
      </trkpt>
      <trkpt lat="43.02243" lon="0.80114">
        <ele>451.96</ele>
        <time>2019-04-28T06:59:20Z</time>
      </trkpt>
      <trkpt lat="43.02238" lon="0.80111">
        <ele>451</ele>
        <time>2019-04-28T06:59:21Z</time>
      </trkpt>
      <trkpt lat="43.02233" lon="0.80108">
        <ele>451</ele>
        <time>2019-04-28T06:59:22Z</time>
      </trkpt>
      <trkpt lat="43.02225" lon="0.80102">
        <ele>451</ele>
        <time>2019-04-28T06:59:24Z</time>
      </trkpt>
      <trkpt lat="43.02182" lon="0.8009">
        <ele>450.52</ele>
        <time>2019-04-28T06:59:35Z</time>
      </trkpt>
      <trkpt lat="43.02178" lon="0.8009">
        <ele>450.03</ele>
        <time>2019-04-28T06:59:36Z</time>
      </trkpt>
      <trkpt lat="43.02172" lon="0.8009">
        <ele>450.03</ele>
        <time>2019-04-28T06:59:37Z</time>
      </trkpt>
      <trkpt lat="43.02145" lon="0.8009">
        <ele>448.59</ele>
        <time>2019-04-28T06:59:42Z</time>
      </trkpt>
      <trkpt lat="43.0214" lon="0.8009">
        <ele>448.59</ele>
        <time>2019-04-28T06:59:43Z</time>
      </trkpt>
      <trkpt lat="43.02135" lon="0.80088">
        <ele>448.59</ele>
        <time>2019-04-28T06:59:44Z</time>
      </trkpt>
      <trkpt lat="43.02131" lon="0.80085">
        <ele>448.59</ele>
        <time>2019-04-28T06:59:45Z</time>
      </trkpt>
      <trkpt lat="43.02127" lon="0.80082">
        <ele>448.59</ele>
        <time>2019-04-28T06:59:46Z</time>
      </trkpt>
      <trkpt lat="43.0212" lon="0.80075">
        <ele>448.11</ele>
        <time>2019-04-28T06:59:48Z</time>
      </trkpt>
      <trkpt lat="43.02112" lon="0.80068">
        <ele>448.11</ele>
        <time>2019-04-28T06:59:50Z</time>
      </trkpt>
      <trkpt lat="43.02083" lon="0.80055">
        <ele>445.71</ele>
        <time>2019-04-28T06:59:55Z</time>
      </trkpt>
      <trkpt lat="43.02069" lon="0.80054">
        <ele>444.27</ele>
        <time>2019-04-28T06:59:57Z</time>
      </trkpt>
      <trkpt lat="43.02045" lon="0.80052">
        <ele>441.86</ele>
        <time>2019-04-28T07:00:00Z</time>
      </trkpt>
      <trkpt lat="43.0203" lon="0.80049">
        <ele>441.38</ele>
        <time>2019-04-28T07:00:02Z</time>
      </trkpt>
      <trkpt lat="43.02016" lon="0.80049">
        <ele>440.42</ele>
        <time>2019-04-28T07:00:04Z</time>
      </trkpt>
      <trkpt lat="43.01996" lon="0.80052">
        <ele>442.34</ele>
        <time>2019-04-28T07:00:08Z</time>
      </trkpt>
      <trkpt lat="43.01984" lon="0.80053">
        <ele>443.79</ele>
        <time>2019-04-28T07:00:12Z</time>
      </trkpt>
      <trkpt lat="43.01971" lon="0.80055">
        <ele>445.23</ele>
        <time>2019-04-28T07:00:18Z</time>
      </trkpt>
      <trkpt lat="43.01969" lon="0.80057">
        <ele>445.23</ele>
        <time>2019-04-28T07:00:19Z</time>
      </trkpt>
      <trkpt lat="43.01969" lon="0.80059">
        <ele>446.19</ele>
        <time>2019-04-28T07:00:20Z</time>
      </trkpt>
      <trkpt lat="43.0197" lon="0.80062">
        <ele>446.19</ele>
        <time>2019-04-28T07:00:21Z</time>
      </trkpt>
      <trkpt lat="43.01971" lon="0.80064">
        <ele>446.67</ele>
        <time>2019-04-28T07:00:22Z</time>
      </trkpt>
      <trkpt lat="43.01973" lon="0.80065">
        <ele>446.67</ele>
        <time>2019-04-28T07:00:23Z</time>
      </trkpt>
      <trkpt lat="43.01975" lon="0.80067">
        <ele>446.67</ele>
        <time>2019-04-28T07:00:24Z</time>
      </trkpt>
      <trkpt lat="43.01977" lon="0.80067">
        <ele>446.67</ele>
        <time>2019-04-28T07:00:25Z</time>
      </trkpt>
      <trkpt lat="43.02007" lon="0.80072">
        <ele>449.07</ele>
        <time>2019-04-28T07:00:41Z</time>
      </trkpt>
      <trkpt lat="43.02044" lon="0.80078">
        <ele>452.44</ele>
        <time>2019-04-28T07:01:00Z</time>
      </trkpt>
      <trkpt lat="43.02076" lon="0.80086">
        <ele>455.32</ele>
        <time>2019-04-28T07:01:17Z</time>
      </trkpt>
      <trkpt lat="43.02097" lon="0.80103">
        <ele>458.21</ele>
        <time>2019-04-28T07:01:31Z</time>
      </trkpt>
      <trkpt lat="43.02109" lon="0.80144">
        <ele>461.09</ele>
        <time>2019-04-28T07:01:52Z</time>
      </trkpt>
      <trkpt lat="43.02119" lon="0.80186">
        <ele>463.97</ele>
        <time>2019-04-28T07:02:13Z</time>
      </trkpt>
      <trkpt lat="43.0213" lon="0.80222">
        <ele>466.86</ele>
        <time>2019-04-28T07:02:33Z</time>
      </trkpt>
      <trkpt lat="43.02144" lon="0.80259">
        <ele>469.26</ele>
        <time>2019-04-28T07:02:53Z</time>
      </trkpt>
      <trkpt lat="43.02145" lon="0.80269">
        <ele>469.74</ele>
        <time>2019-04-28T07:02:58Z</time>
      </trkpt>
      <trkpt lat="43.02133" lon="0.80291">
        <ele>472.63</ele>
        <time>2019-04-28T07:03:14Z</time>
      </trkpt>
      <trkpt lat="43.02123" lon="0.80308">
        <ele>474.55</ele>
        <time>2019-04-28T07:03:27Z</time>
      </trkpt>
      <trkpt lat="43.02123" lon="0.80309">
        <ele>475.03</ele>
        <time>2019-04-28T07:03:28Z</time>
      </trkpt>
      <trkpt lat="43.02122" lon="0.80311">
        <ele>475.03</ele>
        <time>2019-04-28T07:03:29Z</time>
      </trkpt>
      <trkpt lat="43.02122" lon="0.80312">
        <ele>475.03</ele>
        <time>2019-04-28T07:03:30Z</time>
      </trkpt>
      <trkpt lat="43.02121" lon="0.80314">
        <ele>475.03</ele>
        <time>2019-04-28T07:03:31Z</time>
      </trkpt>
      <trkpt lat="43.02114" lon="0.80341">
        <ele>477.91</ele>
        <time>2019-04-28T07:03:50Z</time>
      </trkpt>
      <trkpt lat="43.02103" lon="0.80365">
        <ele>479.84</ele>
        <time>2019-04-28T07:04:08Z</time>
      </trkpt>
      <trkpt lat="43.02098" lon="0.80388">
        <ele>481.76</ele>
        <time>2019-04-28T07:04:24Z</time>
      </trkpt>
      <trkpt lat="43.02092" lon="0.80414">
        <ele>483.2</ele>
        <time>2019-04-28T07:04:40Z</time>
      </trkpt>
      <trkpt lat="43.02086" lon="0.80443">
        <ele>485.12</ele>
        <time>2019-04-28T07:04:57Z</time>
      </trkpt>
      <trkpt lat="43.02083" lon="0.80463">
        <ele>487.53</ele>
        <time>2019-04-28T07:05:07Z</time>
      </trkpt>
      <trkpt lat="43.02083" lon="0.80488">
        <ele>490.41</ele>
        <time>2019-04-28T07:05:24Z</time>
      </trkpt>
      <trkpt lat="43.02082" lon="0.80511">
        <ele>493.29</ele>
        <time>2019-04-28T07:05:40Z</time>
      </trkpt>
      <trkpt lat="43.0208" lon="0.80531">
        <ele>496.66</ele>
        <time>2019-04-28T07:05:53Z</time>
      </trkpt>
      <trkpt lat="43.02079" lon="0.80553">
        <ele>500.02</ele>
        <time>2019-04-28T07:06:07Z</time>
      </trkpt>
      <trkpt lat="43.02076" lon="0.80573">
        <ele>502.91</ele>
        <time>2019-04-28T07:06:19Z</time>
      </trkpt>
      <trkpt lat="43.02072" lon="0.80595">
        <ele>506.27</ele>
        <time>2019-04-28T07:06:32Z</time>
      </trkpt>
      <trkpt lat="43.02067" lon="0.80619">
        <ele>509.64</ele>
        <time>2019-04-28T07:06:48Z</time>
      </trkpt>
      <trkpt lat="43.02061" lon="0.8064">
        <ele>512.52</ele>
        <time>2019-04-28T07:07:01Z</time>
      </trkpt>
      <trkpt lat="43.0206" lon="0.80641">
        <ele>512.52</ele>
        <time>2019-04-28T07:07:02Z</time>
      </trkpt>
      <trkpt lat="43.0206" lon="0.80643">
        <ele>512.52</ele>
        <time>2019-04-28T07:07:03Z</time>
      </trkpt>
      <trkpt lat="43.0206" lon="0.80645">
        <ele>513</ele>
        <time>2019-04-28T07:07:04Z</time>
      </trkpt>
      <trkpt lat="43.02059" lon="0.80647">
        <ele>513</ele>
        <time>2019-04-28T07:07:05Z</time>
      </trkpt>
      <trkpt lat="43.02053" lon="0.80673">
        <ele>515.88</ele>
        <time>2019-04-28T07:07:23Z</time>
      </trkpt>
      <trkpt lat="43.02047" lon="0.80694">
        <ele>517.81</ele>
        <time>2019-04-28T07:07:38Z</time>
      </trkpt>
      <trkpt lat="43.02046" lon="0.80697">
        <ele>518.77</ele>
        <time>2019-04-28T07:07:40Z</time>
      </trkpt>
      <trkpt lat="43.02045" lon="0.80698">
        <ele>518.77</ele>
        <time>2019-04-28T07:07:41Z</time>
      </trkpt>
      <trkpt lat="43.02035" lon="0.80714">
        <ele>519.73</ele>
        <time>2019-04-28T07:07:54Z</time>
      </trkpt>
      <trkpt lat="43.02034" lon="0.80716">
        <ele>520.21</ele>
        <time>2019-04-28T07:07:55Z</time>
      </trkpt>
      <trkpt lat="43.02023" lon="0.80738">
        <ele>522.13</ele>
        <time>2019-04-28T07:08:11Z</time>
      </trkpt>
      <trkpt lat="43.02012" lon="0.80754">
        <ele>524.06</ele>
        <time>2019-04-28T07:08:26Z</time>
      </trkpt>
      <trkpt lat="43.01996" lon="0.8077">
        <ele>525.5</ele>
        <time>2019-04-28T07:08:42Z</time>
      </trkpt>
      <trkpt lat="43.01982" lon="0.80791">
        <ele>526.94</ele>
        <time>2019-04-28T07:09:00Z</time>
      </trkpt>
      <trkpt lat="43.01971" lon="0.80814">
        <ele>529.34</ele>
        <time>2019-04-28T07:09:17Z</time>
      </trkpt>
      <trkpt lat="43.01959" lon="0.80837">
        <ele>532.23</ele>
        <time>2019-04-28T07:09:35Z</time>
      </trkpt>
      <trkpt lat="43.0196" lon="0.8084">
        <ele>532.23</ele>
        <time>2019-04-28T07:09:39Z</time>
      </trkpt>
      <trkpt lat="43.0196" lon="0.80842">
        <ele>532.23</ele>
        <time>2019-04-28T07:09:41Z</time>
      </trkpt>
      <trkpt lat="43.0196" lon="0.80843">
        <ele>532.23</ele>
        <time>2019-04-28T07:09:42Z</time>
      </trkpt>
      <trkpt lat="43.01951" lon="0.80859">
        <ele>534.15</ele>
        <time>2019-04-28T07:09:55Z</time>
      </trkpt>
      <trkpt lat="43.01948" lon="0.80869">
        <ele>535.11</ele>
        <time>2019-04-28T07:10:08Z</time>
      </trkpt>
      <trkpt lat="43.01948" lon="0.80872">
        <ele>535.11</ele>
        <time>2019-04-28T07:10:24Z</time>
      </trkpt>
      <trkpt lat="43.01946" lon="0.80875">
        <ele>535.59</ele>
        <time>2019-04-28T07:10:28Z</time>
      </trkpt>
      <trkpt lat="43.01946" lon="0.80876">
        <ele>535.59</ele>
        <time>2019-04-28T07:10:29Z</time>
      </trkpt>
      <trkpt lat="43.01945" lon="0.8088">
        <ele>536.07</ele>
        <time>2019-04-28T07:10:32Z</time>
      </trkpt>
      <trkpt lat="43.01944" lon="0.80882">
        <ele>536.07</ele>
        <time>2019-04-28T07:10:33Z</time>
      </trkpt>
      <trkpt lat="43.01944" lon="0.80883">
        <ele>536.55</ele>
        <time>2019-04-28T07:10:34Z</time>
      </trkpt>
      <trkpt lat="43.01944" lon="0.80885">
        <ele>536.55</ele>
        <time>2019-04-28T07:10:35Z</time>
      </trkpt>
      <trkpt lat="43.01943" lon="0.80886">
        <ele>537.03</ele>
        <time>2019-04-28T07:10:36Z</time>
      </trkpt>
      <trkpt lat="43.01943" lon="0.80889">
        <ele>537.03</ele>
        <time>2019-04-28T07:10:38Z</time>
      </trkpt>
      <trkpt lat="43.01937" lon="0.80914">
        <ele>538.48</ele>
        <time>2019-04-28T07:10:54Z</time>
      </trkpt>
      <trkpt lat="43.01937" lon="0.80919">
        <ele>538.96</ele>
        <time>2019-04-28T07:10:57Z</time>
      </trkpt>
      <trkpt lat="43.01937" lon="0.80921">
        <ele>538.96</ele>
        <time>2019-04-28T07:10:58Z</time>
      </trkpt>
      <trkpt lat="43.01931" lon="0.8096">
        <ele>539.92</ele>
        <time>2019-04-28T07:11:16Z</time>
      </trkpt>
      <trkpt lat="43.01926" lon="0.80999">
        <ele>540.4</ele>
        <time>2019-04-28T07:11:33Z</time>
      </trkpt>
      <trkpt lat="43.01921" lon="0.81035">
        <ele>541.36</ele>
        <time>2019-04-28T07:11:48Z</time>
      </trkpt>
      <trkpt lat="43.01917" lon="0.81076">
        <ele>541.84</ele>
        <time>2019-04-28T07:12:03Z</time>
      </trkpt>
      <trkpt lat="43.01917" lon="0.81088">
        <ele>541.36</ele>
        <time>2019-04-28T07:12:07Z</time>
      </trkpt>
      <trkpt lat="43.01916" lon="0.81091">
        <ele>541.36</ele>
        <time>2019-04-28T07:12:08Z</time>
      </trkpt>
      <trkpt lat="43.01915" lon="0.81093">
        <ele>541.36</ele>
        <time>2019-04-28T07:12:09Z</time>
      </trkpt>
      <trkpt lat="43.01915" lon="0.81097">
        <ele>541.36</ele>
        <time>2019-04-28T07:12:10Z</time>
      </trkpt>
      <trkpt lat="43.01914" lon="0.811">
        <ele>540.4</ele>
        <time>2019-04-28T07:12:11Z</time>
      </trkpt>
      <trkpt lat="43.01914" lon="0.81104">
        <ele>540.4</ele>
        <time>2019-04-28T07:12:12Z</time>
      </trkpt>
      <trkpt lat="43.01913" lon="0.81109">
        <ele>540.4</ele>
        <time>2019-04-28T07:12:13Z</time>
      </trkpt>
      <trkpt lat="43.01913" lon="0.81113">
        <ele>539.92</ele>
        <time>2019-04-28T07:12:14Z</time>
      </trkpt>
      <trkpt lat="43.01912" lon="0.81136">
        <ele>538.48</ele>
        <time>2019-04-28T07:12:18Z</time>
      </trkpt>
      <trkpt lat="43.01906" lon="0.81187">
        <ele>537.51</ele>
        <time>2019-04-28T07:12:30Z</time>
      </trkpt>
      <trkpt lat="43.01896" lon="0.81235">
        <ele>537.51</ele>
        <time>2019-04-28T07:12:46Z</time>
      </trkpt>
      <trkpt lat="43.01889" lon="0.81276">
        <ele>539.92</ele>
        <time>2019-04-28T07:13:02Z</time>
      </trkpt>
      <trkpt lat="43.01883" lon="0.81307">
        <ele>541.84</ele>
        <time>2019-04-28T07:13:16Z</time>
      </trkpt>
      <trkpt lat="43.01878" lon="0.81351">
        <ele>543.28</ele>
        <time>2019-04-28T07:13:34Z</time>
      </trkpt>
      <trkpt lat="43.01877" lon="0.81388">
        <ele>546.65</ele>
        <time>2019-04-28T07:13:51Z</time>
      </trkpt>
      <trkpt lat="43.01879" lon="0.81423">
        <ele>548.09</ele>
        <time>2019-04-28T07:14:08Z</time>
      </trkpt>
      <trkpt lat="43.01879" lon="0.81452">
        <ele>550.01</ele>
        <time>2019-04-28T07:14:21Z</time>
      </trkpt>
      <trkpt lat="43.0188" lon="0.81485">
        <ele>551.45</ele>
        <time>2019-04-28T07:14:36Z</time>
      </trkpt>
      <trkpt lat="43.01883" lon="0.81519">
        <ele>552.41</ele>
        <time>2019-04-28T07:14:50Z</time>
      </trkpt>
      <trkpt lat="43.01887" lon="0.81556">
        <ele>553.86</ele>
        <time>2019-04-28T07:15:05Z</time>
      </trkpt>
      <trkpt lat="43.01893" lon="0.81595">
        <ele>554.82</ele>
        <time>2019-04-28T07:15:21Z</time>
      </trkpt>
      <trkpt lat="43.01893" lon="0.81617">
        <ele>555.78</ele>
        <time>2019-04-28T07:15:30Z</time>
      </trkpt>
      <trkpt lat="43.01894" lon="0.81619">
        <ele>555.78</ele>
        <time>2019-04-28T07:15:31Z</time>
      </trkpt>
      <trkpt lat="43.01897" lon="0.81664">
        <ele>557.7</ele>
        <time>2019-04-28T07:15:46Z</time>
      </trkpt>
      <trkpt lat="43.01895" lon="0.81701">
        <ele>558.66</ele>
        <time>2019-04-28T07:15:58Z</time>
      </trkpt>
      <trkpt lat="43.01892" lon="0.81768">
        <ele>559.14</ele>
        <time>2019-04-28T07:16:14Z</time>
      </trkpt>
      <trkpt lat="43.01892" lon="0.81834">
        <ele>559.14</ele>
        <time>2019-04-28T07:16:26Z</time>
      </trkpt>
      <trkpt lat="43.01891" lon="0.81852">
        <ele>559.14</ele>
        <time>2019-04-28T07:16:29Z</time>
      </trkpt>
      <trkpt lat="43.01894" lon="0.81883">
        <ele>559.14</ele>
        <time>2019-04-28T07:16:34Z</time>
      </trkpt>
      <trkpt lat="43.01894" lon="0.81889">
        <ele>559.14</ele>
        <time>2019-04-28T07:16:35Z</time>
      </trkpt>
      <trkpt lat="43.01895" lon="0.81895">
        <ele>559.14</ele>
        <time>2019-04-28T07:16:36Z</time>
      </trkpt>
      <trkpt lat="43.01895" lon="0.81901">
        <ele>559.14</ele>
        <time>2019-04-28T07:16:37Z</time>
      </trkpt>
      <trkpt lat="43.01895" lon="0.81906">
        <ele>559.14</ele>
        <time>2019-04-28T07:16:38Z</time>
      </trkpt>
      <trkpt lat="43.01895" lon="0.81912">
        <ele>559.14</ele>
        <time>2019-04-28T07:16:39Z</time>
      </trkpt>
      <trkpt lat="43.01896" lon="0.81977">
        <ele>559.62</ele>
        <time>2019-04-28T07:16:51Z</time>
      </trkpt>
      <trkpt lat="43.01896" lon="0.81983">
        <ele>559.62</ele>
        <time>2019-04-28T07:16:52Z</time>
      </trkpt>
      <trkpt lat="43.01894" lon="0.82075">
        <ele>560.59</ele>
        <time>2019-04-28T07:17:09Z</time>
      </trkpt>
      <trkpt lat="43.01893" lon="0.82092">
        <ele>560.59</ele>
        <time>2019-04-28T07:17:12Z</time>
      </trkpt>
      <trkpt lat="43.01888" lon="0.82194">
        <ele>559.62</ele>
        <time>2019-04-28T07:17:28Z</time>
      </trkpt>
      <trkpt lat="43.01889" lon="0.82264">
        <ele>559.62</ele>
        <time>2019-04-28T07:17:40Z</time>
      </trkpt>
      <trkpt lat="43.01891" lon="0.82275">
        <ele>559.62</ele>
        <time>2019-04-28T07:17:42Z</time>
      </trkpt>
      <trkpt lat="43.01891" lon="0.82287">
        <ele>559.62</ele>
        <time>2019-04-28T07:17:44Z</time>
      </trkpt>
      <trkpt lat="43.01887" lon="0.82352">
        <ele>560.59</ele>
        <time>2019-04-28T07:17:56Z</time>
      </trkpt>
      <trkpt lat="43.01882" lon="0.82417">
        <ele>563.47</ele>
        <time>2019-04-28T07:18:12Z</time>
      </trkpt>
      <trkpt lat="43.01871" lon="0.82503">
        <ele>564.91</ele>
        <time>2019-04-28T07:18:33Z</time>
      </trkpt>
      <trkpt lat="43.01859" lon="0.82584">
        <ele>567.32</ele>
        <time>2019-04-28T07:18:54Z</time>
      </trkpt>
      <trkpt lat="43.01848" lon="0.82651">
        <ele>568.28</ele>
        <time>2019-04-28T07:19:09Z</time>
      </trkpt>
      <trkpt lat="43.01837" lon="0.82737">
        <ele>567.8</ele>
        <time>2019-04-28T07:19:24Z</time>
      </trkpt>
      <trkpt lat="43.01825" lon="0.82807">
        <ele>568.28</ele>
        <time>2019-04-28T07:19:38Z</time>
      </trkpt>
      <trkpt lat="43.01811" lon="0.82874">
        <ele>570.68</ele>
        <time>2019-04-28T07:19:55Z</time>
      </trkpt>
      <trkpt lat="43.01793" lon="0.8295">
        <ele>573.08</ele>
        <time>2019-04-28T07:20:16Z</time>
      </trkpt>
      <trkpt lat="43.01756" lon="0.83025">
        <ele>573.56</ele>
        <time>2019-04-28T07:20:35Z</time>
      </trkpt>
      <trkpt lat="43.017" lon="0.83112">
        <ele>574.53</ele>
        <time>2019-04-28T07:20:55Z</time>
      </trkpt>
      <trkpt lat="43.01635" lon="0.83189">
        <ele>575.01</ele>
        <time>2019-04-28T07:21:15Z</time>
      </trkpt>
      <trkpt lat="43.01621" lon="0.83199">
        <ele>574.04</ele>
        <time>2019-04-28T07:21:18Z</time>
      </trkpt>
      <trkpt lat="43.01594" lon="0.8322">
        <ele>572.12</ele>
        <time>2019-04-28T07:21:23Z</time>
      </trkpt>
      <trkpt lat="43.01537" lon="0.83262">
        <ele>568.76</ele>
        <time>2019-04-28T07:21:32Z</time>
      </trkpt>
      <trkpt lat="43.01462" lon="0.83314">
        <ele>568.76</ele>
        <time>2019-04-28T07:21:47Z</time>
      </trkpt>
      <trkpt lat="43.01439" lon="0.8333">
        <ele>570.2</ele>
        <time>2019-04-28T07:21:53Z</time>
      </trkpt>
      <trkpt lat="43.01412" lon="0.83356">
        <ele>573.56</ele>
        <time>2019-04-28T07:22:07Z</time>
      </trkpt>
      <trkpt lat="43.01397" lon="0.83379">
        <ele>576.45</ele>
        <time>2019-04-28T07:22:20Z</time>
      </trkpt>
      <trkpt lat="43.01373" lon="0.83407">
        <ele>579.33</ele>
        <time>2019-04-28T07:22:37Z</time>
      </trkpt>
      <trkpt lat="43.01328" lon="0.83433">
        <ele>581.25</ele>
        <time>2019-04-28T07:22:58Z</time>
      </trkpt>
      <trkpt lat="43.01289" lon="0.83468">
        <ele>583.18</ele>
        <time>2019-04-28T07:23:17Z</time>
      </trkpt>
      <trkpt lat="43.01262" lon="0.8351">
        <ele>584.62</ele>
        <time>2019-04-28T07:23:33Z</time>
      </trkpt>
      <trkpt lat="43.01241" lon="0.83539">
        <ele>587.5</ele>
        <time>2019-04-28T07:23:48Z</time>
      </trkpt>
      <trkpt lat="43.01222" lon="0.83566">
        <ele>590.39</ele>
        <time>2019-04-28T07:24:04Z</time>
      </trkpt>
      <trkpt lat="43.01202" lon="0.83597">
        <ele>593.75</ele>
        <time>2019-04-28T07:24:22Z</time>
      </trkpt>
      <trkpt lat="43.01188" lon="0.83631">
        <ele>596.64</ele>
        <time>2019-04-28T07:24:40Z</time>
      </trkpt>
      <trkpt lat="43.0118" lon="0.83666">
        <ele>600</ele>
        <time>2019-04-28T07:24:57Z</time>
      </trkpt>
      <trkpt lat="43.01187" lon="0.83699">
        <ele>602.4</ele>
        <time>2019-04-28T07:25:13Z</time>
      </trkpt>
      <trkpt lat="43.012" lon="0.83734">
        <ele>605.29</ele>
        <time>2019-04-28T07:25:31Z</time>
      </trkpt>
      <trkpt lat="43.01212" lon="0.83764">
        <ele>608.65</ele>
        <time>2019-04-28T07:25:47Z</time>
      </trkpt>
      <trkpt lat="43.01227" lon="0.83803">
        <ele>611.54</ele>
        <time>2019-04-28T07:26:07Z</time>
      </trkpt>
      <trkpt lat="43.01242" lon="0.83836">
        <ele>614.9</ele>
        <time>2019-04-28T07:26:25Z</time>
      </trkpt>
      <trkpt lat="43.01266" lon="0.83861">
        <ele>618.26</ele>
        <time>2019-04-28T07:26:45Z</time>
      </trkpt>
      <trkpt lat="43.01294" lon="0.83881">
        <ele>621.63</ele>
        <time>2019-04-28T07:27:05Z</time>
      </trkpt>
      <trkpt lat="43.01295" lon="0.83893">
        <ele>622.59</ele>
        <time>2019-04-28T07:27:11Z</time>
      </trkpt>
      <trkpt lat="43.01294" lon="0.83895">
        <ele>622.59</ele>
        <time>2019-04-28T07:27:12Z</time>
      </trkpt>
      <trkpt lat="43.01292" lon="0.83895">
        <ele>623.07</ele>
        <time>2019-04-28T07:27:13Z</time>
      </trkpt>
      <trkpt lat="43.01291" lon="0.83896">
        <ele>623.07</ele>
        <time>2019-04-28T07:27:14Z</time>
      </trkpt>
      <trkpt lat="43.01289" lon="0.83896">
        <ele>623.55</ele>
        <time>2019-04-28T07:27:15Z</time>
      </trkpt>
      <trkpt lat="43.01288" lon="0.83897">
        <ele>623.55</ele>
        <time>2019-04-28T07:27:16Z</time>
      </trkpt>
      <trkpt lat="43.01286" lon="0.83897">
        <ele>624.03</ele>
        <time>2019-04-28T07:27:17Z</time>
      </trkpt>
      <trkpt lat="43.01285" lon="0.83897">
        <ele>624.03</ele>
        <time>2019-04-28T07:27:18Z</time>
      </trkpt>
      <trkpt lat="43.01261" lon="0.83893">
        <ele>626.92</ele>
        <time>2019-04-28T07:27:34Z</time>
      </trkpt>
      <trkpt lat="43.01236" lon="0.83908">
        <ele>630.28</ele>
        <time>2019-04-28T07:27:52Z</time>
      </trkpt>
      <trkpt lat="43.01213" lon="0.83936">
        <ele>633.65</ele>
        <time>2019-04-28T07:28:11Z</time>
      </trkpt>
      <trkpt lat="43.012" lon="0.83971">
        <ele>637.01</ele>
        <time>2019-04-28T07:28:28Z</time>
      </trkpt>
      <trkpt lat="43.01192" lon="0.84013">
        <ele>639.89</ele>
        <time>2019-04-28T07:28:48Z</time>
      </trkpt>
      <trkpt lat="43.01202" lon="0.84045">
        <ele>643.26</ele>
        <time>2019-04-28T07:29:05Z</time>
      </trkpt>
      <trkpt lat="43.0122" lon="0.84062">
        <ele>645.66</ele>
        <time>2019-04-28T07:29:19Z</time>
      </trkpt>
      <trkpt lat="43.01238" lon="0.84096">
        <ele>647.59</ele>
        <time>2019-04-28T07:29:36Z</time>
      </trkpt>
      <trkpt lat="43.0124" lon="0.84106">
        <ele>647.59</ele>
        <time>2019-04-28T07:29:38Z</time>
      </trkpt>
      <trkpt lat="43.01238" lon="0.84112">
        <ele>646.14</ele>
        <time>2019-04-28T07:29:39Z</time>
      </trkpt>
      <trkpt lat="43.01235" lon="0.84117">
        <ele>646.14</ele>
        <time>2019-04-28T07:29:40Z</time>
      </trkpt>
      <trkpt lat="43.01231" lon="0.84119">
        <ele>645.66</ele>
        <time>2019-04-28T07:29:41Z</time>
      </trkpt>
      <trkpt lat="43.01227" lon="0.8412">
        <ele>645.66</ele>
        <time>2019-04-28T07:29:42Z</time>
      </trkpt>
      <trkpt lat="43.01223" lon="0.84119">
        <ele>645.66</ele>
        <time>2019-04-28T07:29:43Z</time>
      </trkpt>
      <trkpt lat="43.01219" lon="0.84117">
        <ele>645.66</ele>
        <time>2019-04-28T07:29:44Z</time>
      </trkpt>
      <trkpt lat="43.01216" lon="0.84115">
        <ele>645.66</ele>
        <time>2019-04-28T07:29:45Z</time>
      </trkpt>
      <trkpt lat="43.01186" lon="0.84096">
        <ele>647.1</ele>
        <time>2019-04-28T07:29:57Z</time>
      </trkpt>
      <trkpt lat="43.01152" lon="0.84096">
        <ele>649.99</ele>
        <time>2019-04-28T07:30:14Z</time>
      </trkpt>
      <trkpt lat="43.01122" lon="0.84104">
        <ele>652.87</ele>
        <time>2019-04-28T07:30:31Z</time>
      </trkpt>
      <trkpt lat="43.01092" lon="0.84135">
        <ele>656.24</ele>
        <time>2019-04-28T07:30:51Z</time>
      </trkpt>
      <trkpt lat="43.0107" lon="0.84174">
        <ele>659.12</ele>
        <time>2019-04-28T07:31:12Z</time>
      </trkpt>
      <trkpt lat="43.01045" lon="0.84193">
        <ele>661.04</ele>
        <time>2019-04-28T07:31:28Z</time>
      </trkpt>
      <trkpt lat="43.01019" lon="0.84174">
        <ele>663.45</ele>
        <time>2019-04-28T07:31:46Z</time>
      </trkpt>
      <trkpt lat="43.0099" lon="0.84161">
        <ele>666.33</ele>
        <time>2019-04-28T07:32:05Z</time>
      </trkpt>
      <trkpt lat="43.00963" lon="0.84162">
        <ele>668.25</ele>
        <time>2019-04-28T07:32:21Z</time>
      </trkpt>
      <trkpt lat="43.00924" lon="0.84163">
        <ele>670.18</ele>
        <time>2019-04-28T07:32:44Z</time>
      </trkpt>
      <trkpt lat="43.00891" lon="0.84157">
        <ele>672.1</ele>
        <time>2019-04-28T07:33:02Z</time>
      </trkpt>
      <trkpt lat="43.00863" lon="0.84143">
        <ele>674.5</ele>
        <time>2019-04-28T07:33:19Z</time>
      </trkpt>
      <trkpt lat="43.00835" lon="0.84162">
        <ele>676.91</ele>
        <time>2019-04-28T07:33:36Z</time>
      </trkpt>
      <trkpt lat="43.0081" lon="0.84175">
        <ele>674.5</ele>
        <time>2019-04-28T07:33:46Z</time>
      </trkpt>
      <trkpt lat="43.00785" lon="0.84187">
        <ele>670.66</ele>
        <time>2019-04-28T07:33:54Z</time>
      </trkpt>
      <trkpt lat="43.00766" lon="0.84197">
        <ele>666.81</ele>
        <time>2019-04-28T07:33:59Z</time>
      </trkpt>
      <trkpt lat="43.00763" lon="0.84199">
        <ele>666.81</ele>
        <time>2019-04-28T07:34:00Z</time>
      </trkpt>
      <trkpt lat="43.00758" lon="0.84203">
        <ele>665.85</ele>
        <time>2019-04-28T07:34:02Z</time>
      </trkpt>
      <trkpt lat="43.00756" lon="0.84205">
        <ele>664.89</ele>
        <time>2019-04-28T07:34:03Z</time>
      </trkpt>
      <trkpt lat="43.00754" lon="0.84207">
        <ele>664.89</ele>
        <time>2019-04-28T07:34:04Z</time>
      </trkpt>
      <trkpt lat="43.00742" lon="0.84218">
        <ele>662.97</ele>
        <time>2019-04-28T07:34:08Z</time>
      </trkpt>
      <trkpt lat="43.00711" lon="0.84246">
        <ele>659.12</ele>
        <time>2019-04-28T07:34:14Z</time>
      </trkpt>
      <trkpt lat="43.0068" lon="0.84267">
        <ele>655.28</ele>
        <time>2019-04-28T07:34:18Z</time>
      </trkpt>
      <trkpt lat="43.00656" lon="0.84288">
        <ele>650.95</ele>
        <time>2019-04-28T07:34:21Z</time>
      </trkpt>
      <trkpt lat="43.00628" lon="0.84318">
        <ele>647.59</ele>
        <time>2019-04-28T07:34:25Z</time>
      </trkpt>
      <trkpt lat="43.00615" lon="0.84332">
        <ele>646.14</ele>
        <time>2019-04-28T07:34:28Z</time>
      </trkpt>
      <trkpt lat="43.0061" lon="0.84335">
        <ele>645.18</ele>
        <time>2019-04-28T07:34:29Z</time>
      </trkpt>
      <trkpt lat="43.00604" lon="0.84334">
        <ele>644.22</ele>
        <time>2019-04-28T07:34:30Z</time>
      </trkpt>
      <trkpt lat="43.00598" lon="0.84332">
        <ele>643.26</ele>
        <time>2019-04-28T07:34:31Z</time>
      </trkpt>
      <trkpt lat="43.00592" lon="0.84329">
        <ele>641.82</ele>
        <time>2019-04-28T07:34:32Z</time>
      </trkpt>
      <trkpt lat="43.00586" lon="0.84324">
        <ele>640.86</ele>
        <time>2019-04-28T07:34:33Z</time>
      </trkpt>
      <trkpt lat="43.00582" lon="0.84319">
        <ele>640.38</ele>
        <time>2019-04-28T07:34:34Z</time>
      </trkpt>
      <trkpt lat="43.00578" lon="0.84314">
        <ele>640.38</ele>
        <time>2019-04-28T07:34:35Z</time>
      </trkpt>
      <trkpt lat="43.00574" lon="0.84309">
        <ele>639.41</ele>
        <time>2019-04-28T07:34:36Z</time>
      </trkpt>
      <trkpt lat="43.0057" lon="0.84304">
        <ele>639.41</ele>
        <time>2019-04-28T07:34:37Z</time>
      </trkpt>
      <trkpt lat="43.00565" lon="0.843">
        <ele>637.49</ele>
        <time>2019-04-28T07:34:38Z</time>
      </trkpt>
      <trkpt lat="43.00558" lon="0.84297">
        <ele>636.53</ele>
        <time>2019-04-28T07:34:39Z</time>
      </trkpt>
      <trkpt lat="43.00551" lon="0.84296">
        <ele>634.61</ele>
        <time>2019-04-28T07:34:40Z</time>
      </trkpt>
      <trkpt lat="43.00543" lon="0.84295">
        <ele>633.65</ele>
        <time>2019-04-28T07:34:41Z</time>
      </trkpt>
      <trkpt lat="43.00535" lon="0.84294">
        <ele>632.2</ele>
        <time>2019-04-28T07:34:42Z</time>
      </trkpt>
      <trkpt lat="43.00511" lon="0.84296">
        <ele>629.32</ele>
        <time>2019-04-28T07:34:45Z</time>
      </trkpt>
      <trkpt lat="43.00505" lon="0.84296">
        <ele>629.32</ele>
        <time>2019-04-28T07:34:46Z</time>
      </trkpt>
      <trkpt lat="43.00499" lon="0.84295">
        <ele>628.36</ele>
        <time>2019-04-28T07:34:47Z</time>
      </trkpt>
      <trkpt lat="43.00495" lon="0.84292">
        <ele>628.36</ele>
        <time>2019-04-28T07:34:48Z</time>
      </trkpt>
      <trkpt lat="43.00492" lon="0.84288">
        <ele>627.88</ele>
        <time>2019-04-28T07:34:49Z</time>
      </trkpt>
      <trkpt lat="43.0049" lon="0.84284">
        <ele>627.88</ele>
        <time>2019-04-28T07:34:50Z</time>
      </trkpt>
      <trkpt lat="43.0049" lon="0.84278">
        <ele>627.88</ele>
        <time>2019-04-28T07:34:51Z</time>
      </trkpt>
      <trkpt lat="43.0049" lon="0.84274">
        <ele>627.88</ele>
        <time>2019-04-28T07:34:52Z</time>
      </trkpt>
      <trkpt lat="43.00496" lon="0.84261">
        <ele>629.32</ele>
        <time>2019-04-28T07:34:58Z</time>
      </trkpt>
      <trkpt lat="43.00505" lon="0.84252">
        <ele>631.72</ele>
        <time>2019-04-28T07:35:08Z</time>
      </trkpt>
      <trkpt lat="43.00507" lon="0.84251">
        <ele>632.2</ele>
        <time>2019-04-28T07:35:09Z</time>
      </trkpt>
      <trkpt lat="43.00508" lon="0.84251">
        <ele>632.2</ele>
        <time>2019-04-28T07:35:10Z</time>
      </trkpt>
      <trkpt lat="43.00508" lon="0.8425">
        <ele>632.68</ele>
        <time>2019-04-28T07:35:11Z</time>
      </trkpt>
      <trkpt lat="43.00509" lon="0.84249">
        <ele>632.68</ele>
        <time>2019-04-28T07:35:12Z</time>
      </trkpt>
      <trkpt lat="43.00523" lon="0.84234">
        <ele>636.05</ele>
        <time>2019-04-28T07:35:27Z</time>
      </trkpt>
      <trkpt lat="43.00542" lon="0.84225">
        <ele>639.41</ele>
        <time>2019-04-28T07:35:40Z</time>
      </trkpt>
      <trkpt lat="43.00557" lon="0.84213">
        <ele>641.34</ele>
        <time>2019-04-28T07:35:54Z</time>
      </trkpt>
      <trkpt lat="43.00573" lon="0.84192">
        <ele>644.22</ele>
        <time>2019-04-28T07:36:10Z</time>
      </trkpt>
      <trkpt lat="43.00584" lon="0.84163">
        <ele>646.62</ele>
        <time>2019-04-28T07:36:27Z</time>
      </trkpt>
      <trkpt lat="43.00595" lon="0.84136">
        <ele>649.03</ele>
        <time>2019-04-28T07:36:44Z</time>
      </trkpt>
      <trkpt lat="43.00598" lon="0.84125">
        <ele>650.47</ele>
        <time>2019-04-28T07:36:51Z</time>
      </trkpt>
      <trkpt lat="43.00599" lon="0.84123">
        <ele>650.47</ele>
        <time>2019-04-28T07:36:52Z</time>
      </trkpt>
      <trkpt lat="43.006" lon="0.84122">
        <ele>650.47</ele>
        <time>2019-04-28T07:36:53Z</time>
      </trkpt>
      <trkpt lat="43.00601" lon="0.8412">
        <ele>650.95</ele>
        <time>2019-04-28T07:36:54Z</time>
      </trkpt>
      <trkpt lat="43.00602" lon="0.84118">
        <ele>650.95</ele>
        <time>2019-04-28T07:36:55Z</time>
      </trkpt>
      <trkpt lat="43.00604" lon="0.8411">
        <ele>651.43</ele>
        <time>2019-04-28T07:36:59Z</time>
      </trkpt>
      <trkpt lat="43.00605" lon="0.84109">
        <ele>651.91</ele>
        <time>2019-04-28T07:37:00Z</time>
      </trkpt>
      <trkpt lat="43.00605" lon="0.84107">
        <ele>651.91</ele>
        <time>2019-04-28T07:37:01Z</time>
      </trkpt>
      <trkpt lat="43.00613" lon="0.84086">
        <ele>654.31</ele>
        <time>2019-04-28T07:37:16Z</time>
      </trkpt>
      <trkpt lat="43.00619" lon="0.84069">
        <ele>656.24</ele>
        <time>2019-04-28T07:37:27Z</time>
      </trkpt>
      <trkpt lat="43.00619" lon="0.84034">
        <ele>658.64</ele>
        <time>2019-04-28T07:37:42Z</time>
      </trkpt>
      <trkpt lat="43.00602" lon="0.84014">
        <ele>661.04</ele>
        <time>2019-04-28T07:37:57Z</time>
      </trkpt>
      <trkpt lat="43.00577" lon="0.84005">
        <ele>663.93</ele>
        <time>2019-04-28T07:38:13Z</time>
      </trkpt>
      <trkpt lat="43.00569" lon="0.83995">
        <ele>664.89</ele>
        <time>2019-04-28T07:38:20Z</time>
      </trkpt>
      <trkpt lat="43.00568" lon="0.83989">
        <ele>664.89</ele>
        <time>2019-04-28T07:38:23Z</time>
      </trkpt>
      <trkpt lat="43.00568" lon="0.83987">
        <ele>664.89</ele>
        <time>2019-04-28T07:38:24Z</time>
      </trkpt>
      <trkpt lat="43.00568" lon="0.83984">
        <ele>664.89</ele>
        <time>2019-04-28T07:38:25Z</time>
      </trkpt>
      <trkpt lat="43.00571" lon="0.83968">
        <ele>665.85</ele>
        <time>2019-04-28T07:38:34Z</time>
      </trkpt>
      <trkpt lat="43.00571" lon="0.83966">
        <ele>666.81</ele>
        <time>2019-04-28T07:38:35Z</time>
      </trkpt>
      <trkpt lat="43.00573" lon="0.83965">
        <ele>666.81</ele>
        <time>2019-04-28T07:38:36Z</time>
      </trkpt>
      <trkpt lat="43.00574" lon="0.83963">
        <ele>666.81</ele>
        <time>2019-04-28T07:38:37Z</time>
      </trkpt>
      <trkpt lat="43.00575" lon="0.83962">
        <ele>667.29</ele>
        <time>2019-04-28T07:38:38Z</time>
      </trkpt>
      <trkpt lat="43.00576" lon="0.8396">
        <ele>667.29</ele>
        <time>2019-04-28T07:38:39Z</time>
      </trkpt>
      <trkpt lat="43.00594" lon="0.83943">
        <ele>668.73</ele>
        <time>2019-04-28T07:38:53Z</time>
      </trkpt>
      <trkpt lat="43.00613" lon="0.83906">
        <ele>670.66</ele>
        <time>2019-04-28T07:39:12Z</time>
      </trkpt>
      <trkpt lat="43.00629" lon="0.83868">
        <ele>673.06</ele>
        <time>2019-04-28T07:39:31Z</time>
      </trkpt>
      <trkpt lat="43.00654" lon="0.83838">
        <ele>675.94</ele>
        <time>2019-04-28T07:39:52Z</time>
      </trkpt>
      <trkpt lat="43.0068" lon="0.83814">
        <ele>678.35</ele>
        <time>2019-04-28T07:40:12Z</time>
      </trkpt>
      <trkpt lat="43.00705" lon="0.83786">
        <ele>681.23</ele>
        <time>2019-04-28T07:40:32Z</time>
      </trkpt>
      <trkpt lat="43.00715" lon="0.83749">
        <ele>683.15</ele>
        <time>2019-04-28T07:40:50Z</time>
      </trkpt>
      <trkpt lat="43.00709" lon="0.83716">
        <ele>685.08</ele>
        <time>2019-04-28T07:41:06Z</time>
      </trkpt>
      <trkpt lat="43.00698" lon="0.83704">
        <ele>686.04</ele>
        <time>2019-04-28T07:41:15Z</time>
      </trkpt>
      <trkpt lat="43.00671" lon="0.83705">
        <ele>688.44</ele>
        <time>2019-04-28T07:41:33Z</time>
      </trkpt>
      <trkpt lat="43.0065" lon="0.83719">
        <ele>691.81</ele>
        <time>2019-04-28T07:41:50Z</time>
      </trkpt>
      <trkpt lat="43.00637" lon="0.83726">
        <ele>693.25</ele>
        <time>2019-04-28T07:42:06Z</time>
      </trkpt>
      <trkpt lat="43.0064" lon="0.83727">
        <ele>693.25</ele>
        <time>2019-04-28T07:42:39Z</time>
      </trkpt>
      <trkpt lat="43.00639" lon="0.83728">
        <ele>693.25</ele>
        <time>2019-04-28T07:43:01Z</time>
      </trkpt>
      <trkpt lat="43.00636" lon="0.83727">
        <ele>693.73</ele>
        <time>2019-04-28T07:43:22Z</time>
      </trkpt>
      <trkpt lat="43.00634" lon="0.8372">
        <ele>693.73</ele>
        <time>2019-04-28T07:43:36Z</time>
      </trkpt>
      <trkpt lat="43.00633" lon="0.83716">
        <ele>693.73</ele>
        <time>2019-04-28T07:43:50Z</time>
      </trkpt>
      <trkpt lat="43.00625" lon="0.83698">
        <ele>693.73</ele>
        <time>2019-04-28T07:44:05Z</time>
      </trkpt>
      <trkpt lat="43.00616" lon="0.83681">
        <ele>694.69</ele>
        <time>2019-04-28T07:44:19Z</time>
      </trkpt>
      <trkpt lat="43.00606" lon="0.83661">
        <ele>695.17</ele>
        <time>2019-04-28T07:44:35Z</time>
      </trkpt>
      <trkpt lat="43.00595" lon="0.8364">
        <ele>695.17</ele>
        <time>2019-04-28T07:44:53Z</time>
      </trkpt>
      <trkpt lat="43.00581" lon="0.83623">
        <ele>696.61</ele>
        <time>2019-04-28T07:45:12Z</time>
      </trkpt>
      <trkpt lat="43.00571" lon="0.83624">
        <ele>699.5</ele>
        <time>2019-04-28T07:45:29Z</time>
      </trkpt>
      <trkpt lat="43.00569" lon="0.83622">
        <ele>700.46</ele>
        <time>2019-04-28T07:45:44Z</time>
      </trkpt>
      <trkpt lat="43.00554" lon="0.83614">
        <ele>701.9</ele>
        <time>2019-04-28T07:46:01Z</time>
      </trkpt>
      <trkpt lat="43.00538" lon="0.83609">
        <ele>702.86</ele>
        <time>2019-04-28T07:46:17Z</time>
      </trkpt>
      <trkpt lat="43.00524" lon="0.83609">
        <ele>705.75</ele>
        <time>2019-04-28T07:46:34Z</time>
      </trkpt>
      <trkpt lat="43.00518" lon="0.83611">
        <ele>707.19</ele>
        <time>2019-04-28T07:46:42Z</time>
      </trkpt>
      <trkpt lat="43.00503" lon="0.83617">
        <ele>708.63</ele>
        <time>2019-04-28T07:46:59Z</time>
      </trkpt>
      <trkpt lat="43.00495" lon="0.83613">
        <ele>708.63</ele>
        <time>2019-04-28T07:47:12Z</time>
      </trkpt>
      <trkpt lat="43.00491" lon="0.83614">
        <ele>707.19</ele>
        <time>2019-04-28T07:47:25Z</time>
      </trkpt>
      <trkpt lat="43.0049" lon="0.83605">
        <ele>704.3</ele>
        <time>2019-04-28T07:47:36Z</time>
      </trkpt>
      <trkpt lat="43.00476" lon="0.83607">
        <ele>703.34</ele>
        <time>2019-04-28T07:47:50Z</time>
      </trkpt>
      <trkpt lat="43.00457" lon="0.83615">
        <ele>701.9</ele>
        <time>2019-04-28T07:48:10Z</time>
      </trkpt>
      <trkpt lat="43.00441" lon="0.83623">
        <ele>700.46</ele>
        <time>2019-04-28T07:48:28Z</time>
      </trkpt>
      <trkpt lat="43.00428" lon="0.83625">
        <ele>700.46</ele>
        <time>2019-04-28T07:48:44Z</time>
      </trkpt>
      <trkpt lat="43.00418" lon="0.83625">
        <ele>701.9</ele>
        <time>2019-04-28T07:48:57Z</time>
      </trkpt>
      <trkpt lat="43.0041" lon="0.83623">
        <ele>699.98</ele>
        <time>2019-04-28T07:49:10Z</time>
      </trkpt>
      <trkpt lat="43.00401" lon="0.83623">
        <ele>698.53</ele>
        <time>2019-04-28T07:49:23Z</time>
      </trkpt>
      <trkpt lat="43.00398" lon="0.83621">
        <ele>698.05</ele>
        <time>2019-04-28T07:49:41Z</time>
      </trkpt>
      <trkpt lat="43.00392" lon="0.83622">
        <ele>696.61</ele>
        <time>2019-04-28T07:49:54Z</time>
      </trkpt>
      <trkpt lat="43.0038" lon="0.83625">
        <ele>695.65</ele>
        <time>2019-04-28T07:50:07Z</time>
      </trkpt>
      <trkpt lat="43.00372" lon="0.83623">
        <ele>694.21</ele>
        <time>2019-04-28T07:50:19Z</time>
      </trkpt>
      <trkpt lat="43.00365" lon="0.8362">
        <ele>693.25</ele>
        <time>2019-04-28T07:50:31Z</time>
      </trkpt>
      <trkpt lat="43.00358" lon="0.8361">
        <ele>691.81</ele>
        <time>2019-04-28T07:50:43Z</time>
      </trkpt>
      <trkpt lat="43.0036" lon="0.83605">
        <ele>690.36</ele>
        <time>2019-04-28T07:50:57Z</time>
      </trkpt>
      <trkpt lat="43.0036" lon="0.83602">
        <ele>692.29</ele>
        <time>2019-04-28T07:51:10Z</time>
      </trkpt>
      <trkpt lat="43.00363" lon="0.83592">
        <ele>694.21</ele>
        <time>2019-04-28T07:51:24Z</time>
      </trkpt>
      <trkpt lat="43.00368" lon="0.8358">
        <ele>694.21</ele>
        <time>2019-04-28T07:51:36Z</time>
      </trkpt>
      <trkpt lat="43.00369" lon="0.83579">
        <ele>694.21</ele>
        <time>2019-04-28T07:51:38Z</time>
      </trkpt>
      <trkpt lat="43.00382" lon="0.8356">
        <ele>696.13</ele>
        <time>2019-04-28T07:51:58Z</time>
      </trkpt>
      <trkpt lat="43.00386" lon="0.83543">
        <ele>698.53</ele>
        <time>2019-04-28T07:52:14Z</time>
      </trkpt>
      <trkpt lat="43.00387" lon="0.83514">
        <ele>699.98</ele>
        <time>2019-04-28T07:52:34Z</time>
      </trkpt>
      <trkpt lat="43.0038" lon="0.83498">
        <ele>700.94</ele>
        <time>2019-04-28T07:52:51Z</time>
      </trkpt>
      <trkpt lat="43.00379" lon="0.83488">
        <ele>700.94</ele>
        <time>2019-04-28T07:53:02Z</time>
      </trkpt>
      <trkpt lat="43.00376" lon="0.83473">
        <ele>699.5</ele>
        <time>2019-04-28T07:53:08Z</time>
      </trkpt>
      <trkpt lat="43.00373" lon="0.83464">
        <ele>699.5</ele>
        <time>2019-04-28T07:53:13Z</time>
      </trkpt>
      <trkpt lat="43.00369" lon="0.83452">
        <ele>700.94</ele>
        <time>2019-04-28T07:53:19Z</time>
      </trkpt>
      <trkpt lat="43.00361" lon="0.83409">
        <ele>699.98</ele>
        <time>2019-04-28T07:53:35Z</time>
      </trkpt>
      <trkpt lat="43.00361" lon="0.83403">
        <ele>699.98</ele>
        <time>2019-04-28T07:53:36Z</time>
      </trkpt>
      <trkpt lat="43.00366" lon="0.83371">
        <ele>698.53</ele>
        <time>2019-04-28T07:53:46Z</time>
      </trkpt>
      <trkpt lat="43.00382" lon="0.8336">
        <ele>699.98</ele>
        <time>2019-04-28T07:53:59Z</time>
      </trkpt>
      <trkpt lat="43.00398" lon="0.83358">
        <ele>701.9</ele>
        <time>2019-04-28T07:54:13Z</time>
      </trkpt>
      <trkpt lat="43.00406" lon="0.83354">
        <ele>703.34</ele>
        <time>2019-04-28T07:54:20Z</time>
      </trkpt>
      <trkpt lat="43.00419" lon="0.8334">
        <ele>705.75</ele>
        <time>2019-04-28T07:54:32Z</time>
      </trkpt>
      <trkpt lat="43.00425" lon="0.83328">
        <ele>708.63</ele>
        <time>2019-04-28T07:54:45Z</time>
      </trkpt>
      <trkpt lat="43.0043" lon="0.83312">
        <ele>711.03</ele>
        <time>2019-04-28T07:54:58Z</time>
      </trkpt>
      <trkpt lat="43.00433" lon="0.83305">
        <ele>711.51</ele>
        <time>2019-04-28T07:55:02Z</time>
      </trkpt>
      <trkpt lat="43.00437" lon="0.83282">
        <ele>713.44</ele>
        <time>2019-04-28T07:55:17Z</time>
      </trkpt>
      <trkpt lat="43.00442" lon="0.83262">
        <ele>715.36</ele>
        <time>2019-04-28T07:55:31Z</time>
      </trkpt>
      <trkpt lat="43.00449" lon="0.83238">
        <ele>716.32</ele>
        <time>2019-04-28T07:55:47Z</time>
      </trkpt>
      <trkpt lat="43.0045" lon="0.83236">
        <ele>716.8</ele>
        <time>2019-04-28T07:55:48Z</time>
      </trkpt>
      <trkpt lat="43.0045" lon="0.83208">
        <ele>717.76</ele>
        <time>2019-04-28T07:56:03Z</time>
      </trkpt>
      <trkpt lat="43.00448" lon="0.83182">
        <ele>719.68</ele>
        <time>2019-04-28T07:56:17Z</time>
      </trkpt>
      <trkpt lat="43.00448" lon="0.83174">
        <ele>720.16</ele>
        <time>2019-04-28T07:56:21Z</time>
      </trkpt>
      <trkpt lat="43.00446" lon="0.83135">
        <ele>722.57</ele>
        <time>2019-04-28T07:56:39Z</time>
      </trkpt>
      <trkpt lat="43.00444" lon="0.83106">
        <ele>724.97</ele>
        <time>2019-04-28T07:56:55Z</time>
      </trkpt>
      <trkpt lat="43.0045" lon="0.83086">
        <ele>726.41</ele>
        <time>2019-04-28T07:57:07Z</time>
      </trkpt>
      <trkpt lat="43.00465" lon="0.83075">
        <ele>727.37</ele>
        <time>2019-04-28T07:57:22Z</time>
      </trkpt>
      <trkpt lat="43.00479" lon="0.83065">
        <ele>729.78</ele>
        <time>2019-04-28T07:57:36Z</time>
      </trkpt>
      <trkpt lat="43.0049" lon="0.83057">
        <ele>731.22</ele>
        <time>2019-04-28T07:57:46Z</time>
      </trkpt>
      <trkpt lat="43.00496" lon="0.83051">
        <ele>732.18</ele>
        <time>2019-04-28T07:57:52Z</time>
      </trkpt>
      <trkpt lat="43.00507" lon="0.83032">
        <ele>733.62</ele>
        <time>2019-04-28T07:58:07Z</time>
      </trkpt>
      <trkpt lat="43.00515" lon="0.83009">
        <ele>733.62</ele>
        <time>2019-04-28T07:58:24Z</time>
      </trkpt>
      <trkpt lat="43.00539" lon="0.82947">
        <ele>734.1</ele>
        <time>2019-04-28T07:58:43Z</time>
      </trkpt>
      <trkpt lat="43.00566" lon="0.82915">
        <ele>734.58</ele>
        <time>2019-04-28T07:58:56Z</time>
      </trkpt>
      <trkpt lat="43.00571" lon="0.82916">
        <ele>734.58</ele>
        <time>2019-04-28T07:58:57Z</time>
      </trkpt>
      <trkpt lat="43.00576" lon="0.82917">
        <ele>734.58</ele>
        <time>2019-04-28T07:58:58Z</time>
      </trkpt>
      <trkpt lat="43.00581" lon="0.82918">
        <ele>733.14</ele>
        <time>2019-04-28T07:58:59Z</time>
      </trkpt>
      <trkpt lat="43.00586" lon="0.82919">
        <ele>732.66</ele>
        <time>2019-04-28T07:59:00Z</time>
      </trkpt>
      <trkpt lat="43.00614" lon="0.82916">
        <ele>729.78</ele>
        <time>2019-04-28T07:59:07Z</time>
      </trkpt>
      <trkpt lat="43.00617" lon="0.82911">
        <ele>729.3</ele>
        <time>2019-04-28T07:59:08Z</time>
      </trkpt>
      <trkpt lat="43.0062" lon="0.82905">
        <ele>728.34</ele>
        <time>2019-04-28T07:59:09Z</time>
      </trkpt>
      <trkpt lat="43.00622" lon="0.82897">
        <ele>727.37</ele>
        <time>2019-04-28T07:59:10Z</time>
      </trkpt>
      <trkpt lat="43.00623" lon="0.82888">
        <ele>726.41</ele>
        <time>2019-04-28T07:59:11Z</time>
      </trkpt>
      <trkpt lat="43.0063" lon="0.82855">
        <ele>723.05</ele>
        <time>2019-04-28T07:59:15Z</time>
      </trkpt>
      <trkpt lat="43.00634" lon="0.8283">
        <ele>720.65</ele>
        <time>2019-04-28T07:59:21Z</time>
      </trkpt>
      <trkpt lat="43.00633" lon="0.82828">
        <ele>720.65</ele>
        <time>2019-04-28T07:59:22Z</time>
      </trkpt>
      <trkpt lat="43.00632" lon="0.82826">
        <ele>721.13</ele>
        <time>2019-04-28T07:59:23Z</time>
      </trkpt>
      <trkpt lat="43.00632" lon="0.82825">
        <ele>720.65</ele>
        <time>2019-04-28T07:59:32Z</time>
      </trkpt>
      <trkpt lat="43.00629" lon="0.8282">
        <ele>721.13</ele>
        <time>2019-04-28T07:59:41Z</time>
      </trkpt>
      <trkpt lat="43.00628" lon="0.8282">
        <ele>721.13</ele>
        <time>2019-04-28T07:59:47Z</time>
      </trkpt>
      <trkpt lat="43.00626" lon="0.82818">
        <ele>721.13</ele>
        <time>2019-04-28T07:59:48Z</time>
      </trkpt>
      <trkpt lat="43.00625" lon="0.82817">
        <ele>721.13</ele>
        <time>2019-04-28T07:59:49Z</time>
      </trkpt>
      <trkpt lat="43.00589" lon="0.82796">
        <ele>721.61</ele>
        <time>2019-04-28T08:00:06Z</time>
      </trkpt>
      <trkpt lat="43.00559" lon="0.82775">
        <ele>720.16</ele>
        <time>2019-04-28T08:00:18Z</time>
      </trkpt>
      <trkpt lat="43.00519" lon="0.82737">
        <ele>716.32</ele>
        <time>2019-04-28T08:00:29Z</time>
      </trkpt>
      <trkpt lat="43.00508" lon="0.82726">
        <ele>714.88</ele>
        <time>2019-04-28T08:00:32Z</time>
      </trkpt>
      <trkpt lat="43.00491" lon="0.8271">
        <ele>712.95</ele>
        <time>2019-04-28T08:00:36Z</time>
      </trkpt>
      <trkpt lat="43.00486" lon="0.82706">
        <ele>711.51</ele>
        <time>2019-04-28T08:00:37Z</time>
      </trkpt>
      <trkpt lat="43.0048" lon="0.82702">
        <ele>710.55</ele>
        <time>2019-04-28T08:00:38Z</time>
      </trkpt>
      <trkpt lat="43.00474" lon="0.82699">
        <ele>709.11</ele>
        <time>2019-04-28T08:00:39Z</time>
      </trkpt>
      <trkpt lat="43.00468" lon="0.82697">
        <ele>709.11</ele>
        <time>2019-04-28T08:00:40Z</time>
      </trkpt>
      <trkpt lat="43.00462" lon="0.82696">
        <ele>708.15</ele>
        <time>2019-04-28T08:00:41Z</time>
      </trkpt>
      <trkpt lat="43.00456" lon="0.82696">
        <ele>707.19</ele>
        <time>2019-04-28T08:00:42Z</time>
      </trkpt>
      <trkpt lat="43.00451" lon="0.82697">
        <ele>706.23</ele>
        <time>2019-04-28T08:00:43Z</time>
      </trkpt>
      <trkpt lat="43.00436" lon="0.82698">
        <ele>702.86</ele>
        <time>2019-04-28T08:00:48Z</time>
      </trkpt>
      <trkpt lat="43.00411" lon="0.82673">
        <ele>702.38</ele>
        <time>2019-04-28T08:00:57Z</time>
      </trkpt>
      <trkpt lat="43.00392" lon="0.8265">
        <ele>703.82</ele>
        <time>2019-04-28T08:01:07Z</time>
      </trkpt>
      <trkpt lat="43.00385" lon="0.82643">
        <ele>704.3</ele>
        <time>2019-04-28T08:01:11Z</time>
      </trkpt>
      <trkpt lat="43.00383" lon="0.82642">
        <ele>704.78</ele>
        <time>2019-04-28T08:01:12Z</time>
      </trkpt>
      <trkpt lat="43.00382" lon="0.82641">
        <ele>704.78</ele>
        <time>2019-04-28T08:01:13Z</time>
      </trkpt>
      <trkpt lat="43.00355" lon="0.8263">
        <ele>707.19</ele>
        <time>2019-04-28T08:01:27Z</time>
      </trkpt>
      <trkpt lat="43.00321" lon="0.8262">
        <ele>708.63</ele>
        <time>2019-04-28T08:01:44Z</time>
      </trkpt>
      <trkpt lat="43.00291" lon="0.82635">
        <ele>709.59</ele>
        <time>2019-04-28T08:02:03Z</time>
      </trkpt>
      <trkpt lat="43.00283" lon="0.82648">
        <ele>709.59</ele>
        <time>2019-04-28T08:02:10Z</time>
      </trkpt>
      <trkpt lat="43.00282" lon="0.8265">
        <ele>709.59</ele>
        <time>2019-04-28T08:02:11Z</time>
      </trkpt>
      <trkpt lat="43.00281" lon="0.82652">
        <ele>709.59</ele>
        <time>2019-04-28T08:02:12Z</time>
      </trkpt>
      <trkpt lat="43.00275" lon="0.82662">
        <ele>708.15</ele>
        <time>2019-04-28T08:02:16Z</time>
      </trkpt>
      <trkpt lat="43.00258" lon="0.82686">
        <ele>704.3</ele>
        <time>2019-04-28T08:02:22Z</time>
      </trkpt>
      <trkpt lat="43.00255" lon="0.82693">
        <ele>703.82</ele>
        <time>2019-04-28T08:02:23Z</time>
      </trkpt>
      <trkpt lat="43.00243" lon="0.82717">
        <ele>701.9</ele>
        <time>2019-04-28T08:02:26Z</time>
      </trkpt>
      <trkpt lat="43.00239" lon="0.82724">
        <ele>701.42</ele>
        <time>2019-04-28T08:02:27Z</time>
      </trkpt>
      <trkpt lat="43.00235" lon="0.82729">
        <ele>701.42</ele>
        <time>2019-04-28T08:02:28Z</time>
      </trkpt>
      <trkpt lat="43.00229" lon="0.82733">
        <ele>701.42</ele>
        <time>2019-04-28T08:02:29Z</time>
      </trkpt>
      <trkpt lat="43.00224" lon="0.82733">
        <ele>700.94</ele>
        <time>2019-04-28T08:02:30Z</time>
      </trkpt>
      <trkpt lat="43.00218" lon="0.82731">
        <ele>700.94</ele>
        <time>2019-04-28T08:02:31Z</time>
      </trkpt>
      <trkpt lat="43.00214" lon="0.82728">
        <ele>700.94</ele>
        <time>2019-04-28T08:02:32Z</time>
      </trkpt>
      <trkpt lat="43.00211" lon="0.82724">
        <ele>700.94</ele>
        <time>2019-04-28T08:02:33Z</time>
      </trkpt>
      <trkpt lat="43.00208" lon="0.82721">
        <ele>700.94</ele>
        <time>2019-04-28T08:02:34Z</time>
      </trkpt>
      <trkpt lat="43.00206" lon="0.82719">
        <ele>700.94</ele>
        <time>2019-04-28T08:02:35Z</time>
      </trkpt>
      <trkpt lat="43.00198" lon="0.82709">
        <ele>701.9</ele>
        <time>2019-04-28T08:02:40Z</time>
      </trkpt>
      <trkpt lat="43.00179" lon="0.82684">
        <ele>705.26</ele>
        <time>2019-04-28T08:02:55Z</time>
      </trkpt>
      <trkpt lat="43.00168" lon="0.82668">
        <ele>708.15</ele>
        <time>2019-04-28T08:03:07Z</time>
      </trkpt>
      <trkpt lat="43.00162" lon="0.82659">
        <ele>709.59</ele>
        <time>2019-04-28T08:03:14Z</time>
      </trkpt>
      <trkpt lat="43.00153" lon="0.8264">
        <ele>712.95</ele>
        <time>2019-04-28T08:03:26Z</time>
      </trkpt>
      <trkpt lat="43.00146" lon="0.8263">
        <ele>714.88</ele>
        <time>2019-04-28T08:03:33Z</time>
      </trkpt>
      <trkpt lat="43.00144" lon="0.82625">
        <ele>715.36</ele>
        <time>2019-04-28T08:03:36Z</time>
      </trkpt>
      <trkpt lat="43.00143" lon="0.82624">
        <ele>714.88</ele>
        <time>2019-04-28T08:03:37Z</time>
      </trkpt>
      <trkpt lat="43.00126" lon="0.82609">
        <ele>716.8</ele>
        <time>2019-04-28T08:03:51Z</time>
      </trkpt>
      <trkpt lat="43.00101" lon="0.82609">
        <ele>719.68</ele>
        <time>2019-04-28T08:04:10Z</time>
      </trkpt>
      <trkpt lat="43.0008" lon="0.82616">
        <ele>721.61</ele>
        <time>2019-04-28T08:04:27Z</time>
      </trkpt>
      <trkpt lat="43.00069" lon="0.82621">
        <ele>724.97</ele>
        <time>2019-04-28T08:04:38Z</time>
      </trkpt>
      <trkpt lat="43.00068" lon="0.82622">
        <ele>724.97</ele>
        <time>2019-04-28T08:04:39Z</time>
      </trkpt>
      <trkpt lat="43.00063" lon="0.82625">
        <ele>725.93</ele>
        <time>2019-04-28T08:04:43Z</time>
      </trkpt>
      <trkpt lat="43.00062" lon="0.82625">
        <ele>726.41</ele>
        <time>2019-04-28T08:04:44Z</time>
      </trkpt>
      <trkpt lat="43.0006" lon="0.82627">
        <ele>726.89</ele>
        <time>2019-04-28T08:04:46Z</time>
      </trkpt>
      <trkpt lat="43.00059" lon="0.82627">
        <ele>726.89</ele>
        <time>2019-04-28T08:04:47Z</time>
      </trkpt>
      <trkpt lat="43.00058" lon="0.82629">
        <ele>727.37</ele>
        <time>2019-04-28T08:04:48Z</time>
      </trkpt>
      <trkpt lat="43.00044" lon="0.82636">
        <ele>729.78</ele>
        <time>2019-04-28T08:05:03Z</time>
      </trkpt>
      <trkpt lat="43.00024" lon="0.82643">
        <ele>731.7</ele>
        <time>2019-04-28T08:05:19Z</time>
      </trkpt>
      <trkpt lat="43.00003" lon="0.82653">
        <ele>734.58</ele>
        <time>2019-04-28T08:05:37Z</time>
      </trkpt>
      <trkpt lat="42.99999" lon="0.82667">
        <ele>736.51</ele>
        <time>2019-04-28T08:05:46Z</time>
      </trkpt>
      <trkpt lat="42.99998" lon="0.82669">
        <ele>736.51</ele>
        <time>2019-04-28T08:05:48Z</time>
      </trkpt>
      <trkpt lat="42.99992" lon="0.82683">
        <ele>737.95</ele>
        <time>2019-04-28T08:05:57Z</time>
      </trkpt>
      <trkpt lat="42.99979" lon="0.82708">
        <ele>738.91</ele>
        <time>2019-04-28T08:06:12Z</time>
      </trkpt>
      <trkpt lat="42.99976" lon="0.82713">
        <ele>739.39</ele>
        <time>2019-04-28T08:06:16Z</time>
      </trkpt>
      <trkpt lat="42.99973" lon="0.8272">
        <ele>739.87</ele>
        <time>2019-04-28T08:06:20Z</time>
      </trkpt>
      <trkpt lat="42.99956" lon="0.82745">
        <ele>739.87</ele>
        <time>2019-04-28T08:06:32Z</time>
      </trkpt>
      <trkpt lat="42.99948" lon="0.82766">
        <ele>739.87</ele>
        <time>2019-04-28T08:06:38Z</time>
      </trkpt>
      <trkpt lat="42.99946" lon="0.8277">
        <ele>739.87</ele>
        <time>2019-04-28T08:06:39Z</time>
      </trkpt>
      <trkpt lat="42.99945" lon="0.82773">
        <ele>739.87</ele>
        <time>2019-04-28T08:06:40Z</time>
      </trkpt>
      <trkpt lat="42.99943" lon="0.82776">
        <ele>739.87</ele>
        <time>2019-04-28T08:06:41Z</time>
      </trkpt>
      <trkpt lat="42.99942" lon="0.82779">
        <ele>739.87</ele>
        <time>2019-04-28T08:06:42Z</time>
      </trkpt>
      <trkpt lat="42.99937" lon="0.82789">
        <ele>739.87</ele>
        <time>2019-04-28T08:06:45Z</time>
      </trkpt>
      <trkpt lat="42.99924" lon="0.82813">
        <ele>738.43</ele>
        <time>2019-04-28T08:06:53Z</time>
      </trkpt>
      <trkpt lat="42.99914" lon="0.82823">
        <ele>736.99</ele>
        <time>2019-04-28T08:06:56Z</time>
      </trkpt>
      <trkpt lat="42.99911" lon="0.82828">
        <ele>736.51</ele>
        <time>2019-04-28T08:06:57Z</time>
      </trkpt>
      <trkpt lat="42.99908" lon="0.82832">
        <ele>736.51</ele>
        <time>2019-04-28T08:06:58Z</time>
      </trkpt>
      <trkpt lat="42.99906" lon="0.82836">
        <ele>736.51</ele>
        <time>2019-04-28T08:06:59Z</time>
      </trkpt>
      <trkpt lat="42.99904" lon="0.82838">
        <ele>737.95</ele>
        <time>2019-04-28T08:07:00Z</time>
      </trkpt>
      <trkpt lat="42.99886" lon="0.82861">
        <ele>739.87</ele>
        <time>2019-04-28T08:07:10Z</time>
      </trkpt>
      <trkpt lat="42.99884" lon="0.82863">
        <ele>739.87</ele>
        <time>2019-04-28T08:07:11Z</time>
      </trkpt>
      <trkpt lat="42.99882" lon="0.82865">
        <ele>739.87</ele>
        <time>2019-04-28T08:07:12Z</time>
      </trkpt>
      <trkpt lat="42.99873" lon="0.82875">
        <ele>740.35</ele>
        <time>2019-04-28T08:07:18Z</time>
      </trkpt>
      <trkpt lat="42.9987" lon="0.82877">
        <ele>740.83</ele>
        <time>2019-04-28T08:07:20Z</time>
      </trkpt>
      <trkpt lat="42.99869" lon="0.82878">
        <ele>740.83</ele>
        <time>2019-04-28T08:07:21Z</time>
      </trkpt>
      <trkpt lat="42.99868" lon="0.8288">
        <ele>740.83</ele>
        <time>2019-04-28T08:07:22Z</time>
      </trkpt>
      <trkpt lat="42.99854" lon="0.82905">
        <ele>742.28</ele>
        <time>2019-04-28T08:07:34Z</time>
      </trkpt>
      <trkpt lat="42.99852" lon="0.82909">
        <ele>742.28</ele>
        <time>2019-04-28T08:07:36Z</time>
      </trkpt>
      <trkpt lat="42.99852" lon="0.82911">
        <ele>742.28</ele>
        <time>2019-04-28T08:07:37Z</time>
      </trkpt>
      <trkpt lat="42.99844" lon="0.82934">
        <ele>743.72</ele>
        <time>2019-04-28T08:07:49Z</time>
      </trkpt>
      <trkpt lat="42.99837" lon="0.82956">
        <ele>744.68</ele>
        <time>2019-04-28T08:08:02Z</time>
      </trkpt>
      <trkpt lat="42.99835" lon="0.82967">
        <ele>745.64</ele>
        <time>2019-04-28T08:08:07Z</time>
      </trkpt>
      <trkpt lat="42.99834" lon="0.82969">
        <ele>745.64</ele>
        <time>2019-04-28T08:08:08Z</time>
      </trkpt>
      <trkpt lat="42.99834" lon="0.82971">
        <ele>745.64</ele>
        <time>2019-04-28T08:08:09Z</time>
      </trkpt>
      <trkpt lat="42.99833" lon="0.82974">
        <ele>745.64</ele>
        <time>2019-04-28T08:08:10Z</time>
      </trkpt>
      <trkpt lat="42.99833" lon="0.82976">
        <ele>745.64</ele>
        <time>2019-04-28T08:08:11Z</time>
      </trkpt>
      <trkpt lat="42.99832" lon="0.82979">
        <ele>746.12</ele>
        <time>2019-04-28T08:08:12Z</time>
      </trkpt>
      <trkpt lat="42.99827" lon="0.82992">
        <ele>746.6</ele>
        <time>2019-04-28T08:08:18Z</time>
      </trkpt>
      <trkpt lat="42.99826" lon="0.82994">
        <ele>746.6</ele>
        <time>2019-04-28T08:08:19Z</time>
      </trkpt>
      <trkpt lat="42.99825" lon="0.82996">
        <ele>746.6</ele>
        <time>2019-04-28T08:08:20Z</time>
      </trkpt>
      <trkpt lat="42.99821" lon="0.83">
        <ele>746.6</ele>
        <time>2019-04-28T08:08:23Z</time>
      </trkpt>
      <trkpt lat="42.9982" lon="0.82999">
        <ele>746.6</ele>
        <time>2019-04-28T08:08:24Z</time>
      </trkpt>
      <trkpt lat="42.99817" lon="0.82995">
        <ele>746.6</ele>
        <time>2019-04-28T08:08:27Z</time>
      </trkpt>
      <trkpt lat="42.9981" lon="0.82983">
        <ele>749.49</ele>
        <time>2019-04-28T08:08:38Z</time>
      </trkpt>
      <trkpt lat="42.99795" lon="0.82966">
        <ele>753.33</ele>
        <time>2019-04-28T08:08:53Z</time>
      </trkpt>
      <trkpt lat="42.9978" lon="0.82945">
        <ele>755.25</ele>
        <time>2019-04-28T08:09:08Z</time>
      </trkpt>
      <trkpt lat="42.99772" lon="0.82928">
        <ele>758.62</ele>
        <time>2019-04-28T08:09:19Z</time>
      </trkpt>
      <trkpt lat="42.99758" lon="0.82909">
        <ele>761.5</ele>
        <time>2019-04-28T08:09:31Z</time>
      </trkpt>
      <trkpt lat="42.99751" lon="0.82907">
        <ele>762.46</ele>
        <time>2019-04-28T08:09:41Z</time>
      </trkpt>
      <trkpt lat="42.9975" lon="0.82901">
        <ele>762.94</ele>
        <time>2019-04-28T08:10:02Z</time>
      </trkpt>
      <trkpt lat="42.99751" lon="0.829">
        <ele>762.94</ele>
        <time>2019-04-28T08:10:03Z</time>
      </trkpt>
      <trkpt lat="42.99741" lon="0.82915">
        <ele>764.87</ele>
        <time>2019-04-28T08:10:19Z</time>
      </trkpt>
      <trkpt lat="42.99733" lon="0.82931">
        <ele>767.75</ele>
        <time>2019-04-28T08:10:32Z</time>
      </trkpt>
      <trkpt lat="42.99727" lon="0.82947">
        <ele>770.15</ele>
        <time>2019-04-28T08:10:45Z</time>
      </trkpt>
      <trkpt lat="42.99711" lon="0.82968">
        <ele>772.56</ele>
        <time>2019-04-28T08:11:02Z</time>
      </trkpt>
      <trkpt lat="42.99702" lon="0.82985">
        <ele>774</ele>
        <time>2019-04-28T08:11:15Z</time>
      </trkpt>
      <trkpt lat="42.99691" lon="0.82999">
        <ele>774.96</ele>
        <time>2019-04-28T08:11:28Z</time>
      </trkpt>
      <trkpt lat="42.99688" lon="0.83003">
        <ele>775.44</ele>
        <time>2019-04-28T08:11:33Z</time>
      </trkpt>
      <trkpt lat="42.99674" lon="0.83019">
        <ele>776.4</ele>
        <time>2019-04-28T08:11:47Z</time>
      </trkpt>
      <trkpt lat="42.99663" lon="0.83028">
        <ele>776.88</ele>
        <time>2019-04-28T08:11:56Z</time>
      </trkpt>
      <trkpt lat="42.99647" lon="0.83047">
        <ele>778.32</ele>
        <time>2019-04-28T08:12:08Z</time>
      </trkpt>
      <trkpt lat="42.99644" lon="0.83048">
        <ele>778.32</ele>
        <time>2019-04-28T08:12:10Z</time>
      </trkpt>
      <trkpt lat="42.9963" lon="0.83062">
        <ele>779.77</ele>
        <time>2019-04-28T08:12:24Z</time>
      </trkpt>
      <trkpt lat="42.99614" lon="0.83077">
        <ele>780.73</ele>
        <time>2019-04-28T08:12:37Z</time>
      </trkpt>
      <trkpt lat="42.99603" lon="0.8309">
        <ele>782.65</ele>
        <time>2019-04-28T08:12:47Z</time>
      </trkpt>
      <trkpt lat="42.99589" lon="0.83104">
        <ele>784.57</ele>
        <time>2019-04-28T08:13:00Z</time>
      </trkpt>
      <trkpt lat="42.99582" lon="0.83114">
        <ele>785.53</ele>
        <time>2019-04-28T08:13:09Z</time>
      </trkpt>
      <trkpt lat="42.99572" lon="0.83125">
        <ele>787.94</ele>
        <time>2019-04-28T08:13:19Z</time>
      </trkpt>
      <trkpt lat="42.99571" lon="0.83128">
        <ele>788.42</ele>
        <time>2019-04-28T08:13:21Z</time>
      </trkpt>
      <trkpt lat="42.99566" lon="0.83135">
        <ele>789.38</ele>
        <time>2019-04-28T08:13:28Z</time>
      </trkpt>
      <trkpt lat="42.99565" lon="0.83138">
        <ele>789.38</ele>
        <time>2019-04-28T08:13:30Z</time>
      </trkpt>
      <trkpt lat="42.99556" lon="0.83165">
        <ele>789.86</ele>
        <time>2019-04-28T08:13:46Z</time>
      </trkpt>
      <trkpt lat="42.99545" lon="0.83185">
        <ele>791.3</ele>
        <time>2019-04-28T08:13:58Z</time>
      </trkpt>
      <trkpt lat="42.99529" lon="0.83205">
        <ele>792.74</ele>
        <time>2019-04-28T08:14:13Z</time>
      </trkpt>
      <trkpt lat="42.9952" lon="0.83215">
        <ele>794.19</ele>
        <time>2019-04-28T08:14:24Z</time>
      </trkpt>
      <trkpt lat="42.99518" lon="0.8322">
        <ele>794.67</ele>
        <time>2019-04-28T08:14:27Z</time>
      </trkpt>
      <trkpt lat="42.99508" lon="0.83238">
        <ele>797.07</ele>
        <time>2019-04-28T08:14:41Z</time>
      </trkpt>
      <trkpt lat="42.99498" lon="0.83249">
        <ele>798.99</ele>
        <time>2019-04-28T08:14:53Z</time>
      </trkpt>
      <trkpt lat="42.99497" lon="0.83251">
        <ele>799.95</ele>
        <time>2019-04-28T08:14:54Z</time>
      </trkpt>
      <trkpt lat="42.99476" lon="0.83264">
        <ele>800.92</ele>
        <time>2019-04-28T08:15:09Z</time>
      </trkpt>
      <trkpt lat="42.9947" lon="0.83266">
        <ele>800.92</ele>
        <time>2019-04-28T08:15:12Z</time>
      </trkpt>
      <trkpt lat="42.99461" lon="0.83279">
        <ele>799.47</ele>
        <time>2019-04-28T08:15:21Z</time>
      </trkpt>
      <trkpt lat="42.99454" lon="0.83289">
        <ele>798.03</ele>
        <time>2019-04-28T08:15:25Z</time>
      </trkpt>
      <trkpt lat="42.99448" lon="0.83299">
        <ele>798.03</ele>
        <time>2019-04-28T08:15:30Z</time>
      </trkpt>
      <trkpt lat="42.99446" lon="0.83299">
        <ele>798.03</ele>
        <time>2019-04-28T08:15:31Z</time>
      </trkpt>
      <trkpt lat="42.99444" lon="0.833">
        <ele>798.03</ele>
        <time>2019-04-28T08:15:32Z</time>
      </trkpt>
      <trkpt lat="42.99443" lon="0.83299">
        <ele>798.03</ele>
        <time>2019-04-28T08:15:33Z</time>
      </trkpt>
      <trkpt lat="42.99441" lon="0.83298">
        <ele>798.03</ele>
        <time>2019-04-28T08:15:34Z</time>
      </trkpt>
      <trkpt lat="42.99433" lon="0.8329">
        <ele>797.55</ele>
        <time>2019-04-28T08:15:42Z</time>
      </trkpt>
      <trkpt lat="42.99431" lon="0.83283">
        <ele>798.99</ele>
        <time>2019-04-28T08:15:47Z</time>
      </trkpt>
      <trkpt lat="42.99427" lon="0.83271">
        <ele>801.88</ele>
        <time>2019-04-28T08:15:58Z</time>
      </trkpt>
      <trkpt lat="42.99428" lon="0.83257">
        <ele>803.8</ele>
        <time>2019-04-28T08:16:13Z</time>
      </trkpt>
      <trkpt lat="42.99427" lon="0.83237">
        <ele>804.76</ele>
        <time>2019-04-28T08:16:27Z</time>
      </trkpt>
      <trkpt lat="42.99425" lon="0.83218">
        <ele>806.68</ele>
        <time>2019-04-28T08:16:41Z</time>
      </trkpt>
      <trkpt lat="42.99419" lon="0.83197">
        <ele>810.05</ele>
        <time>2019-04-28T08:16:54Z</time>
      </trkpt>
      <trkpt lat="42.99411" lon="0.83179">
        <ele>811.01</ele>
        <time>2019-04-28T08:17:09Z</time>
      </trkpt>
      <trkpt lat="42.99406" lon="0.83176">
        <ele>811.01</ele>
        <time>2019-04-28T08:17:12Z</time>
      </trkpt>
      <trkpt lat="42.99393" lon="0.83163">
        <ele>811.49</ele>
        <time>2019-04-28T08:17:20Z</time>
      </trkpt>
      <trkpt lat="42.9939" lon="0.83159">
        <ele>810.05</ele>
        <time>2019-04-28T08:17:21Z</time>
      </trkpt>
      <trkpt lat="42.99377" lon="0.83139">
        <ele>807.16</ele>
        <time>2019-04-28T08:17:27Z</time>
      </trkpt>
      <trkpt lat="42.99357" lon="0.83112">
        <ele>806.2</ele>
        <time>2019-04-28T08:17:37Z</time>
      </trkpt>
      <trkpt lat="42.99352" lon="0.83101">
        <ele>806.2</ele>
        <time>2019-04-28T08:17:42Z</time>
      </trkpt>
      <trkpt lat="42.99352" lon="0.83095">
        <ele>806.2</ele>
        <time>2019-04-28T08:17:45Z</time>
      </trkpt>
      <trkpt lat="42.99349" lon="0.83074">
        <ele>806.2</ele>
        <time>2019-04-28T08:17:52Z</time>
      </trkpt>
      <trkpt lat="42.99349" lon="0.83059">
        <ele>806.2</ele>
        <time>2019-04-28T08:17:57Z</time>
      </trkpt>
      <trkpt lat="42.99353" lon="0.83051">
        <ele>807.64</ele>
        <time>2019-04-28T08:18:02Z</time>
      </trkpt>
      <trkpt lat="42.99376" lon="0.83036">
        <ele>808.61</ele>
        <time>2019-04-28T08:18:18Z</time>
      </trkpt>
      <trkpt lat="42.99389" lon="0.83018">
        <ele>810.53</ele>
        <time>2019-04-28T08:18:33Z</time>
      </trkpt>
      <trkpt lat="42.99397" lon="0.82975">
        <ele>811.01</ele>
        <time>2019-04-28T08:18:47Z</time>
      </trkpt>
      <trkpt lat="42.99397" lon="0.82955">
        <ele>808.13</ele>
        <time>2019-04-28T08:18:51Z</time>
      </trkpt>
      <trkpt lat="42.99401" lon="0.82938">
        <ele>806.68</ele>
        <time>2019-04-28T08:18:54Z</time>
      </trkpt>
      <trkpt lat="42.99412" lon="0.82911">
        <ele>806.2</ele>
        <time>2019-04-28T08:19:01Z</time>
      </trkpt>
      <trkpt lat="42.99416" lon="0.82906">
        <ele>807.16</ele>
        <time>2019-04-28T08:19:05Z</time>
      </trkpt>
      <trkpt lat="42.99438" lon="0.8289">
        <ele>809.57</ele>
        <time>2019-04-28T08:19:21Z</time>
      </trkpt>
      <trkpt lat="42.99463" lon="0.82869">
        <ele>809.57</ele>
        <time>2019-04-28T08:19:36Z</time>
      </trkpt>
      <trkpt lat="42.99465" lon="0.82866">
        <ele>809.57</ele>
        <time>2019-04-28T08:19:37Z</time>
      </trkpt>
      <trkpt lat="42.9948" lon="0.82822">
        <ele>805.72</ele>
        <time>2019-04-28T08:19:47Z</time>
      </trkpt>
      <trkpt lat="42.99481" lon="0.82798">
        <ele>805.24</ele>
        <time>2019-04-28T08:19:55Z</time>
      </trkpt>
      <trkpt lat="42.9948" lon="0.82794">
        <ele>805.24</ele>
        <time>2019-04-28T08:20:00Z</time>
      </trkpt>
      <trkpt lat="42.99479" lon="0.82792">
        <ele>805.24</ele>
        <time>2019-04-28T08:20:01Z</time>
      </trkpt>
      <trkpt lat="42.99478" lon="0.82786">
        <ele>805.24</ele>
        <time>2019-04-28T08:20:04Z</time>
      </trkpt>
      <trkpt lat="42.99478" lon="0.82784">
        <ele>804.76</ele>
        <time>2019-04-28T08:20:05Z</time>
      </trkpt>
      <trkpt lat="42.99477" lon="0.82782">
        <ele>804.76</ele>
        <time>2019-04-28T08:20:06Z</time>
      </trkpt>
      <trkpt lat="42.99476" lon="0.82779">
        <ele>804.76</ele>
        <time>2019-04-28T08:20:07Z</time>
      </trkpt>
      <trkpt lat="42.99475" lon="0.82777">
        <ele>804.76</ele>
        <time>2019-04-28T08:20:08Z</time>
      </trkpt>
      <trkpt lat="42.99475" lon="0.82775">
        <ele>804.28</ele>
        <time>2019-04-28T08:20:09Z</time>
      </trkpt>
      <trkpt lat="42.99474" lon="0.82772">
        <ele>804.28</ele>
        <time>2019-04-28T08:20:10Z</time>
      </trkpt>
      <trkpt lat="42.99473" lon="0.82769">
        <ele>803.8</ele>
        <time>2019-04-28T08:20:11Z</time>
      </trkpt>
      <trkpt lat="42.99473" lon="0.82765">
        <ele>803.8</ele>
        <time>2019-04-28T08:20:12Z</time>
      </trkpt>
      <trkpt lat="42.99472" lon="0.82761">
        <ele>802.84</ele>
        <time>2019-04-28T08:20:13Z</time>
      </trkpt>
      <trkpt lat="42.9947" lon="0.82757">
        <ele>802.36</ele>
        <time>2019-04-28T08:20:14Z</time>
      </trkpt>
      <trkpt lat="42.99468" lon="0.82753">
        <ele>802.36</ele>
        <time>2019-04-28T08:20:15Z</time>
      </trkpt>
      <trkpt lat="42.99466" lon="0.8275">
        <ele>801.88</ele>
        <time>2019-04-28T08:20:16Z</time>
      </trkpt>
      <trkpt lat="42.99464" lon="0.82747">
        <ele>801.88</ele>
        <time>2019-04-28T08:20:17Z</time>
      </trkpt>
      <trkpt lat="42.99462" lon="0.82744">
        <ele>801.4</ele>
        <time>2019-04-28T08:20:18Z</time>
      </trkpt>
      <trkpt lat="42.9946" lon="0.82741">
        <ele>800.92</ele>
        <time>2019-04-28T08:20:19Z</time>
      </trkpt>
      <trkpt lat="42.9945" lon="0.82725">
        <ele>798.03</ele>
        <time>2019-04-28T08:20:24Z</time>
      </trkpt>
      <trkpt lat="42.99444" lon="0.82705">
        <ele>794.19</ele>
        <time>2019-04-28T08:20:28Z</time>
      </trkpt>
      <trkpt lat="42.99446" lon="0.82685">
        <ele>793.71</ele>
        <time>2019-04-28T08:20:33Z</time>
      </trkpt>
      <trkpt lat="42.99446" lon="0.8267">
        <ele>793.71</ele>
        <time>2019-04-28T08:20:40Z</time>
      </trkpt>
      <trkpt lat="42.99454" lon="0.82649">
        <ele>795.15</ele>
        <time>2019-04-28T08:20:51Z</time>
      </trkpt>
      <trkpt lat="42.99454" lon="0.82647">
        <ele>795.15</ele>
        <time>2019-04-28T08:20:52Z</time>
      </trkpt>
      <trkpt lat="42.99464" lon="0.82615">
        <ele>797.55</ele>
        <time>2019-04-28T08:21:10Z</time>
      </trkpt>
      <trkpt lat="42.99474" lon="0.82576">
        <ele>796.11</ele>
        <time>2019-04-28T08:21:22Z</time>
      </trkpt>
      <trkpt lat="42.99486" lon="0.82544">
        <ele>795.63</ele>
        <time>2019-04-28T08:21:32Z</time>
      </trkpt>
      <trkpt lat="42.99492" lon="0.82526">
        <ele>795.63</ele>
        <time>2019-04-28T08:21:38Z</time>
      </trkpt>
      <trkpt lat="42.99489" lon="0.825">
        <ele>795.15</ele>
        <time>2019-04-28T08:21:49Z</time>
      </trkpt>
      <trkpt lat="42.99473" lon="0.82469">
        <ele>791.78</ele>
        <time>2019-04-28T08:21:56Z</time>
      </trkpt>
      <trkpt lat="42.9947" lon="0.82463">
        <ele>791.78</ele>
        <time>2019-04-28T08:21:57Z</time>
      </trkpt>
      <trkpt lat="42.99468" lon="0.82458">
        <ele>791.3</ele>
        <time>2019-04-28T08:21:58Z</time>
      </trkpt>
      <trkpt lat="42.99464" lon="0.82447">
        <ele>790.34</ele>
        <time>2019-04-28T08:22:00Z</time>
      </trkpt>
      <trkpt lat="42.99436" lon="0.82403">
        <ele>787.94</ele>
        <time>2019-04-28T08:22:09Z</time>
      </trkpt>
      <trkpt lat="42.99433" lon="0.82398">
        <ele>787.46</ele>
        <time>2019-04-28T08:22:10Z</time>
      </trkpt>
      <trkpt lat="42.9943" lon="0.82393">
        <ele>786.5</ele>
        <time>2019-04-28T08:22:11Z</time>
      </trkpt>
      <trkpt lat="42.99426" lon="0.82389">
        <ele>786.02</ele>
        <time>2019-04-28T08:22:12Z</time>
      </trkpt>
      <trkpt lat="42.99415" lon="0.82374">
        <ele>784.57</ele>
        <time>2019-04-28T08:22:15Z</time>
      </trkpt>
      <trkpt lat="42.99411" lon="0.8237">
        <ele>784.09</ele>
        <time>2019-04-28T08:22:16Z</time>
      </trkpt>
      <trkpt lat="42.99408" lon="0.82368">
        <ele>784.09</ele>
        <time>2019-04-28T08:22:17Z</time>
      </trkpt>
      <trkpt lat="42.99404" lon="0.82365">
        <ele>783.13</ele>
        <time>2019-04-28T08:22:18Z</time>
      </trkpt>
      <trkpt lat="42.99401" lon="0.82362">
        <ele>782.65</ele>
        <time>2019-04-28T08:22:19Z</time>
      </trkpt>
      <trkpt lat="42.99379" lon="0.82331">
        <ele>781.21</ele>
        <time>2019-04-28T08:22:26Z</time>
      </trkpt>
      <trkpt lat="42.99343" lon="0.82301">
        <ele>780.25</ele>
        <time>2019-04-28T08:22:36Z</time>
      </trkpt>
      <trkpt lat="42.99314" lon="0.82288">
        <ele>783.13</ele>
        <time>2019-04-28T08:22:49Z</time>
      </trkpt>
      <trkpt lat="42.99308" lon="0.82287">
        <ele>783.13</ele>
        <time>2019-04-28T08:22:52Z</time>
      </trkpt>
      <trkpt lat="42.99306" lon="0.82287">
        <ele>783.13</ele>
        <time>2019-04-28T08:22:53Z</time>
      </trkpt>
      <trkpt lat="42.99304" lon="0.82286">
        <ele>783.13</ele>
        <time>2019-04-28T08:22:54Z</time>
      </trkpt>
      <trkpt lat="42.99301" lon="0.82286">
        <ele>783.13</ele>
        <time>2019-04-28T08:22:55Z</time>
      </trkpt>
      <trkpt lat="42.99298" lon="0.82285">
        <ele>783.61</ele>
        <time>2019-04-28T08:22:56Z</time>
      </trkpt>
      <trkpt lat="42.99295" lon="0.82284">
        <ele>783.61</ele>
        <time>2019-04-28T08:22:57Z</time>
      </trkpt>
      <trkpt lat="42.99293" lon="0.82283">
        <ele>783.61</ele>
        <time>2019-04-28T08:22:58Z</time>
      </trkpt>
      <trkpt lat="42.99262" lon="0.82272">
        <ele>784.09</ele>
        <time>2019-04-28T08:23:09Z</time>
      </trkpt>
      <trkpt lat="42.99245" lon="0.82261">
        <ele>782.65</ele>
        <time>2019-04-28T08:23:17Z</time>
      </trkpt>
      <trkpt lat="42.99245" lon="0.82259">
        <ele>782.65</ele>
        <time>2019-04-28T08:23:18Z</time>
      </trkpt>
      <trkpt lat="42.99244" lon="0.82256">
        <ele>782.65</ele>
        <time>2019-04-28T08:23:19Z</time>
      </trkpt>
      <trkpt lat="42.99244" lon="0.82251">
        <ele>784.09</ele>
        <time>2019-04-28T08:23:22Z</time>
      </trkpt>
      <trkpt lat="42.99251" lon="0.82212">
        <ele>785.05</ele>
        <time>2019-04-28T08:23:36Z</time>
      </trkpt>
      <trkpt lat="42.9927" lon="0.82195">
        <ele>786.02</ele>
        <time>2019-04-28T08:23:47Z</time>
      </trkpt>
      <trkpt lat="42.99288" lon="0.8217">
        <ele>784.57</ele>
        <time>2019-04-28T08:23:57Z</time>
      </trkpt>
      <trkpt lat="42.99301" lon="0.82121">
        <ele>781.21</ele>
        <time>2019-04-28T08:24:08Z</time>
      </trkpt>
      <trkpt lat="42.99311" lon="0.82101">
        <ele>779.29</ele>
        <time>2019-04-28T08:24:15Z</time>
      </trkpt>
      <trkpt lat="42.99321" lon="0.8209">
        <ele>780.73</ele>
        <time>2019-04-28T08:24:23Z</time>
      </trkpt>
      <trkpt lat="42.99342" lon="0.82067">
        <ele>780.25</ele>
        <time>2019-04-28T08:24:35Z</time>
      </trkpt>
      <trkpt lat="42.99346" lon="0.82053">
        <ele>776.88</ele>
        <time>2019-04-28T08:24:38Z</time>
      </trkpt>
      <trkpt lat="42.99353" lon="0.82027">
        <ele>773.52</ele>
        <time>2019-04-28T08:24:41Z</time>
      </trkpt>
      <trkpt lat="42.99354" lon="0.82016">
        <ele>773.04</ele>
        <time>2019-04-28T08:24:42Z</time>
      </trkpt>
      <trkpt lat="42.99356" lon="0.81985">
        <ele>771.11</ele>
        <time>2019-04-28T08:24:45Z</time>
      </trkpt>
      <trkpt lat="42.99357" lon="0.81973">
        <ele>769.67</ele>
        <time>2019-04-28T08:24:46Z</time>
      </trkpt>
      <trkpt lat="42.99358" lon="0.81961">
        <ele>769.67</ele>
        <time>2019-04-28T08:24:47Z</time>
      </trkpt>
      <trkpt lat="42.99356" lon="0.81939">
        <ele>766.31</ele>
        <time>2019-04-28T08:24:49Z</time>
      </trkpt>
      <trkpt lat="42.99352" lon="0.8191">
        <ele>762.46</ele>
        <time>2019-04-28T08:24:52Z</time>
      </trkpt>
      <trkpt lat="42.9935" lon="0.81902">
        <ele>761.5</ele>
        <time>2019-04-28T08:24:53Z</time>
      </trkpt>
      <trkpt lat="42.99347" lon="0.81895">
        <ele>760.54</ele>
        <time>2019-04-28T08:24:54Z</time>
      </trkpt>
      <trkpt lat="42.99335" lon="0.81871">
        <ele>757.18</ele>
        <time>2019-04-28T08:24:57Z</time>
      </trkpt>
      <trkpt lat="42.99321" lon="0.81841">
        <ele>753.33</ele>
        <time>2019-04-28T08:25:01Z</time>
      </trkpt>
      <trkpt lat="42.99318" lon="0.81835">
        <ele>753.81</ele>
        <time>2019-04-28T08:25:02Z</time>
      </trkpt>
      <trkpt lat="42.99313" lon="0.81826">
        <ele>752.85</ele>
        <time>2019-04-28T08:25:04Z</time>
      </trkpt>
      <trkpt lat="42.99312" lon="0.81822">
        <ele>752.85</ele>
        <time>2019-04-28T08:25:05Z</time>
      </trkpt>
      <trkpt lat="42.99312" lon="0.81817">
        <ele>751.89</ele>
        <time>2019-04-28T08:25:06Z</time>
      </trkpt>
      <trkpt lat="42.99331" lon="0.81799">
        <ele>749.97</ele>
        <time>2019-04-28T08:25:12Z</time>
      </trkpt>
      <trkpt lat="42.99336" lon="0.81797">
        <ele>749</ele>
        <time>2019-04-28T08:25:13Z</time>
      </trkpt>
      <trkpt lat="42.99341" lon="0.81795">
        <ele>749</ele>
        <time>2019-04-28T08:25:14Z</time>
      </trkpt>
      <trkpt lat="42.99347" lon="0.81793">
        <ele>748.52</ele>
        <time>2019-04-28T08:25:15Z</time>
      </trkpt>
      <trkpt lat="42.99361" lon="0.81785">
        <ele>747.08</ele>
        <time>2019-04-28T08:25:18Z</time>
      </trkpt>
      <trkpt lat="42.99365" lon="0.81782">
        <ele>747.08</ele>
        <time>2019-04-28T08:25:19Z</time>
      </trkpt>
      <trkpt lat="42.99388" lon="0.81751">
        <ele>745.64</ele>
        <time>2019-04-28T08:25:28Z</time>
      </trkpt>
      <trkpt lat="42.99391" lon="0.81733">
        <ele>744.68</ele>
        <time>2019-04-28T08:25:33Z</time>
      </trkpt>
      <trkpt lat="42.9936" lon="0.81703">
        <ele>742.76</ele>
        <time>2019-04-28T08:25:44Z</time>
      </trkpt>
      <trkpt lat="42.99341" lon="0.81676">
        <ele>741.79</ele>
        <time>2019-04-28T08:25:51Z</time>
      </trkpt>
      <trkpt lat="42.99335" lon="0.81667">
        <ele>740.83</ele>
        <time>2019-04-28T08:25:53Z</time>
      </trkpt>
      <trkpt lat="42.99333" lon="0.81661">
        <ele>740.83</ele>
        <time>2019-04-28T08:25:54Z</time>
      </trkpt>
      <trkpt lat="42.99332" lon="0.81655">
        <ele>740.83</ele>
        <time>2019-04-28T08:25:55Z</time>
      </trkpt>
      <trkpt lat="42.99331" lon="0.81649">
        <ele>740.35</ele>
        <time>2019-04-28T08:25:56Z</time>
      </trkpt>
      <trkpt lat="42.99331" lon="0.81643">
        <ele>740.35</ele>
        <time>2019-04-28T08:25:57Z</time>
      </trkpt>
      <trkpt lat="42.99332" lon="0.81637">
        <ele>739.87</ele>
        <time>2019-04-28T08:25:58Z</time>
      </trkpt>
      <trkpt lat="42.99328" lon="0.81609">
        <ele>738.43</ele>
        <time>2019-04-28T08:26:03Z</time>
      </trkpt>
      <trkpt lat="42.99308" lon="0.81566">
        <ele>737.95</ele>
        <time>2019-04-28T08:26:13Z</time>
      </trkpt>
      <trkpt lat="42.99308" lon="0.81561">
        <ele>737.95</ele>
        <time>2019-04-28T08:26:14Z</time>
      </trkpt>
      <trkpt lat="42.99308" lon="0.81556">
        <ele>737.47</ele>
        <time>2019-04-28T08:26:15Z</time>
      </trkpt>
      <trkpt lat="42.99307" lon="0.81538">
        <ele>736.03</ele>
        <time>2019-04-28T08:26:18Z</time>
      </trkpt>
      <trkpt lat="42.99307" lon="0.81532">
        <ele>736.03</ele>
        <time>2019-04-28T08:26:19Z</time>
      </trkpt>
      <trkpt lat="42.993" lon="0.815">
        <ele>735.55</ele>
        <time>2019-04-28T08:26:28Z</time>
      </trkpt>
      <trkpt lat="42.99299" lon="0.81496">
        <ele>736.99</ele>
        <time>2019-04-28T08:26:30Z</time>
      </trkpt>
      <trkpt lat="42.99294" lon="0.8147">
        <ele>737.95</ele>
        <time>2019-04-28T08:26:41Z</time>
      </trkpt>
      <trkpt lat="42.99293" lon="0.81468">
        <ele>738.43</ele>
        <time>2019-04-28T08:26:42Z</time>
      </trkpt>
      <trkpt lat="42.99291" lon="0.8146">
        <ele>738.91</ele>
        <time>2019-04-28T08:26:46Z</time>
      </trkpt>
      <trkpt lat="42.9929" lon="0.81458">
        <ele>739.39</ele>
        <time>2019-04-28T08:26:47Z</time>
      </trkpt>
      <trkpt lat="42.99286" lon="0.81443">
        <ele>739.87</ele>
        <time>2019-04-28T08:26:53Z</time>
      </trkpt>
      <trkpt lat="42.99286" lon="0.8144">
        <ele>739.87</ele>
        <time>2019-04-28T08:26:54Z</time>
      </trkpt>
      <trkpt lat="42.99285" lon="0.81437">
        <ele>740.35</ele>
        <time>2019-04-28T08:26:55Z</time>
      </trkpt>
      <trkpt lat="42.99284" lon="0.81434">
        <ele>740.35</ele>
        <time>2019-04-28T08:26:56Z</time>
      </trkpt>
      <trkpt lat="42.99284" lon="0.81432">
        <ele>740.35</ele>
        <time>2019-04-28T08:26:57Z</time>
      </trkpt>
      <trkpt lat="42.99277" lon="0.81388">
        <ele>740.83</ele>
        <time>2019-04-28T08:27:11Z</time>
      </trkpt>
      <trkpt lat="42.99287" lon="0.81347">
        <ele>741.31</ele>
        <time>2019-04-28T08:27:25Z</time>
      </trkpt>
      <trkpt lat="42.99288" lon="0.81342">
        <ele>741.79</ele>
        <time>2019-04-28T08:27:27Z</time>
      </trkpt>
      <trkpt lat="42.99289" lon="0.8134">
        <ele>741.79</ele>
        <time>2019-04-28T08:27:28Z</time>
      </trkpt>
      <trkpt lat="42.9929" lon="0.81338">
        <ele>741.79</ele>
        <time>2019-04-28T08:27:29Z</time>
      </trkpt>
      <trkpt lat="42.9929" lon="0.81335">
        <ele>742.28</ele>
        <time>2019-04-28T08:27:30Z</time>
      </trkpt>
      <trkpt lat="42.9929" lon="0.81333">
        <ele>742.28</ele>
        <time>2019-04-28T08:27:31Z</time>
      </trkpt>
      <trkpt lat="42.9929" lon="0.8133">
        <ele>742.76</ele>
        <time>2019-04-28T08:27:32Z</time>
      </trkpt>
      <trkpt lat="42.9929" lon="0.81328">
        <ele>742.76</ele>
        <time>2019-04-28T08:27:33Z</time>
      </trkpt>
      <trkpt lat="42.99291" lon="0.81326">
        <ele>742.76</ele>
        <time>2019-04-28T08:27:34Z</time>
      </trkpt>
      <trkpt lat="42.99291" lon="0.81324">
        <ele>742.76</ele>
        <time>2019-04-28T08:27:35Z</time>
      </trkpt>
      <trkpt lat="42.99291" lon="0.81319">
        <ele>743.72</ele>
        <time>2019-04-28T08:27:37Z</time>
      </trkpt>
      <trkpt lat="42.99291" lon="0.81317">
        <ele>743.72</ele>
        <time>2019-04-28T08:27:38Z</time>
      </trkpt>
      <trkpt lat="42.99291" lon="0.81315">
        <ele>744.2</ele>
        <time>2019-04-28T08:27:39Z</time>
      </trkpt>
      <trkpt lat="42.99291" lon="0.81313">
        <ele>744.2</ele>
        <time>2019-04-28T08:27:40Z</time>
      </trkpt>
      <trkpt lat="42.99292" lon="0.8131">
        <ele>744.2</ele>
        <time>2019-04-28T08:27:41Z</time>
      </trkpt>
      <trkpt lat="42.99292" lon="0.81308">
        <ele>744.2</ele>
        <time>2019-04-28T08:27:42Z</time>
      </trkpt>
      <trkpt lat="42.99293" lon="0.81306">
        <ele>744.68</ele>
        <time>2019-04-28T08:27:43Z</time>
      </trkpt>
      <trkpt lat="42.99293" lon="0.81303">
        <ele>744.68</ele>
        <time>2019-04-28T08:27:44Z</time>
      </trkpt>
      <trkpt lat="42.99294" lon="0.81301">
        <ele>744.68</ele>
        <time>2019-04-28T08:27:45Z</time>
      </trkpt>
      <trkpt lat="42.99295" lon="0.81299">
        <ele>744.68</ele>
        <time>2019-04-28T08:27:46Z</time>
      </trkpt>
      <trkpt lat="42.99295" lon="0.81297">
        <ele>744.68</ele>
        <time>2019-04-28T08:27:47Z</time>
      </trkpt>
      <trkpt lat="42.99295" lon="0.81295">
        <ele>744.68</ele>
        <time>2019-04-28T08:27:48Z</time>
      </trkpt>
      <trkpt lat="42.99296" lon="0.81292">
        <ele>745.16</ele>
        <time>2019-04-28T08:27:49Z</time>
      </trkpt>
      <trkpt lat="42.99297" lon="0.8129">
        <ele>745.16</ele>
        <time>2019-04-28T08:27:50Z</time>
      </trkpt>
      <trkpt lat="42.99297" lon="0.81287">
        <ele>745.16</ele>
        <time>2019-04-28T08:27:51Z</time>
      </trkpt>
      <trkpt lat="42.99299" lon="0.81284">
        <ele>745.16</ele>
        <time>2019-04-28T08:27:52Z</time>
      </trkpt>
      <trkpt lat="42.993" lon="0.81281">
        <ele>745.16</ele>
        <time>2019-04-28T08:27:53Z</time>
      </trkpt>
      <trkpt lat="42.99301" lon="0.81276">
        <ele>745.16</ele>
        <time>2019-04-28T08:27:54Z</time>
      </trkpt>
      <trkpt lat="42.99302" lon="0.81272">
        <ele>745.16</ele>
        <time>2019-04-28T08:27:55Z</time>
      </trkpt>
      <trkpt lat="42.99303" lon="0.81267">
        <ele>745.16</ele>
        <time>2019-04-28T08:27:56Z</time>
      </trkpt>
      <trkpt lat="42.99305" lon="0.81263">
        <ele>744.2</ele>
        <time>2019-04-28T08:27:57Z</time>
      </trkpt>
      <trkpt lat="42.99305" lon="0.81258">
        <ele>743.24</ele>
        <time>2019-04-28T08:27:58Z</time>
      </trkpt>
      <trkpt lat="42.99306" lon="0.81251">
        <ele>742.76</ele>
        <time>2019-04-28T08:27:59Z</time>
      </trkpt>
      <trkpt lat="42.99306" lon="0.81244">
        <ele>742.76</ele>
        <time>2019-04-28T08:28:00Z</time>
      </trkpt>
      <trkpt lat="42.99307" lon="0.81238">
        <ele>741.79</ele>
        <time>2019-04-28T08:28:01Z</time>
      </trkpt>
      <trkpt lat="42.99307" lon="0.81224">
        <ele>741.79</ele>
        <time>2019-04-28T08:28:03Z</time>
      </trkpt>
      <trkpt lat="42.99307" lon="0.81217">
        <ele>741.31</ele>
        <time>2019-04-28T08:28:04Z</time>
      </trkpt>
      <trkpt lat="42.99306" lon="0.81209">
        <ele>741.31</ele>
        <time>2019-04-28T08:28:05Z</time>
      </trkpt>
      <trkpt lat="42.99307" lon="0.81203">
        <ele>741.31</ele>
        <time>2019-04-28T08:28:06Z</time>
      </trkpt>
      <trkpt lat="42.99307" lon="0.81196">
        <ele>740.83</ele>
        <time>2019-04-28T08:28:07Z</time>
      </trkpt>
      <trkpt lat="42.99304" lon="0.81147">
        <ele>741.31</ele>
        <time>2019-04-28T08:28:17Z</time>
      </trkpt>
      <trkpt lat="42.99304" lon="0.81141">
        <ele>742.28</ele>
        <time>2019-04-28T08:28:19Z</time>
      </trkpt>
      <trkpt lat="42.99304" lon="0.81138">
        <ele>742.28</ele>
        <time>2019-04-28T08:28:20Z</time>
      </trkpt>
      <trkpt lat="42.99303" lon="0.81135">
        <ele>743.24</ele>
        <time>2019-04-28T08:28:21Z</time>
      </trkpt>
      <trkpt lat="42.99303" lon="0.81098">
        <ele>744.68</ele>
        <time>2019-04-28T08:28:34Z</time>
      </trkpt>
      <trkpt lat="42.99298" lon="0.81082">
        <ele>745.16</ele>
        <time>2019-04-28T08:28:51Z</time>
      </trkpt>
      <trkpt lat="42.99298" lon="0.81074">
        <ele>745.16</ele>
        <time>2019-04-28T08:28:56Z</time>
      </trkpt>
      <trkpt lat="42.99297" lon="0.81067">
        <ele>743.72</ele>
        <time>2019-04-28T08:28:59Z</time>
      </trkpt>
      <trkpt lat="42.99269" lon="0.81057">
        <ele>742.28</ele>
        <time>2019-04-28T08:29:09Z</time>
      </trkpt>
      <trkpt lat="42.99265" lon="0.81058">
        <ele>741.79</ele>
        <time>2019-04-28T08:29:10Z</time>
      </trkpt>
      <trkpt lat="42.99255" lon="0.81063">
        <ele>740.83</ele>
        <time>2019-04-28T08:29:12Z</time>
      </trkpt>
      <trkpt lat="42.99241" lon="0.81069">
        <ele>740.83</ele>
        <time>2019-04-28T08:29:15Z</time>
      </trkpt>
      <trkpt lat="42.99237" lon="0.81072">
        <ele>740.83</ele>
        <time>2019-04-28T08:29:16Z</time>
      </trkpt>
      <trkpt lat="42.99215" lon="0.81089">
        <ele>740.83</ele>
        <time>2019-04-28T08:29:25Z</time>
      </trkpt>
      <trkpt lat="42.99196" lon="0.811">
        <ele>740.83</ele>
        <time>2019-04-28T08:29:35Z</time>
      </trkpt>
      <trkpt lat="42.99186" lon="0.81103">
        <ele>740.83</ele>
        <time>2019-04-28T08:29:39Z</time>
      </trkpt>
      <trkpt lat="42.99184" lon="0.81104">
        <ele>740.83</ele>
        <time>2019-04-28T08:29:40Z</time>
      </trkpt>
      <trkpt lat="42.99162" lon="0.81113">
        <ele>740.83</ele>
        <time>2019-04-28T08:29:50Z</time>
      </trkpt>
      <trkpt lat="42.99148" lon="0.81122">
        <ele>740.83</ele>
        <time>2019-04-28T08:29:56Z</time>
      </trkpt>
      <trkpt lat="42.99146" lon="0.81124">
        <ele>740.83</ele>
        <time>2019-04-28T08:29:57Z</time>
      </trkpt>
      <trkpt lat="42.99144" lon="0.81126">
        <ele>740.83</ele>
        <time>2019-04-28T08:29:58Z</time>
      </trkpt>
      <trkpt lat="42.99142" lon="0.81128">
        <ele>740.83</ele>
        <time>2019-04-28T08:29:59Z</time>
      </trkpt>
      <trkpt lat="42.9914" lon="0.8113">
        <ele>740.83</ele>
        <time>2019-04-28T08:30:00Z</time>
      </trkpt>
      <trkpt lat="42.99138" lon="0.81131">
        <ele>740.83</ele>
        <time>2019-04-28T08:30:01Z</time>
      </trkpt>
      <trkpt lat="42.99116" lon="0.81159">
        <ele>740.83</ele>
        <time>2019-04-28T08:30:11Z</time>
      </trkpt>
      <trkpt lat="42.99114" lon="0.81166">
        <ele>740.83</ele>
        <time>2019-04-28T08:30:13Z</time>
      </trkpt>
      <trkpt lat="42.99114" lon="0.81169">
        <ele>740.83</ele>
        <time>2019-04-28T08:30:14Z</time>
      </trkpt>
      <trkpt lat="42.99115" lon="0.81172">
        <ele>740.83</ele>
        <time>2019-04-28T08:30:15Z</time>
      </trkpt>
      <trkpt lat="42.99115" lon="0.81174">
        <ele>740.83</ele>
        <time>2019-04-28T08:30:16Z</time>
      </trkpt>
      <trkpt lat="42.99115" lon="0.81176">
        <ele>740.83</ele>
        <time>2019-04-28T08:30:17Z</time>
      </trkpt>
      <trkpt lat="42.99116" lon="0.81179">
        <ele>740.83</ele>
        <time>2019-04-28T08:30:18Z</time>
      </trkpt>
      <trkpt lat="42.99116" lon="0.81182">
        <ele>740.83</ele>
        <time>2019-04-28T08:30:19Z</time>
      </trkpt>
      <trkpt lat="42.99116" lon="0.81186">
        <ele>740.83</ele>
        <time>2019-04-28T08:30:20Z</time>
      </trkpt>
      <trkpt lat="42.99116" lon="0.81189">
        <ele>740.83</ele>
        <time>2019-04-28T08:30:21Z</time>
      </trkpt>
      <trkpt lat="42.99116" lon="0.81192">
        <ele>740.83</ele>
        <time>2019-04-28T08:30:22Z</time>
      </trkpt>
      <trkpt lat="42.99117" lon="0.81196">
        <ele>742.28</ele>
        <time>2019-04-28T08:30:25Z</time>
      </trkpt>
      <trkpt lat="42.99117" lon="0.81197">
        <ele>742.28</ele>
        <time>2019-04-28T08:30:26Z</time>
      </trkpt>
      <trkpt lat="42.99116" lon="0.81199">
        <ele>742.28</ele>
        <time>2019-04-28T08:30:27Z</time>
      </trkpt>
      <trkpt lat="42.99115" lon="0.81201">
        <ele>742.28</ele>
        <time>2019-04-28T08:30:28Z</time>
      </trkpt>
      <trkpt lat="42.99115" lon="0.81204">
        <ele>742.28</ele>
        <time>2019-04-28T08:30:29Z</time>
      </trkpt>
      <trkpt lat="42.99114" lon="0.81206">
        <ele>742.28</ele>
        <time>2019-04-28T08:30:30Z</time>
      </trkpt>
      <trkpt lat="42.99114" lon="0.81208">
        <ele>742.28</ele>
        <time>2019-04-28T08:30:31Z</time>
      </trkpt>
      <trkpt lat="42.99107" lon="0.81234">
        <ele>742.76</ele>
        <time>2019-04-28T08:30:41Z</time>
      </trkpt>
      <trkpt lat="42.99095" lon="0.81264">
        <ele>743.72</ele>
        <time>2019-04-28T08:30:51Z</time>
      </trkpt>
      <trkpt lat="42.99085" lon="0.81285">
        <ele>745.64</ele>
        <time>2019-04-28T08:31:01Z</time>
      </trkpt>
      <trkpt lat="42.99083" lon="0.81287">
        <ele>745.64</ele>
        <time>2019-04-28T08:31:02Z</time>
      </trkpt>
      <trkpt lat="42.99082" lon="0.8129">
        <ele>746.12</ele>
        <time>2019-04-28T08:31:03Z</time>
      </trkpt>
      <trkpt lat="42.99081" lon="0.81292">
        <ele>746.12</ele>
        <time>2019-04-28T08:31:04Z</time>
      </trkpt>
      <trkpt lat="42.9908" lon="0.81295">
        <ele>746.12</ele>
        <time>2019-04-28T08:31:05Z</time>
      </trkpt>
      <trkpt lat="42.99078" lon="0.81297">
        <ele>746.6</ele>
        <time>2019-04-28T08:31:06Z</time>
      </trkpt>
      <trkpt lat="42.99077" lon="0.81299">
        <ele>746.6</ele>
        <time>2019-04-28T08:31:07Z</time>
      </trkpt>
      <trkpt lat="42.99076" lon="0.81301">
        <ele>747.08</ele>
        <time>2019-04-28T08:31:08Z</time>
      </trkpt>
      <trkpt lat="42.99074" lon="0.81303">
        <ele>747.08</ele>
        <time>2019-04-28T08:31:09Z</time>
      </trkpt>
      <trkpt lat="42.99057" lon="0.81334">
        <ele>747.08</ele>
        <time>2019-04-28T08:31:20Z</time>
      </trkpt>
      <trkpt lat="42.99039" lon="0.81368">
        <ele>747.56</ele>
        <time>2019-04-28T08:31:32Z</time>
      </trkpt>
      <trkpt lat="42.99025" lon="0.81395">
        <ele>749</ele>
        <time>2019-04-28T08:31:43Z</time>
      </trkpt>
      <trkpt lat="42.99021" lon="0.81403">
        <ele>749.97</ele>
        <time>2019-04-28T08:31:48Z</time>
      </trkpt>
      <trkpt lat="42.9902" lon="0.81405">
        <ele>750.45</ele>
        <time>2019-04-28T08:31:49Z</time>
      </trkpt>
      <trkpt lat="42.99014" lon="0.81416">
        <ele>751.41</ele>
        <time>2019-04-28T08:31:56Z</time>
      </trkpt>
      <trkpt lat="42.99014" lon="0.81418">
        <ele>751.89</ele>
        <time>2019-04-28T08:31:57Z</time>
      </trkpt>
      <trkpt lat="42.99013" lon="0.8142">
        <ele>752.37</ele>
        <time>2019-04-28T08:31:58Z</time>
      </trkpt>
      <trkpt lat="42.99012" lon="0.81421">
        <ele>752.85</ele>
        <time>2019-04-28T08:31:59Z</time>
      </trkpt>
      <trkpt lat="42.9901" lon="0.81426">
        <ele>753.33</ele>
        <time>2019-04-28T08:32:02Z</time>
      </trkpt>
      <trkpt lat="42.99002" lon="0.8144">
        <ele>754.29</ele>
        <time>2019-04-28T08:32:11Z</time>
      </trkpt>
      <trkpt lat="42.98993" lon="0.81453">
        <ele>757.18</ele>
        <time>2019-04-28T08:32:23Z</time>
      </trkpt>
      <trkpt lat="42.98987" lon="0.81463">
        <ele>759.1</ele>
        <time>2019-04-28T08:32:33Z</time>
      </trkpt>
      <trkpt lat="42.98986" lon="0.81465">
        <ele>760.06</ele>
        <time>2019-04-28T08:32:34Z</time>
      </trkpt>
      <trkpt lat="42.98984" lon="0.81471">
        <ele>761.02</ele>
        <time>2019-04-28T08:32:38Z</time>
      </trkpt>
      <trkpt lat="42.98981" lon="0.81479">
        <ele>761.98</ele>
        <time>2019-04-28T08:32:43Z</time>
      </trkpt>
      <trkpt lat="42.9898" lon="0.81481">
        <ele>762.46</ele>
        <time>2019-04-28T08:32:44Z</time>
      </trkpt>
      <trkpt lat="42.98978" lon="0.81487">
        <ele>762.46</ele>
        <time>2019-04-28T08:32:47Z</time>
      </trkpt>
      <trkpt lat="42.98977" lon="0.81489">
        <ele>762.46</ele>
        <time>2019-04-28T08:32:48Z</time>
      </trkpt>
      <trkpt lat="42.98977" lon="0.81492">
        <ele>762.46</ele>
        <time>2019-04-28T08:32:49Z</time>
      </trkpt>
      <trkpt lat="42.98976" lon="0.81495">
        <ele>762.46</ele>
        <time>2019-04-28T08:32:50Z</time>
      </trkpt>
      <trkpt lat="42.98975" lon="0.81498">
        <ele>762.46</ele>
        <time>2019-04-28T08:32:51Z</time>
      </trkpt>
      <trkpt lat="42.98974" lon="0.81499">
        <ele>762.46</ele>
        <time>2019-04-28T08:32:52Z</time>
      </trkpt>
      <trkpt lat="42.98972" lon="0.81501">
        <ele>762.46</ele>
        <time>2019-04-28T08:32:53Z</time>
      </trkpt>
      <trkpt lat="42.98971" lon="0.81504">
        <ele>762.46</ele>
        <time>2019-04-28T08:32:55Z</time>
      </trkpt>
      <trkpt lat="42.9897" lon="0.81508">
        <ele>762.46</ele>
        <time>2019-04-28T08:32:56Z</time>
      </trkpt>
      <trkpt lat="42.98968" lon="0.8151">
        <ele>762.46</ele>
        <time>2019-04-28T08:32:57Z</time>
      </trkpt>
      <trkpt lat="42.98967" lon="0.81513">
        <ele>762.46</ele>
        <time>2019-04-28T08:32:58Z</time>
      </trkpt>
      <trkpt lat="42.98965" lon="0.81516">
        <ele>762.46</ele>
        <time>2019-04-28T08:32:59Z</time>
      </trkpt>
      <trkpt lat="42.98942" lon="0.81548">
        <ele>762.94</ele>
        <time>2019-04-28T08:33:11Z</time>
      </trkpt>
      <trkpt lat="42.98932" lon="0.81559">
        <ele>763.42</ele>
        <time>2019-04-28T08:33:17Z</time>
      </trkpt>
      <trkpt lat="42.9893" lon="0.81561">
        <ele>763.42</ele>
        <time>2019-04-28T08:33:18Z</time>
      </trkpt>
      <trkpt lat="42.98922" lon="0.81575">
        <ele>763.42</ele>
        <time>2019-04-28T08:33:22Z</time>
      </trkpt>
      <trkpt lat="42.98921" lon="0.81579">
        <ele>763.42</ele>
        <time>2019-04-28T08:33:23Z</time>
      </trkpt>
      <trkpt lat="42.98919" lon="0.81584">
        <ele>763.42</ele>
        <time>2019-04-28T08:33:24Z</time>
      </trkpt>
      <trkpt lat="42.98913" lon="0.81604">
        <ele>761.98</ele>
        <time>2019-04-28T08:33:28Z</time>
      </trkpt>
      <trkpt lat="42.98896" lon="0.81654">
        <ele>760.06</ele>
        <time>2019-04-28T08:33:38Z</time>
      </trkpt>
      <trkpt lat="42.9888" lon="0.81688">
        <ele>760.06</ele>
        <time>2019-04-28T08:33:47Z</time>
      </trkpt>
      <trkpt lat="42.9887" lon="0.81716">
        <ele>762.46</ele>
        <time>2019-04-28T08:33:56Z</time>
      </trkpt>
      <trkpt lat="42.98871" lon="0.81744">
        <ele>763.42</ele>
        <time>2019-04-28T08:34:06Z</time>
      </trkpt>
      <trkpt lat="42.9888" lon="0.81777">
        <ele>766.31</ele>
        <time>2019-04-28T08:34:19Z</time>
      </trkpt>
      <trkpt lat="42.98887" lon="0.81806">
        <ele>767.27</ele>
        <time>2019-04-28T08:34:31Z</time>
      </trkpt>
      <trkpt lat="42.98895" lon="0.81848">
        <ele>769.19</ele>
        <time>2019-04-28T08:34:47Z</time>
      </trkpt>
      <trkpt lat="42.98896" lon="0.81864">
        <ele>770.63</ele>
        <time>2019-04-28T08:34:54Z</time>
      </trkpt>
      <trkpt lat="42.98896" lon="0.81867">
        <ele>770.63</ele>
        <time>2019-04-28T08:34:55Z</time>
      </trkpt>
      <trkpt lat="42.98895" lon="0.81869">
        <ele>770.63</ele>
        <time>2019-04-28T08:34:56Z</time>
      </trkpt>
      <trkpt lat="42.98895" lon="0.81871">
        <ele>771.11</ele>
        <time>2019-04-28T08:34:57Z</time>
      </trkpt>
      <trkpt lat="42.98895" lon="0.81872">
        <ele>771.11</ele>
        <time>2019-04-28T08:34:58Z</time>
      </trkpt>
      <trkpt lat="42.98895" lon="0.81874">
        <ele>771.11</ele>
        <time>2019-04-28T08:34:59Z</time>
      </trkpt>
      <trkpt lat="42.98895" lon="0.81876">
        <ele>771.6</ele>
        <time>2019-04-28T08:35:00Z</time>
      </trkpt>
      <trkpt lat="42.98895" lon="0.81878">
        <ele>771.6</ele>
        <time>2019-04-28T08:35:01Z</time>
      </trkpt>
      <trkpt lat="42.98894" lon="0.8188">
        <ele>772.08</ele>
        <time>2019-04-28T08:35:02Z</time>
      </trkpt>
      <trkpt lat="42.98894" lon="0.81882">
        <ele>772.08</ele>
        <time>2019-04-28T08:35:03Z</time>
      </trkpt>
      <trkpt lat="42.98894" lon="0.81884">
        <ele>772.08</ele>
        <time>2019-04-28T08:35:04Z</time>
      </trkpt>
      <trkpt lat="42.98891" lon="0.81908">
        <ele>775.44</ele>
        <time>2019-04-28T08:35:18Z</time>
      </trkpt>
      <trkpt lat="42.98891" lon="0.81935">
        <ele>777.84</ele>
        <time>2019-04-28T08:35:34Z</time>
      </trkpt>
      <trkpt lat="42.9889" lon="0.81949">
        <ele>779.29</ele>
        <time>2019-04-28T08:35:43Z</time>
      </trkpt>
      <trkpt lat="42.9889" lon="0.81964">
        <ele>781.21</ele>
        <time>2019-04-28T08:35:53Z</time>
      </trkpt>
      <trkpt lat="42.9889" lon="0.81966">
        <ele>781.21</ele>
        <time>2019-04-28T08:35:54Z</time>
      </trkpt>
      <trkpt lat="42.9889" lon="0.81967">
        <ele>781.21</ele>
        <time>2019-04-28T08:35:55Z</time>
      </trkpt>
      <trkpt lat="42.9889" lon="0.81969">
        <ele>781.69</ele>
        <time>2019-04-28T08:35:56Z</time>
      </trkpt>
      <trkpt lat="42.98887" lon="0.81991">
        <ele>785.05</ele>
        <time>2019-04-28T08:36:10Z</time>
      </trkpt>
      <trkpt lat="42.98886" lon="0.81993">
        <ele>785.53</ele>
        <time>2019-04-28T08:36:12Z</time>
      </trkpt>
      <trkpt lat="42.98881" lon="0.82016">
        <ele>788.9</ele>
        <time>2019-04-28T08:36:28Z</time>
      </trkpt>
      <trkpt lat="42.98876" lon="0.82036">
        <ele>791.78</ele>
        <time>2019-04-28T08:36:42Z</time>
      </trkpt>
      <trkpt lat="42.98875" lon="0.8204">
        <ele>792.26</ele>
        <time>2019-04-28T08:36:45Z</time>
      </trkpt>
      <trkpt lat="42.98868" lon="0.82062">
        <ele>795.15</ele>
        <time>2019-04-28T08:37:00Z</time>
      </trkpt>
      <trkpt lat="42.98855" lon="0.82097">
        <ele>795.63</ele>
        <time>2019-04-28T08:37:16Z</time>
      </trkpt>
      <trkpt lat="42.98842" lon="0.82129">
        <ele>796.11</ele>
        <time>2019-04-28T08:37:28Z</time>
      </trkpt>
      <trkpt lat="42.98829" lon="0.82163">
        <ele>796.59</ele>
        <time>2019-04-28T08:37:38Z</time>
      </trkpt>
      <trkpt lat="42.98812" lon="0.82203">
        <ele>797.07</ele>
        <time>2019-04-28T08:37:49Z</time>
      </trkpt>
      <trkpt lat="42.98809" lon="0.82208">
        <ele>795.63</ele>
        <time>2019-04-28T08:37:50Z</time>
      </trkpt>
      <trkpt lat="42.98797" lon="0.82236">
        <ele>793.71</ele>
        <time>2019-04-28T08:37:55Z</time>
      </trkpt>
      <trkpt lat="42.98795" lon="0.82242">
        <ele>793.71</ele>
        <time>2019-04-28T08:37:56Z</time>
      </trkpt>
      <trkpt lat="42.98785" lon="0.82293">
        <ele>793.71</ele>
        <time>2019-04-28T08:38:07Z</time>
      </trkpt>
      <trkpt lat="42.9878" lon="0.82342">
        <ele>796.11</ele>
        <time>2019-04-28T08:38:20Z</time>
      </trkpt>
      <trkpt lat="42.98763" lon="0.82388">
        <ele>795.63</ele>
        <time>2019-04-28T08:38:31Z</time>
      </trkpt>
      <trkpt lat="42.98759" lon="0.8241">
        <ele>795.63</ele>
        <time>2019-04-28T08:38:36Z</time>
      </trkpt>
      <trkpt lat="42.98761" lon="0.8242">
        <ele>794.67</ele>
        <time>2019-04-28T08:38:38Z</time>
      </trkpt>
      <trkpt lat="42.98761" lon="0.82426">
        <ele>794.67</ele>
        <time>2019-04-28T08:38:39Z</time>
      </trkpt>
      <trkpt lat="42.9876" lon="0.82431">
        <ele>794.19</ele>
        <time>2019-04-28T08:38:40Z</time>
      </trkpt>
      <trkpt lat="42.98759" lon="0.82436">
        <ele>794.19</ele>
        <time>2019-04-28T08:38:41Z</time>
      </trkpt>
      <trkpt lat="42.98757" lon="0.82439">
        <ele>793.71</ele>
        <time>2019-04-28T08:38:42Z</time>
      </trkpt>
      <trkpt lat="42.98755" lon="0.82443">
        <ele>793.71</ele>
        <time>2019-04-28T08:38:43Z</time>
      </trkpt>
      <trkpt lat="42.98753" lon="0.82446">
        <ele>793.71</ele>
        <time>2019-04-28T08:38:44Z</time>
      </trkpt>
      <trkpt lat="42.9875" lon="0.82449">
        <ele>793.22</ele>
        <time>2019-04-28T08:38:45Z</time>
      </trkpt>
      <trkpt lat="42.98734" lon="0.82468">
        <ele>792.26</ele>
        <time>2019-04-28T08:38:50Z</time>
      </trkpt>
      <trkpt lat="42.98731" lon="0.82472">
        <ele>791.78</ele>
        <time>2019-04-28T08:38:51Z</time>
      </trkpt>
      <trkpt lat="42.98727" lon="0.82476">
        <ele>791.78</ele>
        <time>2019-04-28T08:38:52Z</time>
      </trkpt>
      <trkpt lat="42.98698" lon="0.82511">
        <ele>792.26</ele>
        <time>2019-04-28T08:39:03Z</time>
      </trkpt>
      <trkpt lat="42.98678" lon="0.82547">
        <ele>792.26</ele>
        <time>2019-04-28T08:39:13Z</time>
      </trkpt>
      <trkpt lat="42.98679" lon="0.82581">
        <ele>790.82</ele>
        <time>2019-04-28T08:39:21Z</time>
      </trkpt>
      <trkpt lat="42.98674" lon="0.8261">
        <ele>790.82</ele>
        <time>2019-04-28T08:39:31Z</time>
      </trkpt>
      <trkpt lat="42.98669" lon="0.82617">
        <ele>792.26</ele>
        <time>2019-04-28T08:39:34Z</time>
      </trkpt>
      <trkpt lat="42.98664" lon="0.82621">
        <ele>792.26</ele>
        <time>2019-04-28T08:39:36Z</time>
      </trkpt>
      <trkpt lat="42.9866" lon="0.82625">
        <ele>792.26</ele>
        <time>2019-04-28T08:39:38Z</time>
      </trkpt>
      <trkpt lat="42.98657" lon="0.82627">
        <ele>792.26</ele>
        <time>2019-04-28T08:39:39Z</time>
      </trkpt>
      <trkpt lat="42.98655" lon="0.82629">
        <ele>792.26</ele>
        <time>2019-04-28T08:39:40Z</time>
      </trkpt>
      <trkpt lat="42.98652" lon="0.82631">
        <ele>792.26</ele>
        <time>2019-04-28T08:39:41Z</time>
      </trkpt>
      <trkpt lat="42.98641" lon="0.82644">
        <ele>792.74</ele>
        <time>2019-04-28T08:39:47Z</time>
      </trkpt>
      <trkpt lat="42.9864" lon="0.82646">
        <ele>792.74</ele>
        <time>2019-04-28T08:39:48Z</time>
      </trkpt>
      <trkpt lat="42.98636" lon="0.82661">
        <ele>793.71</ele>
        <time>2019-04-28T08:40:00Z</time>
      </trkpt>
      <trkpt lat="42.98635" lon="0.82667">
        <ele>794.19</ele>
        <time>2019-04-28T08:40:14Z</time>
      </trkpt>
      <trkpt lat="42.98636" lon="0.82669">
        <ele>794.19</ele>
        <time>2019-04-28T08:40:32Z</time>
      </trkpt>
      <trkpt lat="42.9863" lon="0.82685">
        <ele>794.67</ele>
        <time>2019-04-28T08:40:43Z</time>
      </trkpt>
      <trkpt lat="42.98627" lon="0.82713">
        <ele>795.63</ele>
        <time>2019-04-28T08:40:56Z</time>
      </trkpt>
      <trkpt lat="42.98628" lon="0.82715">
        <ele>795.63</ele>
        <time>2019-04-28T08:40:57Z</time>
      </trkpt>
      <trkpt lat="42.9863" lon="0.82725">
        <ele>794.19</ele>
        <time>2019-04-28T08:41:11Z</time>
      </trkpt>
      <trkpt lat="42.98632" lon="0.82727">
        <ele>794.19</ele>
        <time>2019-04-28T08:41:22Z</time>
      </trkpt>
      <trkpt lat="42.98633" lon="0.82729">
        <ele>793.71</ele>
        <time>2019-04-28T08:41:23Z</time>
      </trkpt>
      <trkpt lat="42.98634" lon="0.82733">
        <ele>793.22</ele>
        <time>2019-04-28T08:41:24Z</time>
      </trkpt>
      <trkpt lat="42.98636" lon="0.82737">
        <ele>793.22</ele>
        <time>2019-04-28T08:41:25Z</time>
      </trkpt>
      <trkpt lat="42.98637" lon="0.82741">
        <ele>791.78</ele>
        <time>2019-04-28T08:41:26Z</time>
      </trkpt>
      <trkpt lat="42.98639" lon="0.82745">
        <ele>791.78</ele>
        <time>2019-04-28T08:41:27Z</time>
      </trkpt>
      <trkpt lat="42.98645" lon="0.82777">
        <ele>788.9</ele>
        <time>2019-04-28T08:41:37Z</time>
      </trkpt>
      <trkpt lat="42.98641" lon="0.82812">
        <ele>787.94</ele>
        <time>2019-04-28T08:41:47Z</time>
      </trkpt>
      <trkpt lat="42.98643" lon="0.82841">
        <ele>789.86</ele>
        <time>2019-04-28T08:41:59Z</time>
      </trkpt>
      <trkpt lat="42.98644" lon="0.82848">
        <ele>790.82</ele>
        <time>2019-04-28T08:42:09Z</time>
      </trkpt>
      <trkpt lat="42.98642" lon="0.82851">
        <ele>790.82</ele>
        <time>2019-04-28T08:42:13Z</time>
      </trkpt>
      <trkpt lat="42.9864" lon="0.82852">
        <ele>790.82</ele>
        <time>2019-04-28T08:42:14Z</time>
      </trkpt>
      <trkpt lat="42.98632" lon="0.82858">
        <ele>791.3</ele>
        <time>2019-04-28T08:42:21Z</time>
      </trkpt>
      <trkpt lat="42.98629" lon="0.82857">
        <ele>791.3</ele>
        <time>2019-04-28T08:42:23Z</time>
      </trkpt>
      <trkpt lat="42.98623" lon="0.8286">
        <ele>791.3</ele>
        <time>2019-04-28T08:42:27Z</time>
      </trkpt>
      <trkpt lat="42.98611" lon="0.82866">
        <ele>791.3</ele>
        <time>2019-04-28T08:42:39Z</time>
      </trkpt>
      <trkpt lat="42.98607" lon="0.82868">
        <ele>791.3</ele>
        <time>2019-04-28T08:42:46Z</time>
      </trkpt>
      <trkpt lat="42.98606" lon="0.8287">
        <ele>791.3</ele>
        <time>2019-04-28T08:42:48Z</time>
      </trkpt>
      <trkpt lat="42.98596" lon="0.82877">
        <ele>791.78</ele>
        <time>2019-04-28T08:42:56Z</time>
      </trkpt>
      <trkpt lat="42.98582" lon="0.8289">
        <ele>792.74</ele>
        <time>2019-04-28T08:43:06Z</time>
      </trkpt>
      <trkpt lat="42.98564" lon="0.82903">
        <ele>792.74</ele>
        <time>2019-04-28T08:43:18Z</time>
      </trkpt>
      <trkpt lat="42.98558" lon="0.8291">
        <ele>793.22</ele>
        <time>2019-04-28T08:43:30Z</time>
      </trkpt>
      <trkpt lat="42.98555" lon="0.82912">
        <ele>793.22</ele>
        <time>2019-04-28T08:43:32Z</time>
      </trkpt>
      <trkpt lat="42.98541" lon="0.82928">
        <ele>795.15</ele>
        <time>2019-04-28T08:43:44Z</time>
      </trkpt>
      <trkpt lat="42.98532" lon="0.82939">
        <ele>795.15</ele>
        <time>2019-04-28T08:43:55Z</time>
      </trkpt>
      <trkpt lat="42.98527" lon="0.8295">
        <ele>793.71</ele>
        <time>2019-04-28T08:44:06Z</time>
      </trkpt>
      <trkpt lat="42.98526" lon="0.82952">
        <ele>793.71</ele>
        <time>2019-04-28T08:44:21Z</time>
      </trkpt>
      <trkpt lat="42.98519" lon="0.82956">
        <ele>789.86</ele>
        <time>2019-04-28T08:44:30Z</time>
      </trkpt>
      <trkpt lat="42.98515" lon="0.82955">
        <ele>789.86</ele>
        <time>2019-04-28T08:44:40Z</time>
      </trkpt>
      <trkpt lat="42.9851" lon="0.82951">
        <ele>786.02</ele>
        <time>2019-04-28T08:44:44Z</time>
      </trkpt>
      <trkpt lat="42.98509" lon="0.8294">
        <ele>782.65</ele>
        <time>2019-04-28T08:44:48Z</time>
      </trkpt>
      <trkpt lat="42.98509" lon="0.82936">
        <ele>781.69</ele>
        <time>2019-04-28T08:44:49Z</time>
      </trkpt>
      <trkpt lat="42.98511" lon="0.82925">
        <ele>780.25</ele>
        <time>2019-04-28T08:44:52Z</time>
      </trkpt>
      <trkpt lat="42.98512" lon="0.82923">
        <ele>779.29</ele>
        <time>2019-04-28T08:44:53Z</time>
      </trkpt>
      <trkpt lat="42.98513" lon="0.8291">
        <ele>776.4</ele>
        <time>2019-04-28T08:44:59Z</time>
      </trkpt>
      <trkpt lat="42.98512" lon="0.82908">
        <ele>776.4</ele>
        <time>2019-04-28T08:45:06Z</time>
      </trkpt>
      <trkpt lat="42.98508" lon="0.82911">
        <ele>774.48</ele>
        <time>2019-04-28T08:45:09Z</time>
      </trkpt>
      <trkpt lat="42.98506" lon="0.82914">
        <ele>773.04</ele>
        <time>2019-04-28T08:45:14Z</time>
      </trkpt>
      <trkpt lat="42.98494" lon="0.82921">
        <ele>769.19</ele>
        <time>2019-04-28T08:45:20Z</time>
      </trkpt>
      <trkpt lat="42.98492" lon="0.82921">
        <ele>768.23</ele>
        <time>2019-04-28T08:45:21Z</time>
      </trkpt>
      <trkpt lat="42.98482" lon="0.82926">
        <ele>763.42</ele>
        <time>2019-04-28T08:45:26Z</time>
      </trkpt>
      <trkpt lat="42.98474" lon="0.82928">
        <ele>760.54</ele>
        <time>2019-04-28T08:45:29Z</time>
      </trkpt>
      <trkpt lat="42.98465" lon="0.82928">
        <ele>756.69</ele>
        <time>2019-04-28T08:45:32Z</time>
      </trkpt>
      <trkpt lat="42.98459" lon="0.82928">
        <ele>753.33</ele>
        <time>2019-04-28T08:45:34Z</time>
      </trkpt>
      <trkpt lat="42.98452" lon="0.82929">
        <ele>749.97</ele>
        <time>2019-04-28T08:45:37Z</time>
      </trkpt>
      <trkpt lat="42.98449" lon="0.8293">
        <ele>749.49</ele>
        <time>2019-04-28T08:45:38Z</time>
      </trkpt>
      <trkpt lat="42.98445" lon="0.82935">
        <ele>746.6</ele>
        <time>2019-04-28T08:45:41Z</time>
      </trkpt>
      <trkpt lat="42.98443" lon="0.82939">
        <ele>745.64</ele>
        <time>2019-04-28T08:45:43Z</time>
      </trkpt>
      <trkpt lat="42.98441" lon="0.82947">
        <ele>742.76</ele>
        <time>2019-04-28T08:45:47Z</time>
      </trkpt>
      <trkpt lat="42.98439" lon="0.82947">
        <ele>741.79</ele>
        <time>2019-04-28T08:45:49Z</time>
      </trkpt>
      <trkpt lat="42.98433" lon="0.8294">
        <ele>736.51</ele>
        <time>2019-04-28T08:45:53Z</time>
      </trkpt>
      <trkpt lat="42.9843" lon="0.82936">
        <ele>735.07</ele>
        <time>2019-04-28T08:45:56Z</time>
      </trkpt>
      <trkpt lat="42.98427" lon="0.82936">
        <ele>734.58</ele>
        <time>2019-04-28T08:45:57Z</time>
      </trkpt>
      <trkpt lat="42.98418" lon="0.82929">
        <ele>730.74</ele>
        <time>2019-04-28T08:46:02Z</time>
      </trkpt>
      <trkpt lat="42.98409" lon="0.82925">
        <ele>727.37</ele>
        <time>2019-04-28T08:46:10Z</time>
      </trkpt>
      <trkpt lat="42.98405" lon="0.8293">
        <ele>725.45</ele>
        <time>2019-04-28T08:46:14Z</time>
      </trkpt>
      <trkpt lat="42.98402" lon="0.82928">
        <ele>723.53</ele>
        <time>2019-04-28T08:46:16Z</time>
      </trkpt>
      <trkpt lat="42.98399" lon="0.82924">
        <ele>721.61</ele>
        <time>2019-04-28T08:46:18Z</time>
      </trkpt>
      <trkpt lat="42.9839" lon="0.82912">
        <ele>716.8</ele>
        <time>2019-04-28T08:46:23Z</time>
      </trkpt>
      <trkpt lat="42.98386" lon="0.82903">
        <ele>713.92</ele>
        <time>2019-04-28T08:46:27Z</time>
      </trkpt>
      <trkpt lat="42.98385" lon="0.82901">
        <ele>713.92</ele>
        <time>2019-04-28T08:46:28Z</time>
      </trkpt>
      <trkpt lat="42.98383" lon="0.82901">
        <ele>712.95</ele>
        <time>2019-04-28T08:46:30Z</time>
      </trkpt>
      <trkpt lat="42.98378" lon="0.82906">
        <ele>709.11</ele>
        <time>2019-04-28T08:46:35Z</time>
      </trkpt>
      <trkpt lat="42.98376" lon="0.82907">
        <ele>707.67</ele>
        <time>2019-04-28T08:46:37Z</time>
      </trkpt>
      <trkpt lat="42.98373" lon="0.82915">
        <ele>703.82</ele>
        <time>2019-04-28T08:46:42Z</time>
      </trkpt>
      <trkpt lat="42.98371" lon="0.82913">
        <ele>702.86</ele>
        <time>2019-04-28T08:46:43Z</time>
      </trkpt>
      <trkpt lat="42.98363" lon="0.82904">
        <ele>699.02</ele>
        <time>2019-04-28T08:46:47Z</time>
      </trkpt>
      <trkpt lat="42.98359" lon="0.82894">
        <ele>695.65</ele>
        <time>2019-04-28T08:46:50Z</time>
      </trkpt>
      <trkpt lat="42.98358" lon="0.82885">
        <ele>693.25</ele>
        <time>2019-04-28T08:46:53Z</time>
      </trkpt>
      <trkpt lat="42.98351" lon="0.82878">
        <ele>690.36</ele>
        <time>2019-04-28T08:47:04Z</time>
      </trkpt>
      <trkpt lat="42.98351" lon="0.8288">
        <ele>690.36</ele>
        <time>2019-04-28T08:47:08Z</time>
      </trkpt>
      <trkpt lat="42.98347" lon="0.82876">
        <ele>686.04</ele>
        <time>2019-04-28T08:47:13Z</time>
      </trkpt>
      <trkpt lat="42.98346" lon="0.82866">
        <ele>683.15</ele>
        <time>2019-04-28T08:47:17Z</time>
      </trkpt>
      <trkpt lat="42.98342" lon="0.82867">
        <ele>680.27</ele>
        <time>2019-04-28T08:47:26Z</time>
      </trkpt>
      <trkpt lat="42.98336" lon="0.8286">
        <ele>675.94</ele>
        <time>2019-04-28T08:47:34Z</time>
      </trkpt>
      <trkpt lat="42.98334" lon="0.82855">
        <ele>672.58</ele>
        <time>2019-04-28T08:47:40Z</time>
      </trkpt>
      <trkpt lat="42.98329" lon="0.82863">
        <ele>670.18</ele>
        <time>2019-04-28T08:47:45Z</time>
      </trkpt>
      <trkpt lat="42.98327" lon="0.82868">
        <ele>668.73</ele>
        <time>2019-04-28T08:47:47Z</time>
      </trkpt>
      <trkpt lat="42.9832" lon="0.82884">
        <ele>665.37</ele>
        <time>2019-04-28T08:47:53Z</time>
      </trkpt>
      <trkpt lat="42.98313" lon="0.82899">
        <ele>662.01</ele>
        <time>2019-04-28T08:47:59Z</time>
      </trkpt>
      <trkpt lat="42.98313" lon="0.82904">
        <ele>661.04</ele>
        <time>2019-04-28T08:48:01Z</time>
      </trkpt>
      <trkpt lat="42.98312" lon="0.8291">
        <ele>659.12</ele>
        <time>2019-04-28T08:48:05Z</time>
      </trkpt>
      <trkpt lat="42.98304" lon="0.82905">
        <ele>655.28</ele>
        <time>2019-04-28T08:48:15Z</time>
      </trkpt>
      <trkpt lat="42.98299" lon="0.82894">
        <ele>651.91</ele>
        <time>2019-04-28T08:48:25Z</time>
      </trkpt>
      <trkpt lat="42.983" lon="0.82886">
        <ele>649.99</ele>
        <time>2019-04-28T08:48:28Z</time>
      </trkpt>
      <trkpt lat="42.98299" lon="0.82872">
        <ele>645.66</ele>
        <time>2019-04-28T08:48:33Z</time>
      </trkpt>
      <trkpt lat="42.98299" lon="0.82851">
        <ele>642.3</ele>
        <time>2019-04-28T08:48:39Z</time>
      </trkpt>
      <trkpt lat="42.98299" lon="0.82848">
        <ele>642.3</ele>
        <time>2019-04-28T08:48:40Z</time>
      </trkpt>
      <trkpt lat="42.98299" lon="0.82813">
        <ele>640.86</ele>
        <time>2019-04-28T08:48:53Z</time>
      </trkpt>
      <trkpt lat="42.98297" lon="0.82797">
        <ele>639.89</ele>
        <time>2019-04-28T08:49:07Z</time>
      </trkpt>
      <trkpt lat="42.98295" lon="0.82774">
        <ele>638.93</ele>
        <time>2019-04-28T08:49:21Z</time>
      </trkpt>
      <trkpt lat="42.98304" lon="0.82729">
        <ele>637.49</ele>
        <time>2019-04-28T08:49:32Z</time>
      </trkpt>
      <trkpt lat="42.98307" lon="0.82723">
        <ele>636.05</ele>
        <time>2019-04-28T08:49:33Z</time>
      </trkpt>
      <trkpt lat="42.98322" lon="0.82689">
        <ele>632.2</ele>
        <time>2019-04-28T08:49:37Z</time>
      </trkpt>
      <trkpt lat="42.98328" lon="0.8268">
        <ele>631.24</ele>
        <time>2019-04-28T08:49:38Z</time>
      </trkpt>
      <trkpt lat="42.98334" lon="0.82671">
        <ele>630.28</ele>
        <time>2019-04-28T08:49:39Z</time>
      </trkpt>
      <trkpt lat="42.98348" lon="0.82654">
        <ele>628.84</ele>
        <time>2019-04-28T08:49:41Z</time>
      </trkpt>
      <trkpt lat="42.98354" lon="0.82644">
        <ele>628.36</ele>
        <time>2019-04-28T08:49:42Z</time>
      </trkpt>
      <trkpt lat="42.98358" lon="0.82633">
        <ele>627.4</ele>
        <time>2019-04-28T08:49:43Z</time>
      </trkpt>
      <trkpt lat="42.98362" lon="0.82624">
        <ele>627.4</ele>
        <time>2019-04-28T08:49:44Z</time>
      </trkpt>
      <trkpt lat="42.98364" lon="0.82614">
        <ele>627.4</ele>
        <time>2019-04-28T08:49:45Z</time>
      </trkpt>
      <trkpt lat="42.98365" lon="0.82605">
        <ele>627.4</ele>
        <time>2019-04-28T08:49:46Z</time>
      </trkpt>
      <trkpt lat="42.98364" lon="0.82595">
        <ele>626.44</ele>
        <time>2019-04-28T08:49:47Z</time>
      </trkpt>
      <trkpt lat="42.98362" lon="0.82586">
        <ele>625.96</ele>
        <time>2019-04-28T08:49:48Z</time>
      </trkpt>
      <trkpt lat="42.98358" lon="0.82578">
        <ele>625.47</ele>
        <time>2019-04-28T08:49:49Z</time>
      </trkpt>
      <trkpt lat="42.98355" lon="0.82571">
        <ele>624.99</ele>
        <time>2019-04-28T08:49:50Z</time>
      </trkpt>
      <trkpt lat="42.98353" lon="0.82563">
        <ele>624.03</ele>
        <time>2019-04-28T08:49:51Z</time>
      </trkpt>
      <trkpt lat="42.98353" lon="0.82555">
        <ele>623.07</ele>
        <time>2019-04-28T08:49:52Z</time>
      </trkpt>
      <trkpt lat="42.98354" lon="0.82547">
        <ele>623.07</ele>
        <time>2019-04-28T08:49:53Z</time>
      </trkpt>
      <trkpt lat="42.98357" lon="0.82538">
        <ele>621.63</ele>
        <time>2019-04-28T08:49:54Z</time>
      </trkpt>
      <trkpt lat="42.9836" lon="0.82529">
        <ele>621.63</ele>
        <time>2019-04-28T08:49:55Z</time>
      </trkpt>
      <trkpt lat="42.98363" lon="0.82519">
        <ele>620.67</ele>
        <time>2019-04-28T08:49:56Z</time>
      </trkpt>
      <trkpt lat="42.98367" lon="0.82509">
        <ele>619.71</ele>
        <time>2019-04-28T08:49:57Z</time>
      </trkpt>
      <trkpt lat="42.98378" lon="0.82491">
        <ele>618.75</ele>
        <time>2019-04-28T08:49:59Z</time>
      </trkpt>
      <trkpt lat="42.98384" lon="0.82483">
        <ele>618.75</ele>
        <time>2019-04-28T08:50:00Z</time>
      </trkpt>
      <trkpt lat="42.98391" lon="0.82476">
        <ele>617.3</ele>
        <time>2019-04-28T08:50:01Z</time>
      </trkpt>
      <trkpt lat="42.98399" lon="0.82472">
        <ele>616.82</ele>
        <time>2019-04-28T08:50:02Z</time>
      </trkpt>
      <trkpt lat="42.98407" lon="0.82471">
        <ele>616.34</ele>
        <time>2019-04-28T08:50:03Z</time>
      </trkpt>
      <trkpt lat="42.98416" lon="0.82471">
        <ele>615.86</ele>
        <time>2019-04-28T08:50:04Z</time>
      </trkpt>
      <trkpt lat="42.9844" lon="0.82474">
        <ele>615.38</ele>
        <time>2019-04-28T08:50:07Z</time>
      </trkpt>
      <trkpt lat="42.98447" lon="0.82472">
        <ele>615.38</ele>
        <time>2019-04-28T08:50:08Z</time>
      </trkpt>
      <trkpt lat="42.98453" lon="0.82467">
        <ele>614.9</ele>
        <time>2019-04-28T08:50:09Z</time>
      </trkpt>
      <trkpt lat="42.98458" lon="0.8246">
        <ele>614.9</ele>
        <time>2019-04-28T08:50:10Z</time>
      </trkpt>
      <trkpt lat="42.98463" lon="0.82452">
        <ele>613.46</ele>
        <time>2019-04-28T08:50:11Z</time>
      </trkpt>
      <trkpt lat="42.98466" lon="0.82441">
        <ele>612.98</ele>
        <time>2019-04-28T08:50:12Z</time>
      </trkpt>
      <trkpt lat="42.98466" lon="0.8243">
        <ele>612.5</ele>
        <time>2019-04-28T08:50:13Z</time>
      </trkpt>
      <trkpt lat="42.98464" lon="0.82419">
        <ele>611.54</ele>
        <time>2019-04-28T08:50:14Z</time>
      </trkpt>
      <trkpt lat="42.9846" lon="0.82408">
        <ele>611.54</ele>
        <time>2019-04-28T08:50:15Z</time>
      </trkpt>
      <trkpt lat="42.98455" lon="0.82399">
        <ele>611.06</ele>
        <time>2019-04-28T08:50:16Z</time>
      </trkpt>
      <trkpt lat="42.98452" lon="0.8239">
        <ele>610.57</ele>
        <time>2019-04-28T08:50:17Z</time>
      </trkpt>
      <trkpt lat="42.9845" lon="0.8238">
        <ele>610.09</ele>
        <time>2019-04-28T08:50:18Z</time>
      </trkpt>
      <trkpt lat="42.98449" lon="0.8237">
        <ele>610.09</ele>
        <time>2019-04-28T08:50:19Z</time>
      </trkpt>
      <trkpt lat="42.98451" lon="0.82339">
        <ele>608.17</ele>
        <time>2019-04-28T08:50:22Z</time>
      </trkpt>
      <trkpt lat="42.9847" lon="0.82246">
        <ele>604.81</ele>
        <time>2019-04-28T08:50:31Z</time>
      </trkpt>
      <trkpt lat="42.98502" lon="0.82175">
        <ele>602.4</ele>
        <time>2019-04-28T08:50:39Z</time>
      </trkpt>
      <trkpt lat="42.98506" lon="0.82165">
        <ele>600.96</ele>
        <time>2019-04-28T08:50:40Z</time>
      </trkpt>
      <trkpt lat="42.98509" lon="0.82154">
        <ele>600.96</ele>
        <time>2019-04-28T08:50:41Z</time>
      </trkpt>
      <trkpt lat="42.98514" lon="0.82133">
        <ele>600</ele>
        <time>2019-04-28T08:50:43Z</time>
      </trkpt>
      <trkpt lat="42.98518" lon="0.82123">
        <ele>599.04</ele>
        <time>2019-04-28T08:50:44Z</time>
      </trkpt>
      <trkpt lat="42.98522" lon="0.82113">
        <ele>598.08</ele>
        <time>2019-04-28T08:50:45Z</time>
      </trkpt>
      <trkpt lat="42.98538" lon="0.82082">
        <ele>596.15</ele>
        <time>2019-04-28T08:50:48Z</time>
      </trkpt>
      <trkpt lat="42.98541" lon="0.82071">
        <ele>595.67</ele>
        <time>2019-04-28T08:50:49Z</time>
      </trkpt>
      <trkpt lat="42.98544" lon="0.82059">
        <ele>595.67</ele>
        <time>2019-04-28T08:50:50Z</time>
      </trkpt>
      <trkpt lat="42.98546" lon="0.82048">
        <ele>595.19</ele>
        <time>2019-04-28T08:50:51Z</time>
      </trkpt>
      <trkpt lat="42.98547" lon="0.82025">
        <ele>594.23</ele>
        <time>2019-04-28T08:50:53Z</time>
      </trkpt>
      <trkpt lat="42.98549" lon="0.82015">
        <ele>594.23</ele>
        <time>2019-04-28T08:50:54Z</time>
      </trkpt>
      <trkpt lat="42.98553" lon="0.82005">
        <ele>594.23</ele>
        <time>2019-04-28T08:50:55Z</time>
      </trkpt>
      <trkpt lat="42.98557" lon="0.81998">
        <ele>594.23</ele>
        <time>2019-04-28T08:50:56Z</time>
      </trkpt>
      <trkpt lat="42.98562" lon="0.81993">
        <ele>594.23</ele>
        <time>2019-04-28T08:50:57Z</time>
      </trkpt>
      <trkpt lat="42.98566" lon="0.81987">
        <ele>595.67</ele>
        <time>2019-04-28T08:50:58Z</time>
      </trkpt>
      <trkpt lat="42.98569" lon="0.81981">
        <ele>595.67</ele>
        <time>2019-04-28T08:50:59Z</time>
      </trkpt>
      <trkpt lat="42.98572" lon="0.81974">
        <ele>595.67</ele>
        <time>2019-04-28T08:51:00Z</time>
      </trkpt>
      <trkpt lat="42.98573" lon="0.81968">
        <ele>595.67</ele>
        <time>2019-04-28T08:51:01Z</time>
      </trkpt>
      <trkpt lat="42.98574" lon="0.81964">
        <ele>595.67</ele>
        <time>2019-04-28T08:51:02Z</time>
      </trkpt>
      <trkpt lat="42.98576" lon="0.81941">
        <ele>595.67</ele>
        <time>2019-04-28T08:51:14Z</time>
      </trkpt>
      <trkpt lat="42.98576" lon="0.81917">
        <ele>593.27</ele>
        <time>2019-04-28T08:51:32Z</time>
      </trkpt>
      <trkpt lat="42.98576" lon="0.81915">
        <ele>593.27</ele>
        <time>2019-04-28T08:51:33Z</time>
      </trkpt>
      <trkpt lat="42.98577" lon="0.81859">
        <ele>589.91</ele>
        <time>2019-04-28T08:51:43Z</time>
      </trkpt>
      <trkpt lat="42.98576" lon="0.81851">
        <ele>589.43</ele>
        <time>2019-04-28T08:51:44Z</time>
      </trkpt>
      <trkpt lat="42.98574" lon="0.81842">
        <ele>588.46</ele>
        <time>2019-04-28T08:51:45Z</time>
      </trkpt>
      <trkpt lat="42.98571" lon="0.81833">
        <ele>587.98</ele>
        <time>2019-04-28T08:51:46Z</time>
      </trkpt>
      <trkpt lat="42.98567" lon="0.81824">
        <ele>587.5</ele>
        <time>2019-04-28T08:51:47Z</time>
      </trkpt>
      <trkpt lat="42.98553" lon="0.81781">
        <ele>583.66</ele>
        <time>2019-04-28T08:51:51Z</time>
      </trkpt>
      <trkpt lat="42.98522" lon="0.8169">
        <ele>580.77</ele>
        <time>2019-04-28T08:52:00Z</time>
      </trkpt>
      <trkpt lat="42.98515" lon="0.81657">
        <ele>579.33</ele>
        <time>2019-04-28T08:52:03Z</time>
      </trkpt>
      <trkpt lat="42.98514" lon="0.81646">
        <ele>578.37</ele>
        <time>2019-04-28T08:52:04Z</time>
      </trkpt>
      <trkpt lat="42.98515" lon="0.81634">
        <ele>577.89</ele>
        <time>2019-04-28T08:52:05Z</time>
      </trkpt>
      <trkpt lat="42.98517" lon="0.81612">
        <ele>577.41</ele>
        <time>2019-04-28T08:52:07Z</time>
      </trkpt>
      <trkpt lat="42.98519" lon="0.81601">
        <ele>576.93</ele>
        <time>2019-04-28T08:52:08Z</time>
      </trkpt>
      <trkpt lat="42.98527" lon="0.81553">
        <ele>573.08</ele>
        <time>2019-04-28T08:52:12Z</time>
      </trkpt>
      <trkpt lat="42.98531" lon="0.81514">
        <ele>571.64</ele>
        <time>2019-04-28T08:52:15Z</time>
      </trkpt>
      <trkpt lat="42.98534" lon="0.81476">
        <ele>570.2</ele>
        <time>2019-04-28T08:52:18Z</time>
      </trkpt>
      <trkpt lat="42.98537" lon="0.81464">
        <ele>569.24</ele>
        <time>2019-04-28T08:52:19Z</time>
      </trkpt>
      <trkpt lat="42.98541" lon="0.81452">
        <ele>568.28</ele>
        <time>2019-04-28T08:52:20Z</time>
      </trkpt>
      <trkpt lat="42.98545" lon="0.81441">
        <ele>568.28</ele>
        <time>2019-04-28T08:52:21Z</time>
      </trkpt>
      <trkpt lat="42.9855" lon="0.8143">
        <ele>567.32</ele>
        <time>2019-04-28T08:52:22Z</time>
      </trkpt>
      <trkpt lat="42.98554" lon="0.81419">
        <ele>566.35</ele>
        <time>2019-04-28T08:52:23Z</time>
      </trkpt>
      <trkpt lat="42.98558" lon="0.81407">
        <ele>566.35</ele>
        <time>2019-04-28T08:52:24Z</time>
      </trkpt>
      <trkpt lat="42.98562" lon="0.81395">
        <ele>564.91</ele>
        <time>2019-04-28T08:52:25Z</time>
      </trkpt>
      <trkpt lat="42.98564" lon="0.81382">
        <ele>564.43</ele>
        <time>2019-04-28T08:52:26Z</time>
      </trkpt>
      <trkpt lat="42.98565" lon="0.81369">
        <ele>563.47</ele>
        <time>2019-04-28T08:52:27Z</time>
      </trkpt>
      <trkpt lat="42.98564" lon="0.81356">
        <ele>562.99</ele>
        <time>2019-04-28T08:52:28Z</time>
      </trkpt>
      <trkpt lat="42.98563" lon="0.81344">
        <ele>561.55</ele>
        <time>2019-04-28T08:52:29Z</time>
      </trkpt>
      <trkpt lat="42.9856" lon="0.81317">
        <ele>560.11</ele>
        <time>2019-04-28T08:52:31Z</time>
      </trkpt>
      <trkpt lat="42.9856" lon="0.81303">
        <ele>560.11</ele>
        <time>2019-04-28T08:52:32Z</time>
      </trkpt>
      <trkpt lat="42.98562" lon="0.8129">
        <ele>559.14</ele>
        <time>2019-04-28T08:52:33Z</time>
      </trkpt>
      <trkpt lat="42.98564" lon="0.81278">
        <ele>558.18</ele>
        <time>2019-04-28T08:52:34Z</time>
      </trkpt>
      <trkpt lat="42.98567" lon="0.81265">
        <ele>558.18</ele>
        <time>2019-04-28T08:52:35Z</time>
      </trkpt>
      <trkpt lat="42.98579" lon="0.81202">
        <ele>554.82</ele>
        <time>2019-04-28T08:52:40Z</time>
      </trkpt>
      <trkpt lat="42.98588" lon="0.81165">
        <ele>552.41</ele>
        <time>2019-04-28T08:52:43Z</time>
      </trkpt>
      <trkpt lat="42.98593" lon="0.81153">
        <ele>551.93</ele>
        <time>2019-04-28T08:52:44Z</time>
      </trkpt>
      <trkpt lat="42.986" lon="0.81143">
        <ele>550.97</ele>
        <time>2019-04-28T08:52:45Z</time>
      </trkpt>
      <trkpt lat="42.98607" lon="0.81135">
        <ele>550.97</ele>
        <time>2019-04-28T08:52:46Z</time>
      </trkpt>
      <trkpt lat="42.98615" lon="0.81128">
        <ele>550.01</ele>
        <time>2019-04-28T08:52:47Z</time>
      </trkpt>
      <trkpt lat="42.98624" lon="0.81122">
        <ele>549.53</ele>
        <time>2019-04-28T08:52:48Z</time>
      </trkpt>
      <trkpt lat="42.98633" lon="0.81117">
        <ele>549.05</ele>
        <time>2019-04-28T08:52:49Z</time>
      </trkpt>
      <trkpt lat="42.98658" lon="0.81099">
        <ele>548.09</ele>
        <time>2019-04-28T08:52:52Z</time>
      </trkpt>
      <trkpt lat="42.98664" lon="0.81091">
        <ele>547.61</ele>
        <time>2019-04-28T08:52:53Z</time>
      </trkpt>
      <trkpt lat="42.98668" lon="0.8108">
        <ele>547.13</ele>
        <time>2019-04-28T08:52:54Z</time>
      </trkpt>
      <trkpt lat="42.9867" lon="0.81068">
        <ele>546.17</ele>
        <time>2019-04-28T08:52:55Z</time>
      </trkpt>
      <trkpt lat="42.9867" lon="0.81056">
        <ele>546.17</ele>
        <time>2019-04-28T08:52:56Z</time>
      </trkpt>
      <trkpt lat="42.98667" lon="0.81045">
        <ele>546.17</ele>
        <time>2019-04-28T08:52:57Z</time>
      </trkpt>
      <trkpt lat="42.98663" lon="0.81035">
        <ele>546.17</ele>
        <time>2019-04-28T08:52:58Z</time>
      </trkpt>
      <trkpt lat="42.98658" lon="0.81027">
        <ele>545.2</ele>
        <time>2019-04-28T08:52:59Z</time>
      </trkpt>
      <trkpt lat="42.98654" lon="0.81019">
        <ele>545.2</ele>
        <time>2019-04-28T08:53:00Z</time>
      </trkpt>
      <trkpt lat="42.98651" lon="0.81011">
        <ele>545.2</ele>
        <time>2019-04-28T08:53:01Z</time>
      </trkpt>
      <trkpt lat="42.98651" lon="0.81003">
        <ele>544.72</ele>
        <time>2019-04-28T08:53:02Z</time>
      </trkpt>
      <trkpt lat="42.98653" lon="0.80996">
        <ele>543.76</ele>
        <time>2019-04-28T08:53:03Z</time>
      </trkpt>
      <trkpt lat="42.98656" lon="0.80991">
        <ele>543.76</ele>
        <time>2019-04-28T08:53:04Z</time>
      </trkpt>
      <trkpt lat="42.9866" lon="0.80986">
        <ele>543.76</ele>
        <time>2019-04-28T08:53:11Z</time>
      </trkpt>
      <trkpt lat="42.98674" lon="0.80977">
        <ele>542.8</ele>
        <time>2019-04-28T08:53:25Z</time>
      </trkpt>
      <trkpt lat="42.98697" lon="0.80937">
        <ele>540.88</ele>
        <time>2019-04-28T08:53:35Z</time>
      </trkpt>
      <trkpt lat="42.98708" lon="0.80918">
        <ele>539.44</ele>
        <time>2019-04-28T08:53:38Z</time>
      </trkpt>
      <trkpt lat="42.98719" lon="0.80903">
        <ele>538.48</ele>
        <time>2019-04-28T08:53:41Z</time>
      </trkpt>
      <trkpt lat="42.98722" lon="0.80898">
        <ele>538.48</ele>
        <time>2019-04-28T08:53:42Z</time>
      </trkpt>
      <trkpt lat="42.98723" lon="0.80893">
        <ele>538.48</ele>
        <time>2019-04-28T08:53:43Z</time>
      </trkpt>
      <trkpt lat="42.98723" lon="0.80889">
        <ele>537.99</ele>
        <time>2019-04-28T08:53:44Z</time>
      </trkpt>
      <trkpt lat="42.98724" lon="0.80886">
        <ele>537.99</ele>
        <time>2019-04-28T08:53:45Z</time>
      </trkpt>
      <trkpt lat="42.98728" lon="0.80858">
        <ele>536.07</ele>
        <time>2019-04-28T08:53:56Z</time>
      </trkpt>
      <trkpt lat="42.98728" lon="0.80855">
        <ele>536.07</ele>
        <time>2019-04-28T08:53:57Z</time>
      </trkpt>
      <trkpt lat="42.98728" lon="0.80852">
        <ele>536.07</ele>
        <time>2019-04-28T08:53:58Z</time>
      </trkpt>
      <trkpt lat="42.98728" lon="0.80849">
        <ele>536.07</ele>
        <time>2019-04-28T08:53:59Z</time>
      </trkpt>
      <trkpt lat="42.98728" lon="0.80846">
        <ele>536.07</ele>
        <time>2019-04-28T08:54:00Z</time>
      </trkpt>
      <trkpt lat="42.98737" lon="0.80779">
        <ele>535.11</ele>
        <time>2019-04-28T08:54:16Z</time>
      </trkpt>
      <trkpt lat="42.98756" lon="0.80748">
        <ele>533.67</ele>
        <time>2019-04-28T08:54:23Z</time>
      </trkpt>
      <trkpt lat="42.98758" lon="0.80742">
        <ele>533.19</ele>
        <time>2019-04-28T08:54:24Z</time>
      </trkpt>
      <trkpt lat="42.9876" lon="0.80735">
        <ele>533.19</ele>
        <time>2019-04-28T08:54:25Z</time>
      </trkpt>
      <trkpt lat="42.98762" lon="0.80721">
        <ele>533.19</ele>
        <time>2019-04-28T08:54:27Z</time>
      </trkpt>
      <trkpt lat="42.98764" lon="0.80714">
        <ele>532.71</ele>
        <time>2019-04-28T08:54:28Z</time>
      </trkpt>
      <trkpt lat="42.98767" lon="0.80707">
        <ele>532.71</ele>
        <time>2019-04-28T08:54:29Z</time>
      </trkpt>
      <trkpt lat="42.98774" lon="0.80693">
        <ele>531.75</ele>
        <time>2019-04-28T08:54:31Z</time>
      </trkpt>
      <trkpt lat="42.98778" lon="0.80686">
        <ele>531.27</ele>
        <time>2019-04-28T08:54:32Z</time>
      </trkpt>
      <trkpt lat="42.98783" lon="0.8068">
        <ele>530.79</ele>
        <time>2019-04-28T08:54:33Z</time>
      </trkpt>
      <trkpt lat="42.98788" lon="0.80675">
        <ele>530.79</ele>
        <time>2019-04-28T08:54:34Z</time>
      </trkpt>
      <trkpt lat="42.98792" lon="0.8067">
        <ele>529.82</ele>
        <time>2019-04-28T08:54:35Z</time>
      </trkpt>
      <trkpt lat="42.98804" lon="0.80657">
        <ele>528.38</ele>
        <time>2019-04-28T08:54:38Z</time>
      </trkpt>
      <trkpt lat="42.98807" lon="0.80652">
        <ele>528.38</ele>
        <time>2019-04-28T08:54:39Z</time>
      </trkpt>
      <trkpt lat="42.98808" lon="0.80648">
        <ele>528.38</ele>
        <time>2019-04-28T08:54:40Z</time>
      </trkpt>
      <trkpt lat="42.98809" lon="0.80645">
        <ele>527.9</ele>
        <time>2019-04-28T08:54:41Z</time>
      </trkpt>
      <trkpt lat="42.98809" lon="0.80642">
        <ele>527.9</ele>
        <time>2019-04-28T08:54:42Z</time>
      </trkpt>
      <trkpt lat="42.9881" lon="0.8064">
        <ele>527.9</ele>
        <time>2019-04-28T08:54:45Z</time>
      </trkpt>
      <trkpt lat="42.9881" lon="0.80638">
        <ele>527.42</ele>
        <time>2019-04-28T08:54:46Z</time>
      </trkpt>
      <trkpt lat="42.9881" lon="0.80636">
        <ele>527.42</ele>
        <time>2019-04-28T08:54:47Z</time>
      </trkpt>
      <trkpt lat="42.98808" lon="0.80636">
        <ele>527.42</ele>
        <time>2019-04-28T08:54:48Z</time>
      </trkpt>
      <trkpt lat="42.98806" lon="0.80637">
        <ele>527.42</ele>
        <time>2019-04-28T08:54:49Z</time>
      </trkpt>
      <trkpt lat="42.98806" lon="0.8064">
        <ele>527.42</ele>
        <time>2019-04-28T08:54:50Z</time>
      </trkpt>
      <trkpt lat="42.98806" lon="0.80643">
        <ele>527.42</ele>
        <time>2019-04-28T08:54:51Z</time>
      </trkpt>
      <trkpt lat="42.98806" lon="0.80645">
        <ele>527.42</ele>
        <time>2019-04-28T08:54:52Z</time>
      </trkpt>
      <trkpt lat="42.98806" lon="0.80648">
        <ele>527.42</ele>
        <time>2019-04-28T08:54:53Z</time>
      </trkpt>
      <trkpt lat="42.98806" lon="0.8065">
        <ele>527.42</ele>
        <time>2019-04-28T08:54:54Z</time>
      </trkpt>
      <trkpt lat="42.98805" lon="0.80653">
        <ele>527.42</ele>
        <time>2019-04-28T08:54:55Z</time>
      </trkpt>
      <trkpt lat="42.98803" lon="0.80655">
        <ele>527.42</ele>
        <time>2019-04-28T08:54:56Z</time>
      </trkpt>
      <trkpt lat="42.98801" lon="0.80658">
        <ele>528.86</ele>
        <time>2019-04-28T08:54:57Z</time>
      </trkpt>
      <trkpt lat="42.98799" lon="0.8066">
        <ele>528.86</ele>
        <time>2019-04-28T08:54:58Z</time>
      </trkpt>
      <trkpt lat="42.98797" lon="0.80661">
        <ele>528.86</ele>
        <time>2019-04-28T08:54:59Z</time>
      </trkpt>
      <trkpt lat="42.98796" lon="0.80661">
        <ele>528.86</ele>
        <time>2019-04-28T08:55:00Z</time>
      </trkpt>
      <trkpt lat="42.9877" lon="0.80627">
        <ele>531.27</ele>
        <time>2019-04-28T08:55:16Z</time>
      </trkpt>
      <trkpt lat="42.98769" lon="0.80565">
        <ele>532.71</ele>
        <time>2019-04-28T08:55:33Z</time>
      </trkpt>
      <trkpt lat="42.9876" lon="0.80502">
        <ele>535.11</ele>
        <time>2019-04-28T08:55:50Z</time>
      </trkpt>
      <trkpt lat="42.98751" lon="0.8045">
        <ele>537.03</ele>
        <time>2019-04-28T08:56:06Z</time>
      </trkpt>
      <trkpt lat="42.98746" lon="0.80402">
        <ele>538.96</ele>
        <time>2019-04-28T08:56:21Z</time>
      </trkpt>
      <trkpt lat="42.98748" lon="0.80366">
        <ele>542.32</ele>
        <time>2019-04-28T08:56:37Z</time>
      </trkpt>
      <trkpt lat="42.98764" lon="0.80343">
        <ele>545.2</ele>
        <time>2019-04-28T08:56:53Z</time>
      </trkpt>
      <trkpt lat="42.98776" lon="0.80317">
        <ele>545.2</ele>
        <time>2019-04-28T08:57:03Z</time>
      </trkpt>
      <trkpt lat="42.98784" lon="0.80286">
        <ele>545.2</ele>
        <time>2019-04-28T08:57:16Z</time>
      </trkpt>
      <trkpt lat="42.98788" lon="0.80261">
        <ele>543.76</ele>
        <time>2019-04-28T08:57:26Z</time>
      </trkpt>
      <trkpt lat="42.9879" lon="0.80251">
        <ele>545.2</ele>
        <time>2019-04-28T08:57:30Z</time>
      </trkpt>
      <trkpt lat="42.98793" lon="0.80236">
        <ele>545.2</ele>
        <time>2019-04-28T08:57:36Z</time>
      </trkpt>
      <trkpt lat="42.98793" lon="0.80233">
        <ele>545.2</ele>
        <time>2019-04-28T08:57:37Z</time>
      </trkpt>
      <trkpt lat="42.98802" lon="0.80199">
        <ele>547.13</ele>
        <time>2019-04-28T08:57:49Z</time>
      </trkpt>
      <trkpt lat="42.988" lon="0.80158">
        <ele>545.2</ele>
        <time>2019-04-28T08:58:00Z</time>
      </trkpt>
      <trkpt lat="42.98803" lon="0.80144">
        <ele>544.72</ele>
        <time>2019-04-28T08:58:03Z</time>
      </trkpt>
      <trkpt lat="42.98813" lon="0.80125">
        <ele>544.24</ele>
        <time>2019-04-28T08:58:11Z</time>
      </trkpt>
      <trkpt lat="42.98827" lon="0.80105">
        <ele>545.69</ele>
        <time>2019-04-28T08:58:20Z</time>
      </trkpt>
      <trkpt lat="42.98842" lon="0.80079">
        <ele>546.65</ele>
        <time>2019-04-28T08:58:32Z</time>
      </trkpt>
      <trkpt lat="42.98852" lon="0.80025">
        <ele>546.65</ele>
        <time>2019-04-28T08:58:46Z</time>
      </trkpt>
      <trkpt lat="42.98859" lon="0.79979">
        <ele>547.13</ele>
        <time>2019-04-28T08:58:59Z</time>
      </trkpt>
      <trkpt lat="42.98861" lon="0.79966">
        <ele>547.13</ele>
        <time>2019-04-28T08:59:04Z</time>
      </trkpt>
      <trkpt lat="42.98862" lon="0.7995">
        <ele>547.13</ele>
        <time>2019-04-28T08:59:09Z</time>
      </trkpt>
      <trkpt lat="42.98865" lon="0.79908">
        <ele>547.13</ele>
        <time>2019-04-28T08:59:20Z</time>
      </trkpt>
      <trkpt lat="42.98869" lon="0.79889">
        <ele>547.61</ele>
        <time>2019-04-28T08:59:34Z</time>
      </trkpt>
      <trkpt lat="42.98869" lon="0.7988">
        <ele>547.61</ele>
        <time>2019-04-28T08:59:49Z</time>
      </trkpt>
      <trkpt lat="42.98876" lon="0.7987">
        <ele>546.17</ele>
        <time>2019-04-28T09:00:04Z</time>
      </trkpt>
      <trkpt lat="42.98886" lon="0.79822">
        <ele>543.76</ele>
        <time>2019-04-28T09:00:17Z</time>
      </trkpt>
      <trkpt lat="42.98887" lon="0.79762">
        <ele>541.84</ele>
        <time>2019-04-28T09:00:32Z</time>
      </trkpt>
      <trkpt lat="42.98884" lon="0.79752">
        <ele>541.36</ele>
        <time>2019-04-28T09:00:44Z</time>
      </trkpt>
      <trkpt lat="42.98882" lon="0.79754">
        <ele>541.36</ele>
        <time>2019-04-28T09:00:55Z</time>
      </trkpt>
      <trkpt lat="42.98882" lon="0.79754">
        <ele>541.36</ele>
        <time>2019-04-28T09:00:56Z</time>
      </trkpt>
      <trkpt lat="42.98866" lon="0.79742">
        <ele>539.44</ele>
        <time>2019-04-28T09:01:05Z</time>
      </trkpt>
      <trkpt lat="42.9885" lon="0.79736">
        <ele>536.07</ele>
        <time>2019-04-28T09:01:12Z</time>
      </trkpt>
      <trkpt lat="42.98833" lon="0.79731">
        <ele>533.19</ele>
        <time>2019-04-28T09:01:17Z</time>
      </trkpt>
      <trkpt lat="42.98823" lon="0.79717">
        <ele>529.34</ele>
        <time>2019-04-28T09:01:21Z</time>
      </trkpt>
      <trkpt lat="42.98817" lon="0.79708">
        <ele>527.42</ele>
        <time>2019-04-28T09:01:23Z</time>
      </trkpt>
      <trkpt lat="42.98805" lon="0.79674">
        <ele>523.09</ele>
        <time>2019-04-28T09:01:30Z</time>
      </trkpt>
      <trkpt lat="42.98802" lon="0.79671">
        <ele>522.61</ele>
        <time>2019-04-28T09:01:31Z</time>
      </trkpt>
      <trkpt lat="42.98798" lon="0.79668">
        <ele>522.61</ele>
        <time>2019-04-28T09:01:32Z</time>
      </trkpt>
      <trkpt lat="42.98794" lon="0.79667">
        <ele>521.65</ele>
        <time>2019-04-28T09:01:33Z</time>
      </trkpt>
      <trkpt lat="42.9879" lon="0.79667">
        <ele>521.65</ele>
        <time>2019-04-28T09:01:34Z</time>
      </trkpt>
      <trkpt lat="42.98787" lon="0.79666">
        <ele>521.17</ele>
        <time>2019-04-28T09:01:35Z</time>
      </trkpt>
      <trkpt lat="42.98784" lon="0.79666">
        <ele>520.21</ele>
        <time>2019-04-28T09:01:36Z</time>
      </trkpt>
      <trkpt lat="42.98782" lon="0.79667">
        <ele>519.73</ele>
        <time>2019-04-28T09:01:37Z</time>
      </trkpt>
      <trkpt lat="42.98779" lon="0.79668">
        <ele>519.25</ele>
        <time>2019-04-28T09:01:38Z</time>
      </trkpt>
      <trkpt lat="42.98776" lon="0.79669">
        <ele>519.25</ele>
        <time>2019-04-28T09:01:39Z</time>
      </trkpt>
      <trkpt lat="42.98772" lon="0.79669">
        <ele>518.77</ele>
        <time>2019-04-28T09:01:40Z</time>
      </trkpt>
      <trkpt lat="42.98769" lon="0.79669">
        <ele>518.29</ele>
        <time>2019-04-28T09:01:41Z</time>
      </trkpt>
      <trkpt lat="42.98766" lon="0.7967">
        <ele>518.29</ele>
        <time>2019-04-28T09:01:42Z</time>
      </trkpt>
      <trkpt lat="42.98732" lon="0.79679">
        <ele>515.4</ele>
        <time>2019-04-28T09:01:54Z</time>
      </trkpt>
      <trkpt lat="42.98726" lon="0.79678">
        <ele>515.4</ele>
        <time>2019-04-28T09:02:05Z</time>
      </trkpt>
      <trkpt lat="42.9872" lon="0.79674">
        <ele>514.92</ele>
        <time>2019-04-28T09:02:17Z</time>
      </trkpt>
      <trkpt lat="42.98711" lon="0.79666">
        <ele>516.37</ele>
        <time>2019-04-28T09:02:32Z</time>
      </trkpt>
      <trkpt lat="42.98701" lon="0.79657">
        <ele>517.81</ele>
        <time>2019-04-28T09:02:46Z</time>
      </trkpt>
      <trkpt lat="42.987" lon="0.79657">
        <ele>517.81</ele>
        <time>2019-04-28T09:02:48Z</time>
      </trkpt>
      <trkpt lat="42.9868" lon="0.79653">
        <ele>515.88</ele>
        <time>2019-04-28T09:02:58Z</time>
      </trkpt>
      <trkpt lat="42.98669" lon="0.79649">
        <ele>515.88</ele>
        <time>2019-04-28T09:03:11Z</time>
      </trkpt>
      <trkpt lat="42.98662" lon="0.79646">
        <ele>515.4</ele>
        <time>2019-04-28T09:03:24Z</time>
      </trkpt>
      <trkpt lat="42.98662" lon="0.79635">
        <ele>515.4</ele>
        <time>2019-04-28T09:03:37Z</time>
      </trkpt>
      <trkpt lat="42.98662" lon="0.79635">
        <ele>514.92</ele>
        <time>2019-04-28T09:03:51Z</time>
      </trkpt>
      <trkpt lat="42.98665" lon="0.79628">
        <ele>516.37</ele>
        <time>2019-04-28T09:04:04Z</time>
      </trkpt>
      <trkpt lat="42.9867" lon="0.79617">
        <ele>519.25</ele>
        <time>2019-04-28T09:04:17Z</time>
      </trkpt>
      <trkpt lat="42.98674" lon="0.79603">
        <ele>521.65</ele>
        <time>2019-04-28T09:04:32Z</time>
      </trkpt>
      <trkpt lat="42.98671" lon="0.79602">
        <ele>521.65</ele>
        <time>2019-04-28T09:04:57Z</time>
      </trkpt>
      <trkpt lat="42.98674" lon="0.79596">
        <ele>522.13</ele>
        <time>2019-04-28T09:05:33Z</time>
      </trkpt>
      <trkpt lat="42.98672" lon="0.79603">
        <ele>522.13</ele>
        <time>2019-04-28T09:06:16Z</time>
      </trkpt>
      <trkpt lat="42.98672" lon="0.79607">
        <ele>522.61</ele>
        <time>2019-04-28T09:06:54Z</time>
      </trkpt>
      <trkpt lat="42.98674" lon="0.79604">
        <ele>522.61</ele>
        <time>2019-04-28T09:07:19Z</time>
      </trkpt>
      <trkpt lat="42.98672" lon="0.79604">
        <ele>522.61</ele>
        <time>2019-04-28T09:07:53Z</time>
      </trkpt>
      <trkpt lat="42.98666" lon="0.79599">
        <ele>523.09</ele>
        <time>2019-04-28T09:08:28Z</time>
      </trkpt>
      <trkpt lat="42.98667" lon="0.79592">
        <ele>523.09</ele>
        <time>2019-04-28T09:09:07Z</time>
      </trkpt>
      <trkpt lat="42.98669" lon="0.79592">
        <ele>523.09</ele>
        <time>2019-04-28T09:09:43Z</time>
      </trkpt>
      <trkpt lat="42.9867" lon="0.79596">
        <ele>523.58</ele>
        <time>2019-04-28T09:10:22Z</time>
      </trkpt>
      <trkpt lat="42.98669" lon="0.79593">
        <ele>524.06</ele>
        <time>2019-04-28T09:10:51Z</time>
      </trkpt>
      <trkpt lat="42.98669" lon="0.79593">
        <ele>524.06</ele>
        <time>2019-04-28T09:10:52Z</time>
      </trkpt>
      <trkpt lat="42.98658" lon="0.79577">
        <ele>519.25</ele>
        <time>2019-04-28T09:10:57Z</time>
      </trkpt>
      <trkpt lat="42.98648" lon="0.79563">
        <ele>515.88</ele>
        <time>2019-04-28T09:11:00Z</time>
      </trkpt>
      <trkpt lat="42.98637" lon="0.79542">
        <ele>513.48</ele>
        <time>2019-04-28T09:11:04Z</time>
      </trkpt>
      <trkpt lat="42.98635" lon="0.79536">
        <ele>512.52</ele>
        <time>2019-04-28T09:11:05Z</time>
      </trkpt>
      <trkpt lat="42.98628" lon="0.79521">
        <ele>510.12</ele>
        <time>2019-04-28T09:11:08Z</time>
      </trkpt>
      <trkpt lat="42.98617" lon="0.79501">
        <ele>507.71</ele>
        <time>2019-04-28T09:11:13Z</time>
      </trkpt>
      <trkpt lat="42.98609" lon="0.79479">
        <ele>505.31</ele>
        <time>2019-04-28T09:11:21Z</time>
      </trkpt>
      <trkpt lat="42.986" lon="0.79468">
        <ele>505.31</ele>
        <time>2019-04-28T09:11:31Z</time>
      </trkpt>
      <trkpt lat="42.98598" lon="0.79464">
        <ele>505.31</ele>
        <time>2019-04-28T09:11:35Z</time>
      </trkpt>
      <trkpt lat="42.98592" lon="0.79447">
        <ele>505.31</ele>
        <time>2019-04-28T09:11:42Z</time>
      </trkpt>
      <trkpt lat="42.98589" lon="0.79443">
        <ele>506.75</ele>
        <time>2019-04-28T09:11:45Z</time>
      </trkpt>
      <trkpt lat="42.98578" lon="0.79435">
        <ele>509.16</ele>
        <time>2019-04-28T09:11:55Z</time>
      </trkpt>
      <trkpt lat="42.98553" lon="0.79415">
        <ele>510.6</ele>
        <time>2019-04-28T09:12:11Z</time>
      </trkpt>
      <trkpt lat="42.98545" lon="0.79407">
        <ele>511.08</ele>
        <time>2019-04-28T09:12:16Z</time>
      </trkpt>
      <trkpt lat="42.98543" lon="0.79389">
        <ele>506.27</ele>
        <time>2019-04-28T09:12:20Z</time>
      </trkpt>
      <trkpt lat="42.98542" lon="0.79375">
        <ele>502.91</ele>
        <time>2019-04-28T09:12:23Z</time>
      </trkpt>
      <trkpt lat="42.98545" lon="0.7936">
        <ele>499.06</ele>
        <time>2019-04-28T09:12:26Z</time>
      </trkpt>
      <trkpt lat="42.98549" lon="0.79345">
        <ele>497.14</ele>
        <time>2019-04-28T09:12:29Z</time>
      </trkpt>
      <trkpt lat="42.9855" lon="0.7934">
        <ele>496.18</ele>
        <time>2019-04-28T09:12:31Z</time>
      </trkpt>
      <trkpt lat="42.9855" lon="0.79337">
        <ele>495.22</ele>
        <time>2019-04-28T09:12:33Z</time>
      </trkpt>
      <trkpt lat="42.98546" lon="0.79339">
        <ele>495.22</ele>
        <time>2019-04-28T09:12:51Z</time>
      </trkpt>
      <trkpt lat="42.98547" lon="0.79336">
        <ele>495.22</ele>
        <time>2019-04-28T09:13:12Z</time>
      </trkpt>
      <trkpt lat="42.98546" lon="0.79334">
        <ele>495.22</ele>
        <time>2019-04-28T09:13:19Z</time>
      </trkpt>
      <trkpt lat="42.98528" lon="0.79317">
        <ele>495.22</ele>
        <time>2019-04-28T09:13:31Z</time>
      </trkpt>
      <trkpt lat="42.98498" lon="0.79297">
        <ele>494.74</ele>
        <time>2019-04-28T09:13:42Z</time>
      </trkpt>
      <trkpt lat="42.9845" lon="0.79295">
        <ele>494.26</ele>
        <time>2019-04-28T09:13:52Z</time>
      </trkpt>
      <trkpt lat="42.98413" lon="0.79281">
        <ele>495.22</ele>
        <time>2019-04-28T09:14:02Z</time>
      </trkpt>
      <trkpt lat="42.98399" lon="0.79275">
        <ele>495.22</ele>
        <time>2019-04-28T09:14:06Z</time>
      </trkpt>
      <trkpt lat="42.98386" lon="0.79253">
        <ele>493.77</ele>
        <time>2019-04-28T09:14:10Z</time>
      </trkpt>
      <trkpt lat="42.98366" lon="0.79211">
        <ele>493.29</ele>
        <time>2019-04-28T09:14:21Z</time>
      </trkpt>
      <trkpt lat="42.98359" lon="0.79207">
        <ele>494.74</ele>
        <time>2019-04-28T09:14:23Z</time>
      </trkpt>
      <trkpt lat="42.98316" lon="0.79199">
        <ele>496.66</ele>
        <time>2019-04-28T09:14:37Z</time>
      </trkpt>
      <trkpt lat="42.98312" lon="0.79199">
        <ele>497.14</ele>
        <time>2019-04-28T09:14:39Z</time>
      </trkpt>
      <trkpt lat="42.9831" lon="0.79197">
        <ele>497.14</ele>
        <time>2019-04-28T09:14:40Z</time>
      </trkpt>
      <trkpt lat="42.98308" lon="0.79191">
        <ele>497.14</ele>
        <time>2019-04-28T09:14:42Z</time>
      </trkpt>
      <trkpt lat="42.98308" lon="0.79187">
        <ele>497.14</ele>
        <time>2019-04-28T09:14:43Z</time>
      </trkpt>
      <trkpt lat="42.98314" lon="0.79113">
        <ele>496.66</ele>
        <time>2019-04-28T09:14:58Z</time>
      </trkpt>
      <trkpt lat="42.98313" lon="0.7911">
        <ele>496.66</ele>
        <time>2019-04-28T09:14:59Z</time>
      </trkpt>
      <trkpt lat="42.98311" lon="0.79108">
        <ele>497.62</ele>
        <time>2019-04-28T09:15:00Z</time>
      </trkpt>
      <trkpt lat="42.98309" lon="0.79107">
        <ele>497.62</ele>
        <time>2019-04-28T09:15:01Z</time>
      </trkpt>
      <trkpt lat="42.98306" lon="0.79107">
        <ele>498.1</ele>
        <time>2019-04-28T09:15:02Z</time>
      </trkpt>
      <trkpt lat="42.98304" lon="0.79106">
        <ele>498.1</ele>
        <time>2019-04-28T09:15:03Z</time>
      </trkpt>
      <trkpt lat="42.98268" lon="0.79097">
        <ele>500.98</ele>
        <time>2019-04-28T09:15:18Z</time>
      </trkpt>
      <trkpt lat="42.98222" lon="0.79083">
        <ele>502.43</ele>
        <time>2019-04-28T09:15:35Z</time>
      </trkpt>
      <trkpt lat="42.98181" lon="0.79064">
        <ele>504.83</ele>
        <time>2019-04-28T09:15:51Z</time>
      </trkpt>
      <trkpt lat="42.98161" lon="0.79061">
        <ele>506.27</ele>
        <time>2019-04-28T09:16:06Z</time>
      </trkpt>
      <trkpt lat="42.98145" lon="0.79064">
        <ele>509.16</ele>
        <time>2019-04-28T09:16:17Z</time>
      </trkpt>
      <trkpt lat="42.98144" lon="0.79064">
        <ele>509.16</ele>
        <time>2019-04-28T09:16:18Z</time>
      </trkpt>
      <trkpt lat="42.98143" lon="0.79065">
        <ele>509.64</ele>
        <time>2019-04-28T09:16:19Z</time>
      </trkpt>
      <trkpt lat="42.98142" lon="0.79066">
        <ele>509.64</ele>
        <time>2019-04-28T09:16:20Z</time>
      </trkpt>
      <trkpt lat="42.9813" lon="0.79071">
        <ele>512.52</ele>
        <time>2019-04-28T09:16:29Z</time>
      </trkpt>
      <trkpt lat="42.98116" lon="0.79076">
        <ele>515.88</ele>
        <time>2019-04-28T09:16:40Z</time>
      </trkpt>
      <trkpt lat="42.98107" lon="0.79075">
        <ele>517.81</ele>
        <time>2019-04-28T09:16:47Z</time>
      </trkpt>
      <trkpt lat="42.98106" lon="0.79074">
        <ele>518.77</ele>
        <time>2019-04-28T09:16:48Z</time>
      </trkpt>
      <trkpt lat="42.98104" lon="0.79073">
        <ele>518.77</ele>
        <time>2019-04-28T09:16:49Z</time>
      </trkpt>
      <trkpt lat="42.98103" lon="0.79072">
        <ele>518.77</ele>
        <time>2019-04-28T09:16:50Z</time>
      </trkpt>
      <trkpt lat="42.98102" lon="0.79071">
        <ele>519.25</ele>
        <time>2019-04-28T09:16:51Z</time>
      </trkpt>
      <trkpt lat="42.98101" lon="0.79069">
        <ele>519.73</ele>
        <time>2019-04-28T09:16:52Z</time>
      </trkpt>
      <trkpt lat="42.981" lon="0.79068">
        <ele>519.73</ele>
        <time>2019-04-28T09:16:53Z</time>
      </trkpt>
      <trkpt lat="42.98099" lon="0.79067">
        <ele>520.21</ele>
        <time>2019-04-28T09:16:54Z</time>
      </trkpt>
      <trkpt lat="42.98098" lon="0.79066">
        <ele>520.21</ele>
        <time>2019-04-28T09:16:55Z</time>
      </trkpt>
      <trkpt lat="42.98097" lon="0.79064">
        <ele>520.69</ele>
        <time>2019-04-28T09:16:56Z</time>
      </trkpt>
      <trkpt lat="42.98095" lon="0.79062">
        <ele>520.69</ele>
        <time>2019-04-28T09:16:58Z</time>
      </trkpt>
      <trkpt lat="42.98092" lon="0.79054">
        <ele>521.65</ele>
        <time>2019-04-28T09:17:04Z</time>
      </trkpt>
      <trkpt lat="42.98091" lon="0.79052">
        <ele>521.65</ele>
        <time>2019-04-28T09:17:05Z</time>
      </trkpt>
      <trkpt lat="42.98091" lon="0.7905">
        <ele>522.13</ele>
        <time>2019-04-28T09:17:06Z</time>
      </trkpt>
      <trkpt lat="42.98089" lon="0.79036">
        <ele>523.58</ele>
        <time>2019-04-28T09:17:14Z</time>
      </trkpt>
      <trkpt lat="42.98079" lon="0.79005">
        <ele>525.98</ele>
        <time>2019-04-28T09:17:31Z</time>
      </trkpt>
      <trkpt lat="42.98068" lon="0.78963">
        <ele>527.42</ele>
        <time>2019-04-28T09:17:48Z</time>
      </trkpt>
      <trkpt lat="42.98061" lon="0.78921">
        <ele>529.82</ele>
        <time>2019-04-28T09:18:06Z</time>
      </trkpt>
      <trkpt lat="42.98061" lon="0.78919">
        <ele>529.82</ele>
        <time>2019-04-28T09:18:07Z</time>
      </trkpt>
      <trkpt lat="42.9805" lon="0.78886">
        <ele>532.23</ele>
        <time>2019-04-28T09:18:23Z</time>
      </trkpt>
      <trkpt lat="42.98048" lon="0.78853">
        <ele>534.63</ele>
        <time>2019-04-28T09:18:38Z</time>
      </trkpt>
      <trkpt lat="42.98075" lon="0.78842">
        <ele>536.55</ele>
        <time>2019-04-28T09:18:53Z</time>
      </trkpt>
      <trkpt lat="42.98112" lon="0.78826">
        <ele>538.96</ele>
        <time>2019-04-28T09:19:10Z</time>
      </trkpt>
      <trkpt lat="42.98163" lon="0.78821">
        <ele>540.88</ele>
        <time>2019-04-28T09:19:29Z</time>
      </trkpt>
      <trkpt lat="42.98206" lon="0.78797">
        <ele>541.84</ele>
        <time>2019-04-28T09:19:44Z</time>
      </trkpt>
      <trkpt lat="42.9821" lon="0.78799">
        <ele>540.4</ele>
        <time>2019-04-28T09:19:45Z</time>
      </trkpt>
      <trkpt lat="42.98271" lon="0.7883">
        <ele>537.51</ele>
        <time>2019-04-28T09:19:58Z</time>
      </trkpt>
      <trkpt lat="42.98275" lon="0.78828">
        <ele>537.51</ele>
        <time>2019-04-28T09:19:59Z</time>
      </trkpt>
      <trkpt lat="42.98279" lon="0.78825">
        <ele>537.51</ele>
        <time>2019-04-28T09:20:00Z</time>
      </trkpt>
      <trkpt lat="42.98282" lon="0.78821">
        <ele>536.55</ele>
        <time>2019-04-28T09:20:01Z</time>
      </trkpt>
      <trkpt lat="42.98285" lon="0.78818">
        <ele>536.55</ele>
        <time>2019-04-28T09:20:02Z</time>
      </trkpt>
      <trkpt lat="42.98298" lon="0.78802">
        <ele>539.92</ele>
        <time>2019-04-28T09:20:09Z</time>
      </trkpt>
      <trkpt lat="42.98305" lon="0.78763">
        <ele>542.32</ele>
        <time>2019-04-28T09:20:24Z</time>
      </trkpt>
      <trkpt lat="42.98305" lon="0.7872">
        <ele>545.2</ele>
        <time>2019-04-28T09:20:40Z</time>
      </trkpt>
      <trkpt lat="42.98309" lon="0.78677">
        <ele>547.13</ele>
        <time>2019-04-28T09:20:55Z</time>
      </trkpt>
      <trkpt lat="42.98312" lon="0.78615">
        <ele>549.05</ele>
        <time>2019-04-28T09:21:15Z</time>
      </trkpt>
      <trkpt lat="42.98318" lon="0.78575">
        <ele>550.97</ele>
        <time>2019-04-28T09:21:28Z</time>
      </trkpt>
      <trkpt lat="42.98338" lon="0.78569">
        <ele>551.93</ele>
        <time>2019-04-28T09:21:38Z</time>
      </trkpt>
      <trkpt lat="42.98358" lon="0.78583">
        <ele>555.3</ele>
        <time>2019-04-28T09:21:51Z</time>
      </trkpt>
      <trkpt lat="42.98371" lon="0.78595">
        <ele>558.18</ele>
        <time>2019-04-28T09:22:04Z</time>
      </trkpt>
      <trkpt lat="42.98374" lon="0.78596">
        <ele>558.66</ele>
        <time>2019-04-28T09:22:06Z</time>
      </trkpt>
      <trkpt lat="42.98376" lon="0.78596">
        <ele>558.66</ele>
        <time>2019-04-28T09:22:07Z</time>
      </trkpt>
      <trkpt lat="42.98377" lon="0.78595">
        <ele>558.66</ele>
        <time>2019-04-28T09:22:08Z</time>
      </trkpt>
      <trkpt lat="42.98379" lon="0.78595">
        <ele>559.14</ele>
        <time>2019-04-28T09:22:09Z</time>
      </trkpt>
      <trkpt lat="42.98381" lon="0.78595">
        <ele>559.14</ele>
        <time>2019-04-28T09:22:10Z</time>
      </trkpt>
      <trkpt lat="42.98397" lon="0.78593">
        <ele>561.07</ele>
        <time>2019-04-28T09:22:22Z</time>
      </trkpt>
      <trkpt lat="42.98398" lon="0.78594">
        <ele>561.07</ele>
        <time>2019-04-28T09:22:23Z</time>
      </trkpt>
      <trkpt lat="42.984" lon="0.78594">
        <ele>561.07</ele>
        <time>2019-04-28T09:22:24Z</time>
      </trkpt>
      <trkpt lat="42.98401" lon="0.78595">
        <ele>561.55</ele>
        <time>2019-04-28T09:22:25Z</time>
      </trkpt>
      <trkpt lat="42.98402" lon="0.78595">
        <ele>561.55</ele>
        <time>2019-04-28T09:22:26Z</time>
      </trkpt>
      <trkpt lat="42.98404" lon="0.78596">
        <ele>561.55</ele>
        <time>2019-04-28T09:22:27Z</time>
      </trkpt>
      <trkpt lat="42.98432" lon="0.78619">
        <ele>563.47</ele>
        <time>2019-04-28T09:22:44Z</time>
      </trkpt>
      <trkpt lat="42.98452" lon="0.78631">
        <ele>564.91</ele>
        <time>2019-04-28T09:22:58Z</time>
      </trkpt>
      <trkpt lat="42.98454" lon="0.7863">
        <ele>565.39</ele>
        <time>2019-04-28T09:22:59Z</time>
      </trkpt>
      <trkpt lat="42.98455" lon="0.78623">
        <ele>565.87</ele>
        <time>2019-04-28T09:23:02Z</time>
      </trkpt>
      <trkpt lat="42.9844" lon="0.78595">
        <ele>568.76</ele>
        <time>2019-04-28T09:23:18Z</time>
      </trkpt>
      <trkpt lat="42.98428" lon="0.7857">
        <ele>571.16</ele>
        <time>2019-04-28T09:23:31Z</time>
      </trkpt>
      <trkpt lat="42.98427" lon="0.78569">
        <ele>571.16</ele>
        <time>2019-04-28T09:23:32Z</time>
      </trkpt>
      <trkpt lat="42.9841" lon="0.78558">
        <ele>573.56</ele>
        <time>2019-04-28T09:23:46Z</time>
      </trkpt>
      <trkpt lat="42.98392" lon="0.78547">
        <ele>575.97</ele>
        <time>2019-04-28T09:24:00Z</time>
      </trkpt>
      <trkpt lat="42.98376" lon="0.78521">
        <ele>578.85</ele>
        <time>2019-04-28T09:24:15Z</time>
      </trkpt>
      <trkpt lat="42.98372" lon="0.78508">
        <ele>580.29</ele>
        <time>2019-04-28T09:24:22Z</time>
      </trkpt>
      <trkpt lat="42.98372" lon="0.78487">
        <ele>582.7</ele>
        <time>2019-04-28T09:24:35Z</time>
      </trkpt>
      <trkpt lat="42.98374" lon="0.78479">
        <ele>584.14</ele>
        <time>2019-04-28T09:24:40Z</time>
      </trkpt>
      <trkpt lat="42.98381" lon="0.78448">
        <ele>586.54</ele>
        <time>2019-04-28T09:24:55Z</time>
      </trkpt>
      <trkpt lat="42.9838" lon="0.78417">
        <ele>588.46</ele>
        <time>2019-04-28T09:25:08Z</time>
      </trkpt>
      <trkpt lat="42.98388" lon="0.78413">
        <ele>589.43</ele>
        <time>2019-04-28T09:25:14Z</time>
      </trkpt>
      <trkpt lat="42.98389" lon="0.78438">
        <ele>590.87</ele>
        <time>2019-04-28T09:25:29Z</time>
      </trkpt>
      <trkpt lat="42.98388" lon="0.78443">
        <ele>591.35</ele>
        <time>2019-04-28T09:25:32Z</time>
      </trkpt>
      <trkpt lat="42.98388" lon="0.78452">
        <ele>591.83</ele>
        <time>2019-04-28T09:25:37Z</time>
      </trkpt>
      <trkpt lat="42.98397" lon="0.7848">
        <ele>594.23</ele>
        <time>2019-04-28T09:25:52Z</time>
      </trkpt>
      <trkpt lat="42.98415" lon="0.78488">
        <ele>596.64</ele>
        <time>2019-04-28T09:26:06Z</time>
      </trkpt>
      <trkpt lat="42.98438" lon="0.78477">
        <ele>599.52</ele>
        <time>2019-04-28T09:26:23Z</time>
      </trkpt>
      <trkpt lat="42.98452" lon="0.78452">
        <ele>602.4</ele>
        <time>2019-04-28T09:26:39Z</time>
      </trkpt>
      <trkpt lat="42.98462" lon="0.78425">
        <ele>604.81</ele>
        <time>2019-04-28T09:26:56Z</time>
      </trkpt>
      <trkpt lat="42.98464" lon="0.78418">
        <ele>605.77</ele>
        <time>2019-04-28T09:27:00Z</time>
      </trkpt>
      <trkpt lat="42.98475" lon="0.78393">
        <ele>609.13</ele>
        <time>2019-04-28T09:27:16Z</time>
      </trkpt>
      <trkpt lat="42.98484" lon="0.7837">
        <ele>611.54</ele>
        <time>2019-04-28T09:27:29Z</time>
      </trkpt>
      <trkpt lat="42.98496" lon="0.78349">
        <ele>613.94</ele>
        <time>2019-04-28T09:27:43Z</time>
      </trkpt>
      <trkpt lat="42.98512" lon="0.7833">
        <ele>615.86</ele>
        <time>2019-04-28T09:27:55Z</time>
      </trkpt>
      <trkpt lat="42.9853" lon="0.78306">
        <ele>618.75</ele>
        <time>2019-04-28T09:28:07Z</time>
      </trkpt>
      <trkpt lat="42.98538" lon="0.78281">
        <ele>620.67</ele>
        <time>2019-04-28T09:28:21Z</time>
      </trkpt>
      <trkpt lat="42.98542" lon="0.78252">
        <ele>623.55</ele>
        <time>2019-04-28T09:28:36Z</time>
      </trkpt>
      <trkpt lat="42.98543" lon="0.7824">
        <ele>624.03</ele>
        <time>2019-04-28T09:28:41Z</time>
      </trkpt>
      <trkpt lat="42.98544" lon="0.78207">
        <ele>626.92</ele>
        <time>2019-04-28T09:28:56Z</time>
      </trkpt>
      <trkpt lat="42.98544" lon="0.78183">
        <ele>628.84</ele>
        <time>2019-04-28T09:29:08Z</time>
      </trkpt>
      <trkpt lat="42.98544" lon="0.7815">
        <ele>631.24</ele>
        <time>2019-04-28T09:29:24Z</time>
      </trkpt>
      <trkpt lat="42.98542" lon="0.78127">
        <ele>633.17</ele>
        <time>2019-04-28T09:29:36Z</time>
      </trkpt>
      <trkpt lat="42.98541" lon="0.78093">
        <ele>635.57</ele>
        <time>2019-04-28T09:29:52Z</time>
      </trkpt>
      <trkpt lat="42.98541" lon="0.78087">
        <ele>636.05</ele>
        <time>2019-04-28T09:29:55Z</time>
      </trkpt>
      <trkpt lat="42.98537" lon="0.78081">
        <ele>637.01</ele>
        <time>2019-04-28T09:30:01Z</time>
      </trkpt>
      <trkpt lat="42.98536" lon="0.78078">
        <ele>637.01</ele>
        <time>2019-04-28T09:30:03Z</time>
      </trkpt>
      <trkpt lat="42.98535" lon="0.78064">
        <ele>638.45</ele>
        <time>2019-04-28T09:30:11Z</time>
      </trkpt>
      <trkpt lat="42.98534" lon="0.7805">
        <ele>639.89</ele>
        <time>2019-04-28T09:30:20Z</time>
      </trkpt>
      <trkpt lat="42.98534" lon="0.78034">
        <ele>641.34</ele>
        <time>2019-04-28T09:30:27Z</time>
      </trkpt>
      <trkpt lat="42.98535" lon="0.78019">
        <ele>642.78</ele>
        <time>2019-04-28T09:30:34Z</time>
      </trkpt>
      <trkpt lat="42.98535" lon="0.7801">
        <ele>642.78</ele>
        <time>2019-04-28T09:30:38Z</time>
      </trkpt>
      <trkpt lat="42.98536" lon="0.77982">
        <ele>644.7</ele>
        <time>2019-04-28T09:30:52Z</time>
      </trkpt>
      <trkpt lat="42.98539" lon="0.77955">
        <ele>646.62</ele>
        <time>2019-04-28T09:31:05Z</time>
      </trkpt>
      <trkpt lat="42.9854" lon="0.77943">
        <ele>647.59</ele>
        <time>2019-04-28T09:31:11Z</time>
      </trkpt>
      <trkpt lat="42.98541" lon="0.77938">
        <ele>648.07</ele>
        <time>2019-04-28T09:31:14Z</time>
      </trkpt>
      <trkpt lat="42.98543" lon="0.77926">
        <ele>648.55</ele>
        <time>2019-04-28T09:31:20Z</time>
      </trkpt>
      <trkpt lat="42.98546" lon="0.77917">
        <ele>649.51</ele>
        <time>2019-04-28T09:31:25Z</time>
      </trkpt>
      <trkpt lat="42.98558" lon="0.77892">
        <ele>651.91</ele>
        <time>2019-04-28T09:31:40Z</time>
      </trkpt>
      <trkpt lat="42.98567" lon="0.77875">
        <ele>653.83</ele>
        <time>2019-04-28T09:31:53Z</time>
      </trkpt>
      <trkpt lat="42.98571" lon="0.77866">
        <ele>655.28</ele>
        <time>2019-04-28T09:31:59Z</time>
      </trkpt>
      <trkpt lat="42.9858" lon="0.77834">
        <ele>657.68</ele>
        <time>2019-04-28T09:32:17Z</time>
      </trkpt>
      <trkpt lat="42.98587" lon="0.778">
        <ele>660.08</ele>
        <time>2019-04-28T09:32:33Z</time>
      </trkpt>
      <trkpt lat="42.98588" lon="0.77794">
        <ele>660.56</ele>
        <time>2019-04-28T09:32:36Z</time>
      </trkpt>
      <trkpt lat="42.98585" lon="0.77766">
        <ele>662.97</ele>
        <time>2019-04-28T09:32:50Z</time>
      </trkpt>
      <trkpt lat="42.98583" lon="0.77757">
        <ele>664.41</ele>
        <time>2019-04-28T09:32:57Z</time>
      </trkpt>
      <trkpt lat="42.98589" lon="0.77746">
        <ele>665.37</ele>
        <time>2019-04-28T09:33:03Z</time>
      </trkpt>
      <trkpt lat="42.98608" lon="0.77753">
        <ele>667.29</ele>
        <time>2019-04-28T09:33:19Z</time>
      </trkpt>
      <trkpt lat="42.98624" lon="0.77764">
        <ele>668.73</ele>
        <time>2019-04-28T09:33:31Z</time>
      </trkpt>
      <trkpt lat="42.98642" lon="0.77784">
        <ele>672.58</ele>
        <time>2019-04-28T09:33:48Z</time>
      </trkpt>
      <trkpt lat="42.98658" lon="0.77801">
        <ele>674.02</ele>
        <time>2019-04-28T09:34:03Z</time>
      </trkpt>
      <trkpt lat="42.98672" lon="0.77821">
        <ele>675.94</ele>
        <time>2019-04-28T09:34:17Z</time>
      </trkpt>
      <trkpt lat="42.98686" lon="0.77846">
        <ele>677.87</ele>
        <time>2019-04-28T09:34:33Z</time>
      </trkpt>
      <trkpt lat="42.98689" lon="0.77857">
        <ele>678.83</ele>
        <time>2019-04-28T09:34:39Z</time>
      </trkpt>
      <trkpt lat="42.98691" lon="0.77866">
        <ele>679.31</ele>
        <time>2019-04-28T09:34:44Z</time>
      </trkpt>
      <trkpt lat="42.987" lon="0.77894">
        <ele>680.75</ele>
        <time>2019-04-28T09:34:58Z</time>
      </trkpt>
      <trkpt lat="42.98719" lon="0.77925">
        <ele>681.71</ele>
        <time>2019-04-28T09:35:13Z</time>
      </trkpt>
      <trkpt lat="42.98729" lon="0.77935">
        <ele>681.71</ele>
        <time>2019-04-28T09:35:20Z</time>
      </trkpt>
      <trkpt lat="42.98757" lon="0.77956">
        <ele>681.23</ele>
        <time>2019-04-28T09:35:35Z</time>
      </trkpt>
      <trkpt lat="42.9878" lon="0.77955">
        <ele>681.23</ele>
        <time>2019-04-28T09:35:46Z</time>
      </trkpt>
      <trkpt lat="42.98798" lon="0.77945">
        <ele>683.15</ele>
        <time>2019-04-28T09:35:56Z</time>
      </trkpt>
      <trkpt lat="42.98824" lon="0.77936">
        <ele>684.6</ele>
        <time>2019-04-28T09:36:10Z</time>
      </trkpt>
      <trkpt lat="42.98853" lon="0.77933">
        <ele>685.08</ele>
        <time>2019-04-28T09:36:23Z</time>
      </trkpt>
      <trkpt lat="42.98881" lon="0.77927">
        <ele>686.04</ele>
        <time>2019-04-28T09:36:35Z</time>
      </trkpt>
      <trkpt lat="42.98912" lon="0.7792">
        <ele>687.48</ele>
        <time>2019-04-28T09:36:47Z</time>
      </trkpt>
      <trkpt lat="42.98938" lon="0.77912">
        <ele>688.92</ele>
        <time>2019-04-28T09:37:01Z</time>
      </trkpt>
      <trkpt lat="42.98961" lon="0.77912">
        <ele>689.88</ele>
        <time>2019-04-28T09:37:13Z</time>
      </trkpt>
      <trkpt lat="42.98987" lon="0.77935">
        <ele>691.33</ele>
        <time>2019-04-28T09:37:26Z</time>
      </trkpt>
      <trkpt lat="42.99016" lon="0.77944">
        <ele>693.25</ele>
        <time>2019-04-28T09:37:40Z</time>
      </trkpt>
      <trkpt lat="42.99027" lon="0.77972">
        <ele>694.69</ele>
        <time>2019-04-28T09:37:52Z</time>
      </trkpt>
      <trkpt lat="42.99041" lon="0.7801">
        <ele>696.61</ele>
        <time>2019-04-28T09:38:06Z</time>
      </trkpt>
      <trkpt lat="42.99065" lon="0.7803">
        <ele>698.53</ele>
        <time>2019-04-28T09:38:19Z</time>
      </trkpt>
      <trkpt lat="42.99099" lon="0.78038">
        <ele>700.46</ele>
        <time>2019-04-28T09:38:33Z</time>
      </trkpt>
      <trkpt lat="42.99121" lon="0.78049">
        <ele>701.9</ele>
        <time>2019-04-28T09:38:44Z</time>
      </trkpt>
      <trkpt lat="42.99135" lon="0.78082">
        <ele>702.38</ele>
        <time>2019-04-28T09:38:57Z</time>
      </trkpt>
      <trkpt lat="42.99137" lon="0.78084">
        <ele>702.86</ele>
        <time>2019-04-28T09:38:58Z</time>
      </trkpt>
      <trkpt lat="42.99137" lon="0.78087">
        <ele>702.86</ele>
        <time>2019-04-28T09:38:59Z</time>
      </trkpt>
      <trkpt lat="42.99138" lon="0.78089">
        <ele>702.86</ele>
        <time>2019-04-28T09:39:00Z</time>
      </trkpt>
      <trkpt lat="42.99138" lon="0.78091">
        <ele>702.86</ele>
        <time>2019-04-28T09:39:01Z</time>
      </trkpt>
      <trkpt lat="42.99149" lon="0.78119">
        <ele>703.82</ele>
        <time>2019-04-28T09:39:12Z</time>
      </trkpt>
      <trkpt lat="42.99158" lon="0.78137">
        <ele>705.26</ele>
        <time>2019-04-28T09:39:20Z</time>
      </trkpt>
      <trkpt lat="42.9916" lon="0.78139">
        <ele>705.26</ele>
        <time>2019-04-28T09:39:21Z</time>
      </trkpt>
      <trkpt lat="42.99161" lon="0.78141">
        <ele>705.26</ele>
        <time>2019-04-28T09:39:22Z</time>
      </trkpt>
      <trkpt lat="42.99162" lon="0.78143">
        <ele>705.26</ele>
        <time>2019-04-28T09:39:23Z</time>
      </trkpt>
      <trkpt lat="42.99172" lon="0.78161">
        <ele>706.23</ele>
        <time>2019-04-28T09:39:31Z</time>
      </trkpt>
      <trkpt lat="42.99182" lon="0.78192">
        <ele>708.63</ele>
        <time>2019-04-28T09:39:45Z</time>
      </trkpt>
      <trkpt lat="42.99183" lon="0.78192">
        <ele>708.63</ele>
        <time>2019-04-28T09:39:46Z</time>
      </trkpt>
      <trkpt lat="42.99184" lon="0.78192">
        <ele>708.63</ele>
        <time>2019-04-28T09:39:47Z</time>
      </trkpt>
      <trkpt lat="42.99186" lon="0.7819">
        <ele>709.11</ele>
        <time>2019-04-28T09:39:48Z</time>
      </trkpt>
      <trkpt lat="42.99187" lon="0.78188">
        <ele>709.11</ele>
        <time>2019-04-28T09:39:49Z</time>
      </trkpt>
      <trkpt lat="42.99187" lon="0.78187">
        <ele>709.59</ele>
        <time>2019-04-28T09:39:50Z</time>
      </trkpt>
      <trkpt lat="42.99188" lon="0.78185">
        <ele>709.59</ele>
        <time>2019-04-28T09:39:51Z</time>
      </trkpt>
      <trkpt lat="42.99189" lon="0.78184">
        <ele>709.59</ele>
        <time>2019-04-28T09:39:52Z</time>
      </trkpt>
      <trkpt lat="42.99188" lon="0.78168">
        <ele>711.99</ele>
        <time>2019-04-28T09:40:04Z</time>
      </trkpt>
      <trkpt lat="42.9919" lon="0.78164">
        <ele>712.47</ele>
        <time>2019-04-28T09:40:17Z</time>
      </trkpt>
      <trkpt lat="42.9919" lon="0.78156">
        <ele>712.95</ele>
        <time>2019-04-28T09:40:40Z</time>
      </trkpt>
      <trkpt lat="42.99189" lon="0.78155">
        <ele>712.95</ele>
        <time>2019-04-28T09:40:41Z</time>
      </trkpt>
      <trkpt lat="42.99189" lon="0.78154">
        <ele>713.44</ele>
        <time>2019-04-28T09:40:42Z</time>
      </trkpt>
      <trkpt lat="42.99186" lon="0.78131">
        <ele>715.36</ele>
        <time>2019-04-28T09:40:55Z</time>
      </trkpt>
      <trkpt lat="42.99185" lon="0.7813">
        <ele>715.36</ele>
        <time>2019-04-28T09:40:56Z</time>
      </trkpt>
      <trkpt lat="42.99185" lon="0.78128">
        <ele>715.36</ele>
        <time>2019-04-28T09:40:57Z</time>
      </trkpt>
      <trkpt lat="42.99184" lon="0.78127">
        <ele>715.84</ele>
        <time>2019-04-28T09:40:58Z</time>
      </trkpt>
      <trkpt lat="42.99184" lon="0.78125">
        <ele>715.84</ele>
        <time>2019-04-28T09:40:59Z</time>
      </trkpt>
      <trkpt lat="42.9918" lon="0.781">
        <ele>718.72</ele>
        <time>2019-04-28T09:41:14Z</time>
      </trkpt>
      <trkpt lat="42.9918" lon="0.78095">
        <ele>718.72</ele>
        <time>2019-04-28T09:41:17Z</time>
      </trkpt>
      <trkpt lat="42.99177" lon="0.78064">
        <ele>721.13</ele>
        <time>2019-04-28T09:41:32Z</time>
      </trkpt>
      <trkpt lat="42.99176" lon="0.78034">
        <ele>723.53</ele>
        <time>2019-04-28T09:41:46Z</time>
      </trkpt>
      <trkpt lat="42.99168" lon="0.78012">
        <ele>725.93</ele>
        <time>2019-04-28T09:42:01Z</time>
      </trkpt>
      <trkpt lat="42.99167" lon="0.78011">
        <ele>726.41</ele>
        <time>2019-04-28T09:42:02Z</time>
      </trkpt>
      <trkpt lat="42.99166" lon="0.7801">
        <ele>726.41</ele>
        <time>2019-04-28T09:42:03Z</time>
      </trkpt>
      <trkpt lat="42.99152" lon="0.77993">
        <ele>727.37</ele>
        <time>2019-04-28T09:42:15Z</time>
      </trkpt>
      <trkpt lat="42.99151" lon="0.77992">
        <ele>727.37</ele>
        <time>2019-04-28T09:42:16Z</time>
      </trkpt>
      <trkpt lat="42.99149" lon="0.77991">
        <ele>728.34</ele>
        <time>2019-04-28T09:42:17Z</time>
      </trkpt>
      <trkpt lat="42.99148" lon="0.7799">
        <ele>728.34</ele>
        <time>2019-04-28T09:42:18Z</time>
      </trkpt>
      <trkpt lat="42.99146" lon="0.7799">
        <ele>728.34</ele>
        <time>2019-04-28T09:42:19Z</time>
      </trkpt>
      <trkpt lat="42.9913" lon="0.7798">
        <ele>730.74</ele>
        <time>2019-04-28T09:42:32Z</time>
      </trkpt>
      <trkpt lat="42.99112" lon="0.77963">
        <ele>732.66</ele>
        <time>2019-04-28T09:42:46Z</time>
      </trkpt>
      <trkpt lat="42.99098" lon="0.77948">
        <ele>735.07</ele>
        <time>2019-04-28T09:42:59Z</time>
      </trkpt>
      <trkpt lat="42.99097" lon="0.77945">
        <ele>735.07</ele>
        <time>2019-04-28T09:43:01Z</time>
      </trkpt>
      <trkpt lat="42.99096" lon="0.77943">
        <ele>735.07</ele>
        <time>2019-04-28T09:43:02Z</time>
      </trkpt>
      <trkpt lat="42.99096" lon="0.7794">
        <ele>735.55</ele>
        <time>2019-04-28T09:43:03Z</time>
      </trkpt>
      <trkpt lat="42.9909" lon="0.77921">
        <ele>737.47</ele>
        <time>2019-04-28T09:43:13Z</time>
      </trkpt>
      <trkpt lat="42.9909" lon="0.77918">
        <ele>737.47</ele>
        <time>2019-04-28T09:43:14Z</time>
      </trkpt>
      <trkpt lat="42.99086" lon="0.77897">
        <ele>739.39</ele>
        <time>2019-04-28T09:43:26Z</time>
      </trkpt>
      <trkpt lat="42.99078" lon="0.77869">
        <ele>742.28</ele>
        <time>2019-04-28T09:43:40Z</time>
      </trkpt>
      <trkpt lat="42.99076" lon="0.77854">
        <ele>742.76</ele>
        <time>2019-04-28T09:43:47Z</time>
      </trkpt>
      <trkpt lat="42.99075" lon="0.77852">
        <ele>742.76</ele>
        <time>2019-04-28T09:43:48Z</time>
      </trkpt>
      <trkpt lat="42.99068" lon="0.77842">
        <ele>744.2</ele>
        <time>2019-04-28T09:43:55Z</time>
      </trkpt>
      <trkpt lat="42.99066" lon="0.77841">
        <ele>744.68</ele>
        <time>2019-04-28T09:43:56Z</time>
      </trkpt>
      <trkpt lat="42.99065" lon="0.7784">
        <ele>744.68</ele>
        <time>2019-04-28T09:43:57Z</time>
      </trkpt>
      <trkpt lat="42.99064" lon="0.77839">
        <ele>744.68</ele>
        <time>2019-04-28T09:43:58Z</time>
      </trkpt>
      <trkpt lat="42.99062" lon="0.77838">
        <ele>744.68</ele>
        <time>2019-04-28T09:43:59Z</time>
      </trkpt>
      <trkpt lat="42.99061" lon="0.77837">
        <ele>745.16</ele>
        <time>2019-04-28T09:44:00Z</time>
      </trkpt>
      <trkpt lat="42.9906" lon="0.77836">
        <ele>745.16</ele>
        <time>2019-04-28T09:44:01Z</time>
      </trkpt>
      <trkpt lat="42.99059" lon="0.77835">
        <ele>745.16</ele>
        <time>2019-04-28T09:44:02Z</time>
      </trkpt>
      <trkpt lat="42.99058" lon="0.77834">
        <ele>745.64</ele>
        <time>2019-04-28T09:44:03Z</time>
      </trkpt>
      <trkpt lat="42.99056" lon="0.77833">
        <ele>745.64</ele>
        <time>2019-04-28T09:44:04Z</time>
      </trkpt>
      <trkpt lat="42.99055" lon="0.77832">
        <ele>745.64</ele>
        <time>2019-04-28T09:44:05Z</time>
      </trkpt>
      <trkpt lat="42.99054" lon="0.77831">
        <ele>745.64</ele>
        <time>2019-04-28T09:44:06Z</time>
      </trkpt>
      <trkpt lat="42.99053" lon="0.77829">
        <ele>746.12</ele>
        <time>2019-04-28T09:44:07Z</time>
      </trkpt>
      <trkpt lat="42.99037" lon="0.77812">
        <ele>747.56</ele>
        <time>2019-04-28T09:44:21Z</time>
      </trkpt>
      <trkpt lat="42.99034" lon="0.77804">
        <ele>748.04</ele>
        <time>2019-04-28T09:44:26Z</time>
      </trkpt>
      <trkpt lat="42.99033" lon="0.778">
        <ele>749</ele>
        <time>2019-04-28T09:44:29Z</time>
      </trkpt>
      <trkpt lat="42.99032" lon="0.77799">
        <ele>748.52</ele>
        <time>2019-04-28T09:44:30Z</time>
      </trkpt>
      <trkpt lat="42.99031" lon="0.77797">
        <ele>748.52</ele>
        <time>2019-04-28T09:44:31Z</time>
      </trkpt>
      <trkpt lat="42.9903" lon="0.77795">
        <ele>749</ele>
        <time>2019-04-28T09:44:32Z</time>
      </trkpt>
      <trkpt lat="42.99028" lon="0.77792">
        <ele>749</ele>
        <time>2019-04-28T09:44:34Z</time>
      </trkpt>
      <trkpt lat="42.99027" lon="0.77791">
        <ele>749.49</ele>
        <time>2019-04-28T09:44:35Z</time>
      </trkpt>
      <trkpt lat="42.99025" lon="0.77789">
        <ele>749.49</ele>
        <time>2019-04-28T09:44:36Z</time>
      </trkpt>
      <trkpt lat="42.99023" lon="0.77788">
        <ele>749.49</ele>
        <time>2019-04-28T09:44:37Z</time>
      </trkpt>
      <trkpt lat="42.99022" lon="0.77786">
        <ele>749.97</ele>
        <time>2019-04-28T09:44:38Z</time>
      </trkpt>
      <trkpt lat="42.9902" lon="0.77785">
        <ele>749.97</ele>
        <time>2019-04-28T09:44:39Z</time>
      </trkpt>
      <trkpt lat="42.99018" lon="0.77784">
        <ele>750.45</ele>
        <time>2019-04-28T09:44:40Z</time>
      </trkpt>
      <trkpt lat="42.99007" lon="0.77779">
        <ele>751.41</ele>
        <time>2019-04-28T09:44:47Z</time>
      </trkpt>
      <trkpt lat="42.99006" lon="0.77779">
        <ele>751.41</ele>
        <time>2019-04-28T09:44:48Z</time>
      </trkpt>
      <trkpt lat="42.98989" lon="0.77771">
        <ele>752.85</ele>
        <time>2019-04-28T09:45:00Z</time>
      </trkpt>
      <trkpt lat="42.9899" lon="0.77761">
        <ele>753.81</ele>
        <time>2019-04-28T09:45:05Z</time>
      </trkpt>
      <trkpt lat="42.98992" lon="0.77761">
        <ele>753.81</ele>
        <time>2019-04-28T09:45:06Z</time>
      </trkpt>
      <trkpt lat="42.98993" lon="0.77761">
        <ele>753.81</ele>
        <time>2019-04-28T09:45:07Z</time>
      </trkpt>
      <trkpt lat="42.98994" lon="0.77761">
        <ele>753.81</ele>
        <time>2019-04-28T09:45:08Z</time>
      </trkpt>
      <trkpt lat="42.98996" lon="0.77761">
        <ele>753.81</ele>
        <time>2019-04-28T09:45:09Z</time>
      </trkpt>
      <trkpt lat="42.98997" lon="0.77761">
        <ele>753.81</ele>
        <time>2019-04-28T09:45:10Z</time>
      </trkpt>
      <trkpt lat="42.99017" lon="0.77768">
        <ele>756.21</ele>
        <time>2019-04-28T09:45:27Z</time>
      </trkpt>
      <trkpt lat="42.9902" lon="0.77771">
        <ele>756.69</ele>
        <time>2019-04-28T09:45:31Z</time>
      </trkpt>
      <trkpt lat="42.99021" lon="0.77772">
        <ele>756.69</ele>
        <time>2019-04-28T09:45:32Z</time>
      </trkpt>
      <trkpt lat="42.99022" lon="0.77773">
        <ele>757.18</ele>
        <time>2019-04-28T09:45:33Z</time>
      </trkpt>
      <trkpt lat="42.99023" lon="0.77774">
        <ele>757.18</ele>
        <time>2019-04-28T09:45:34Z</time>
      </trkpt>
      <trkpt lat="42.99024" lon="0.77775">
        <ele>757.18</ele>
        <time>2019-04-28T09:45:35Z</time>
      </trkpt>
      <trkpt lat="42.99034" lon="0.7779">
        <ele>758.62</ele>
        <time>2019-04-28T09:45:46Z</time>
      </trkpt>
      <trkpt lat="42.99035" lon="0.77792">
        <ele>758.62</ele>
        <time>2019-04-28T09:45:47Z</time>
      </trkpt>
      <trkpt lat="42.99036" lon="0.77793">
        <ele>758.62</ele>
        <time>2019-04-28T09:45:48Z</time>
      </trkpt>
      <trkpt lat="42.99037" lon="0.77795">
        <ele>759.1</ele>
        <time>2019-04-28T09:45:49Z</time>
      </trkpt>
      <trkpt lat="42.99038" lon="0.77796">
        <ele>759.1</ele>
        <time>2019-04-28T09:45:50Z</time>
      </trkpt>
      <trkpt lat="42.99039" lon="0.77797">
        <ele>759.1</ele>
        <time>2019-04-28T09:45:51Z</time>
      </trkpt>
      <trkpt lat="42.99042" lon="0.77798">
        <ele>759.58</ele>
        <time>2019-04-28T09:45:53Z</time>
      </trkpt>
      <trkpt lat="42.99043" lon="0.77798">
        <ele>759.58</ele>
        <time>2019-04-28T09:45:54Z</time>
      </trkpt>
      <trkpt lat="42.99057" lon="0.77806">
        <ele>760.54</ele>
        <time>2019-04-28T09:46:04Z</time>
      </trkpt>
      <trkpt lat="42.99059" lon="0.77806">
        <ele>761.5</ele>
        <time>2019-04-28T09:46:05Z</time>
      </trkpt>
      <trkpt lat="42.99076" lon="0.77806">
        <ele>763.9</ele>
        <time>2019-04-28T09:46:19Z</time>
      </trkpt>
      <trkpt lat="42.99079" lon="0.77808">
        <ele>764.39</ele>
        <time>2019-04-28T09:46:22Z</time>
      </trkpt>
      <trkpt lat="42.99083" lon="0.77812">
        <ele>764.87</ele>
        <time>2019-04-28T09:46:27Z</time>
      </trkpt>
      <trkpt lat="42.99084" lon="0.77813">
        <ele>764.87</ele>
        <time>2019-04-28T09:46:28Z</time>
      </trkpt>
      <trkpt lat="42.99094" lon="0.77833">
        <ele>766.79</ele>
        <time>2019-04-28T09:46:44Z</time>
      </trkpt>
      <trkpt lat="42.99095" lon="0.77835">
        <ele>766.79</ele>
        <time>2019-04-28T09:46:45Z</time>
      </trkpt>
      <trkpt lat="42.99101" lon="0.77833">
        <ele>767.75</ele>
        <time>2019-04-28T09:46:51Z</time>
      </trkpt>
      <trkpt lat="42.99103" lon="0.77828">
        <ele>768.23</ele>
        <time>2019-04-28T09:46:56Z</time>
      </trkpt>
      <trkpt lat="42.99098" lon="0.77818">
        <ele>769.19</ele>
        <time>2019-04-28T09:47:04Z</time>
      </trkpt>
      <trkpt lat="42.99093" lon="0.77799">
        <ele>772.08</ele>
        <time>2019-04-28T09:47:19Z</time>
      </trkpt>
      <trkpt lat="42.99093" lon="0.77786">
        <ele>773.04</ele>
        <time>2019-04-28T09:47:34Z</time>
      </trkpt>
      <trkpt lat="42.99093" lon="0.77789">
        <ele>773.52</ele>
        <time>2019-04-28T09:48:00Z</time>
      </trkpt>
      <trkpt lat="42.99093" lon="0.77784">
        <ele>773.52</ele>
        <time>2019-04-28T09:48:06Z</time>
      </trkpt>
      <trkpt lat="42.99085" lon="0.77777">
        <ele>774.96</ele>
        <time>2019-04-28T09:48:16Z</time>
      </trkpt>
      <trkpt lat="42.99071" lon="0.77769">
        <ele>776.88</ele>
        <time>2019-04-28T09:48:29Z</time>
      </trkpt>
      <trkpt lat="42.99069" lon="0.77767">
        <ele>777.36</ele>
        <time>2019-04-28T09:48:31Z</time>
      </trkpt>
      <trkpt lat="42.99065" lon="0.77762">
        <ele>777.84</ele>
        <time>2019-04-28T09:48:35Z</time>
      </trkpt>
      <trkpt lat="42.99063" lon="0.77758">
        <ele>778.32</ele>
        <time>2019-04-28T09:48:38Z</time>
      </trkpt>
      <trkpt lat="42.99064" lon="0.77751">
        <ele>778.81</ele>
        <time>2019-04-28T09:48:43Z</time>
      </trkpt>
      <trkpt lat="42.99076" lon="0.77753">
        <ele>779.77</ele>
        <time>2019-04-28T09:48:54Z</time>
      </trkpt>
      <trkpt lat="42.99084" lon="0.77756">
        <ele>780.73</ele>
        <time>2019-04-28T09:49:02Z</time>
      </trkpt>
      <trkpt lat="42.99097" lon="0.77733">
        <ele>784.09</ele>
        <time>2019-04-28T09:49:18Z</time>
      </trkpt>
      <trkpt lat="42.9911" lon="0.77707">
        <ele>786.98</ele>
        <time>2019-04-28T09:49:34Z</time>
      </trkpt>
      <trkpt lat="42.99122" lon="0.77671">
        <ele>787.94</ele>
        <time>2019-04-28T09:49:51Z</time>
      </trkpt>
      <trkpt lat="42.99124" lon="0.77668">
        <ele>787.94</ele>
        <time>2019-04-28T09:49:53Z</time>
      </trkpt>
      <trkpt lat="42.99125" lon="0.77667">
        <ele>787.94</ele>
        <time>2019-04-28T09:49:54Z</time>
      </trkpt>
      <trkpt lat="42.99126" lon="0.77666">
        <ele>787.94</ele>
        <time>2019-04-28T09:49:55Z</time>
      </trkpt>
      <trkpt lat="42.99134" lon="0.77659">
        <ele>787.46</ele>
        <time>2019-04-28T09:50:07Z</time>
      </trkpt>
      <trkpt lat="42.99136" lon="0.77655">
        <ele>787.46</ele>
        <time>2019-04-28T09:50:15Z</time>
      </trkpt>
      <trkpt lat="42.99137" lon="0.77654">
        <ele>787.46</ele>
        <time>2019-04-28T09:50:16Z</time>
      </trkpt>
      <trkpt lat="42.99139" lon="0.77651">
        <ele>786.5</ele>
        <time>2019-04-28T09:50:17Z</time>
      </trkpt>
      <trkpt lat="42.99141" lon="0.77649">
        <ele>786.02</ele>
        <time>2019-04-28T09:50:18Z</time>
      </trkpt>
      <trkpt lat="42.99144" lon="0.77647">
        <ele>785.05</ele>
        <time>2019-04-28T09:50:19Z</time>
      </trkpt>
      <trkpt lat="42.99147" lon="0.77647">
        <ele>785.05</ele>
        <time>2019-04-28T09:50:20Z</time>
      </trkpt>
      <trkpt lat="42.9915" lon="0.77647">
        <ele>784.57</ele>
        <time>2019-04-28T09:50:21Z</time>
      </trkpt>
      <trkpt lat="42.99153" lon="0.77648">
        <ele>784.09</ele>
        <time>2019-04-28T09:50:22Z</time>
      </trkpt>
      <trkpt lat="42.99155" lon="0.77649">
        <ele>783.61</ele>
        <time>2019-04-28T09:50:23Z</time>
      </trkpt>
      <trkpt lat="42.99171" lon="0.7765">
        <ele>783.61</ele>
        <time>2019-04-28T09:50:34Z</time>
      </trkpt>
      <trkpt lat="42.99173" lon="0.77651">
        <ele>785.05</ele>
        <time>2019-04-28T09:50:36Z</time>
      </trkpt>
      <trkpt lat="42.99182" lon="0.77653">
        <ele>785.53</ele>
        <time>2019-04-28T09:50:49Z</time>
      </trkpt>
      <trkpt lat="42.99186" lon="0.77656">
        <ele>785.53</ele>
        <time>2019-04-28T09:51:03Z</time>
      </trkpt>
      <trkpt lat="42.99194" lon="0.7766">
        <ele>786.5</ele>
        <time>2019-04-28T09:51:14Z</time>
      </trkpt>
      <trkpt lat="42.9921" lon="0.77664">
        <ele>789.38</ele>
        <time>2019-04-28T09:51:28Z</time>
      </trkpt>
      <trkpt lat="42.9922" lon="0.7767">
        <ele>790.82</ele>
        <time>2019-04-28T09:51:36Z</time>
      </trkpt>
      <trkpt lat="42.99223" lon="0.77674">
        <ele>792.26</ele>
        <time>2019-04-28T09:51:40Z</time>
      </trkpt>
      <trkpt lat="42.99238" lon="0.77685">
        <ele>795.63</ele>
        <time>2019-04-28T09:51:54Z</time>
      </trkpt>
      <trkpt lat="42.9925" lon="0.77694">
        <ele>797.55</ele>
        <time>2019-04-28T09:52:06Z</time>
      </trkpt>
      <trkpt lat="42.99267" lon="0.77704">
        <ele>798.99</ele>
        <time>2019-04-28T09:52:20Z</time>
      </trkpt>
      <trkpt lat="42.9928" lon="0.77725">
        <ele>800.44</ele>
        <time>2019-04-28T09:52:33Z</time>
      </trkpt>
      <trkpt lat="42.99296" lon="0.77753">
        <ele>800.92</ele>
        <time>2019-04-28T09:52:45Z</time>
      </trkpt>
      <trkpt lat="42.99312" lon="0.77787">
        <ele>801.4</ele>
        <time>2019-04-28T09:52:57Z</time>
      </trkpt>
      <trkpt lat="42.99334" lon="0.77823">
        <ele>798.99</ele>
        <time>2019-04-28T09:53:07Z</time>
      </trkpt>
      <trkpt lat="42.99337" lon="0.77828">
        <ele>798.51</ele>
        <time>2019-04-28T09:53:08Z</time>
      </trkpt>
      <trkpt lat="42.9934" lon="0.77833">
        <ele>798.51</ele>
        <time>2019-04-28T09:53:09Z</time>
      </trkpt>
      <trkpt lat="42.99363" lon="0.77862">
        <ele>798.51</ele>
        <time>2019-04-28T09:53:19Z</time>
      </trkpt>
      <trkpt lat="42.99383" lon="0.7788">
        <ele>798.51</ele>
        <time>2019-04-28T09:53:29Z</time>
      </trkpt>
      <trkpt lat="42.99408" lon="0.77892">
        <ele>798.03</ele>
        <time>2019-04-28T09:53:40Z</time>
      </trkpt>
      <trkpt lat="42.99425" lon="0.77899">
        <ele>797.07</ele>
        <time>2019-04-28T09:53:45Z</time>
      </trkpt>
      <trkpt lat="42.99468" lon="0.77917">
        <ele>796.59</ele>
        <time>2019-04-28T09:53:55Z</time>
      </trkpt>
      <trkpt lat="42.99473" lon="0.77919">
        <ele>796.11</ele>
        <time>2019-04-28T09:53:56Z</time>
      </trkpt>
      <trkpt lat="42.99488" lon="0.77928">
        <ele>795.15</ele>
        <time>2019-04-28T09:53:59Z</time>
      </trkpt>
      <trkpt lat="42.99494" lon="0.77931">
        <ele>794.19</ele>
        <time>2019-04-28T09:54:00Z</time>
      </trkpt>
      <trkpt lat="42.995" lon="0.77933">
        <ele>794.19</ele>
        <time>2019-04-28T09:54:01Z</time>
      </trkpt>
      <trkpt lat="42.99525" lon="0.77948">
        <ele>794.19</ele>
        <time>2019-04-28T09:54:07Z</time>
      </trkpt>
      <trkpt lat="42.99529" lon="0.77951">
        <ele>794.19</ele>
        <time>2019-04-28T09:54:08Z</time>
      </trkpt>
      <trkpt lat="42.99533" lon="0.77955">
        <ele>794.19</ele>
        <time>2019-04-28T09:54:09Z</time>
      </trkpt>
      <trkpt lat="42.9954" lon="0.77961">
        <ele>795.63</ele>
        <time>2019-04-28T09:54:11Z</time>
      </trkpt>
      <trkpt lat="42.9958" lon="0.77996">
        <ele>797.07</ele>
        <time>2019-04-28T09:54:23Z</time>
      </trkpt>
      <trkpt lat="42.99611" lon="0.78029">
        <ele>797.07</ele>
        <time>2019-04-28T09:54:33Z</time>
      </trkpt>
      <trkpt lat="42.99648" lon="0.78065">
        <ele>798.51</ele>
        <time>2019-04-28T09:54:46Z</time>
      </trkpt>
      <trkpt lat="42.99653" lon="0.78067">
        <ele>798.99</ele>
        <time>2019-04-28T09:54:48Z</time>
      </trkpt>
      <trkpt lat="42.99656" lon="0.78067">
        <ele>798.99</ele>
        <time>2019-04-28T09:54:49Z</time>
      </trkpt>
      <trkpt lat="42.99678" lon="0.78058">
        <ele>798.99</ele>
        <time>2019-04-28T09:54:55Z</time>
      </trkpt>
      <trkpt lat="42.99681" lon="0.78053">
        <ele>798.03</ele>
        <time>2019-04-28T09:54:56Z</time>
      </trkpt>
      <trkpt lat="42.99683" lon="0.78046">
        <ele>797.07</ele>
        <time>2019-04-28T09:54:57Z</time>
      </trkpt>
      <trkpt lat="42.99685" lon="0.78039">
        <ele>796.59</ele>
        <time>2019-04-28T09:54:58Z</time>
      </trkpt>
      <trkpt lat="42.99686" lon="0.78033">
        <ele>796.59</ele>
        <time>2019-04-28T09:54:59Z</time>
      </trkpt>
      <trkpt lat="42.99685" lon="0.78028">
        <ele>796.59</ele>
        <time>2019-04-28T09:55:03Z</time>
      </trkpt>
      <trkpt lat="42.99683" lon="0.78029">
        <ele>796.59</ele>
        <time>2019-04-28T09:55:04Z</time>
      </trkpt>
      <trkpt lat="42.99682" lon="0.78031">
        <ele>796.59</ele>
        <time>2019-04-28T09:55:05Z</time>
      </trkpt>
      <trkpt lat="42.99682" lon="0.78033">
        <ele>796.59</ele>
        <time>2019-04-28T09:55:06Z</time>
      </trkpt>
      <trkpt lat="42.99683" lon="0.78035">
        <ele>796.59</ele>
        <time>2019-04-28T09:55:07Z</time>
      </trkpt>
      <trkpt lat="42.99684" lon="0.78037">
        <ele>796.59</ele>
        <time>2019-04-28T09:55:08Z</time>
      </trkpt>
      <trkpt lat="42.99685" lon="0.78038">
        <ele>796.59</ele>
        <time>2019-04-28T09:55:09Z</time>
      </trkpt>
      <trkpt lat="42.99687" lon="0.7804">
        <ele>796.59</ele>
        <time>2019-04-28T09:55:10Z</time>
      </trkpt>
      <trkpt lat="42.99689" lon="0.7804">
        <ele>796.59</ele>
        <time>2019-04-28T09:55:11Z</time>
      </trkpt>
      <trkpt lat="42.99692" lon="0.78042">
        <ele>796.11</ele>
        <time>2019-04-28T09:55:17Z</time>
      </trkpt>
      <trkpt lat="42.99693" lon="0.78043">
        <ele>795.15</ele>
        <time>2019-04-28T09:55:18Z</time>
      </trkpt>
      <trkpt lat="42.99695" lon="0.78043">
        <ele>794.67</ele>
        <time>2019-04-28T09:55:19Z</time>
      </trkpt>
      <trkpt lat="42.99698" lon="0.78044">
        <ele>793.71</ele>
        <time>2019-04-28T09:55:20Z</time>
      </trkpt>
      <trkpt lat="42.997" lon="0.78045">
        <ele>792.74</ele>
        <time>2019-04-28T09:55:21Z</time>
      </trkpt>
      <trkpt lat="42.99702" lon="0.78046">
        <ele>791.78</ele>
        <time>2019-04-28T09:55:22Z</time>
      </trkpt>
      <trkpt lat="42.99705" lon="0.78046">
        <ele>790.82</ele>
        <time>2019-04-28T09:55:23Z</time>
      </trkpt>
      <trkpt lat="42.99708" lon="0.78047">
        <ele>789.86</ele>
        <time>2019-04-28T09:55:24Z</time>
      </trkpt>
      <trkpt lat="42.99713" lon="0.78047">
        <ele>788.42</ele>
        <time>2019-04-28T09:55:25Z</time>
      </trkpt>
      <trkpt lat="42.99724" lon="0.7805">
        <ele>784.09</ele>
        <time>2019-04-28T09:55:27Z</time>
      </trkpt>
      <trkpt lat="42.9973" lon="0.78052">
        <ele>783.13</ele>
        <time>2019-04-28T09:55:28Z</time>
      </trkpt>
      <trkpt lat="42.99735" lon="0.78055">
        <ele>781.21</ele>
        <time>2019-04-28T09:55:29Z</time>
      </trkpt>
      <trkpt lat="42.99756" lon="0.78068">
        <ele>777.84</ele>
        <time>2019-04-28T09:55:32Z</time>
      </trkpt>
      <trkpt lat="42.99763" lon="0.78073">
        <ele>776.4</ele>
        <time>2019-04-28T09:55:33Z</time>
      </trkpt>
      <trkpt lat="42.9977" lon="0.78079">
        <ele>775.92</ele>
        <time>2019-04-28T09:55:34Z</time>
      </trkpt>
      <trkpt lat="42.99777" lon="0.78086">
        <ele>775.44</ele>
        <time>2019-04-28T09:55:35Z</time>
      </trkpt>
      <trkpt lat="42.99819" lon="0.78131">
        <ele>773.52</ele>
        <time>2019-04-28T09:55:44Z</time>
      </trkpt>
      <trkpt lat="42.99827" lon="0.78138">
        <ele>773.52</ele>
        <time>2019-04-28T09:55:46Z</time>
      </trkpt>
      <trkpt lat="42.99843" lon="0.78148">
        <ele>771.11</ele>
        <time>2019-04-28T09:55:49Z</time>
      </trkpt>
      <trkpt lat="42.99847" lon="0.78149">
        <ele>771.11</ele>
        <time>2019-04-28T09:55:50Z</time>
      </trkpt>
      <trkpt lat="42.9986" lon="0.78153">
        <ele>769.19</ele>
        <time>2019-04-28T09:55:54Z</time>
      </trkpt>
      <trkpt lat="42.9987" lon="0.78152">
        <ele>767.27</ele>
        <time>2019-04-28T09:55:56Z</time>
      </trkpt>
      <trkpt lat="42.99883" lon="0.78153">
        <ele>765.83</ele>
        <time>2019-04-28T09:55:58Z</time>
      </trkpt>
      <trkpt lat="42.99906" lon="0.7816">
        <ele>764.39</ele>
        <time>2019-04-28T09:56:01Z</time>
      </trkpt>
      <trkpt lat="42.99913" lon="0.78163">
        <ele>762.94</ele>
        <time>2019-04-28T09:56:02Z</time>
      </trkpt>
      <trkpt lat="42.99931" lon="0.78173">
        <ele>762.94</ele>
        <time>2019-04-28T09:56:05Z</time>
      </trkpt>
      <trkpt lat="42.99941" lon="0.78178">
        <ele>762.46</ele>
        <time>2019-04-28T09:56:07Z</time>
      </trkpt>
      <trkpt lat="42.99971" lon="0.78186">
        <ele>763.9</ele>
        <time>2019-04-28T09:56:17Z</time>
      </trkpt>
      <trkpt lat="42.99973" lon="0.78186">
        <ele>763.9</ele>
        <time>2019-04-28T09:56:18Z</time>
      </trkpt>
      <trkpt lat="43" lon="0.7819">
        <ele>765.35</ele>
        <time>2019-04-28T09:56:29Z</time>
      </trkpt>
      <trkpt lat="43.00033" lon="0.78195">
        <ele>765.83</ele>
        <time>2019-04-28T09:56:42Z</time>
      </trkpt>
      <trkpt lat="43.00038" lon="0.78196">
        <ele>765.83</ele>
        <time>2019-04-28T09:56:47Z</time>
      </trkpt>
      <trkpt lat="43.00051" lon="0.78213">
        <ele>766.79</ele>
        <time>2019-04-28T09:56:59Z</time>
      </trkpt>
      <trkpt lat="43.00072" lon="0.78234">
        <ele>768.23</ele>
        <time>2019-04-28T09:57:14Z</time>
      </trkpt>
      <trkpt lat="43.00094" lon="0.78243">
        <ele>768.23</ele>
        <time>2019-04-28T09:57:26Z</time>
      </trkpt>
      <trkpt lat="43.00097" lon="0.78246">
        <ele>768.23</ele>
        <time>2019-04-28T09:57:27Z</time>
      </trkpt>
      <trkpt lat="43.00099" lon="0.7825">
        <ele>768.23</ele>
        <time>2019-04-28T09:57:28Z</time>
      </trkpt>
      <trkpt lat="43.00101" lon="0.78255">
        <ele>766.79</ele>
        <time>2019-04-28T09:57:29Z</time>
      </trkpt>
      <trkpt lat="43.00103" lon="0.7826">
        <ele>766.79</ele>
        <time>2019-04-28T09:57:30Z</time>
      </trkpt>
      <trkpt lat="43.00105" lon="0.78264">
        <ele>766.79</ele>
        <time>2019-04-28T09:57:31Z</time>
      </trkpt>
      <trkpt lat="43.00136" lon="0.78306">
        <ele>765.35</ele>
        <time>2019-04-28T09:57:43Z</time>
      </trkpt>
      <trkpt lat="43.00141" lon="0.78314">
        <ele>765.35</ele>
        <time>2019-04-28T09:57:46Z</time>
      </trkpt>
      <trkpt lat="43.00151" lon="0.7834">
        <ele>764.87</ele>
        <time>2019-04-28T09:57:53Z</time>
      </trkpt>
      <trkpt lat="43.00153" lon="0.78344">
        <ele>764.87</ele>
        <time>2019-04-28T09:57:54Z</time>
      </trkpt>
      <trkpt lat="43.00154" lon="0.78348">
        <ele>764.87</ele>
        <time>2019-04-28T09:57:55Z</time>
      </trkpt>
      <trkpt lat="43.00156" lon="0.78351">
        <ele>764.87</ele>
        <time>2019-04-28T09:57:56Z</time>
      </trkpt>
      <trkpt lat="43.00158" lon="0.78355">
        <ele>764.87</ele>
        <time>2019-04-28T09:57:57Z</time>
      </trkpt>
      <trkpt lat="43.00176" lon="0.78394">
        <ele>763.9</ele>
        <time>2019-04-28T09:58:07Z</time>
      </trkpt>
      <trkpt lat="43.00208" lon="0.7844">
        <ele>762.46</ele>
        <time>2019-04-28T09:58:18Z</time>
      </trkpt>
      <trkpt lat="43.00245" lon="0.78479">
        <ele>762.46</ele>
        <time>2019-04-28T09:58:31Z</time>
      </trkpt>
      <trkpt lat="43.0027" lon="0.7852">
        <ele>760.54</ele>
        <time>2019-04-28T09:58:42Z</time>
      </trkpt>
      <trkpt lat="43.0028" lon="0.78532">
        <ele>758.14</ele>
        <time>2019-04-28T09:58:45Z</time>
      </trkpt>
      <trkpt lat="43.00295" lon="0.78544">
        <ele>756.21</ele>
        <time>2019-04-28T09:58:49Z</time>
      </trkpt>
      <trkpt lat="43.00299" lon="0.78547">
        <ele>755.25</ele>
        <time>2019-04-28T09:58:50Z</time>
      </trkpt>
      <trkpt lat="43.00307" lon="0.78552">
        <ele>754.29</ele>
        <time>2019-04-28T09:58:52Z</time>
      </trkpt>
      <trkpt lat="43.00318" lon="0.78563">
        <ele>753.33</ele>
        <time>2019-04-28T09:59:01Z</time>
      </trkpt>
      <trkpt lat="43.00327" lon="0.78575">
        <ele>751.41</ele>
        <time>2019-04-28T09:59:08Z</time>
      </trkpt>
      <trkpt lat="43.00339" lon="0.78586">
        <ele>749.49</ele>
        <time>2019-04-28T09:59:11Z</time>
      </trkpt>
      <trkpt lat="43.00342" lon="0.78591">
        <ele>749</ele>
        <time>2019-04-28T09:59:12Z</time>
      </trkpt>
      <trkpt lat="43.00345" lon="0.78597">
        <ele>748.52</ele>
        <time>2019-04-28T09:59:13Z</time>
      </trkpt>
      <trkpt lat="43.00348" lon="0.78602">
        <ele>747.56</ele>
        <time>2019-04-28T09:59:14Z</time>
      </trkpt>
      <trkpt lat="43.00351" lon="0.78606">
        <ele>747.08</ele>
        <time>2019-04-28T09:59:15Z</time>
      </trkpt>
      <trkpt lat="43.00355" lon="0.78609">
        <ele>746.6</ele>
        <time>2019-04-28T09:59:16Z</time>
      </trkpt>
      <trkpt lat="43.00358" lon="0.78612">
        <ele>746.6</ele>
        <time>2019-04-28T09:59:17Z</time>
      </trkpt>
      <trkpt lat="43.00362" lon="0.78616">
        <ele>744.68</ele>
        <time>2019-04-28T09:59:18Z</time>
      </trkpt>
      <trkpt lat="43.00372" lon="0.78628">
        <ele>742.76</ele>
        <time>2019-04-28T09:59:21Z</time>
      </trkpt>
      <trkpt lat="43.00374" lon="0.78634">
        <ele>741.79</ele>
        <time>2019-04-28T09:59:22Z</time>
      </trkpt>
      <trkpt lat="43.00378" lon="0.78647">
        <ele>738.91</ele>
        <time>2019-04-28T09:59:24Z</time>
      </trkpt>
      <trkpt lat="43.00382" lon="0.78667">
        <ele>736.03</ele>
        <time>2019-04-28T09:59:27Z</time>
      </trkpt>
      <trkpt lat="43.00382" lon="0.78673">
        <ele>734.58</ele>
        <time>2019-04-28T09:59:28Z</time>
      </trkpt>
      <trkpt lat="43.00386" lon="0.78694">
        <ele>730.74</ele>
        <time>2019-04-28T09:59:32Z</time>
      </trkpt>
      <trkpt lat="43.00387" lon="0.78712">
        <ele>726.89</ele>
        <time>2019-04-28T09:59:37Z</time>
      </trkpt>
      <trkpt lat="43.00386" lon="0.78712">
        <ele>726.89</ele>
        <time>2019-04-28T09:59:38Z</time>
      </trkpt>
      <trkpt lat="43.00386" lon="0.78711">
        <ele>728.34</ele>
        <time>2019-04-28T09:59:56Z</time>
      </trkpt>
      <trkpt lat="43.00388" lon="0.78704">
        <ele>730.26</ele>
        <time>2019-04-28T10:00:10Z</time>
      </trkpt>
      <trkpt lat="43.00386" lon="0.78689">
        <ele>732.66</ele>
        <time>2019-04-28T10:00:26Z</time>
      </trkpt>
      <trkpt lat="43.00384" lon="0.78675">
        <ele>735.55</ele>
        <time>2019-04-28T10:00:40Z</time>
      </trkpt>
      <trkpt lat="43.00381" lon="0.7866">
        <ele>737.95</ele>
        <time>2019-04-28T10:00:54Z</time>
      </trkpt>
      <trkpt lat="43.0038" lon="0.78647">
        <ele>740.35</ele>
        <time>2019-04-28T10:01:08Z</time>
      </trkpt>
      <trkpt lat="43.00378" lon="0.78633">
        <ele>743.24</ele>
        <time>2019-04-28T10:01:23Z</time>
      </trkpt>
      <trkpt lat="43.00371" lon="0.78625">
        <ele>744.68</ele>
        <time>2019-04-28T10:01:38Z</time>
      </trkpt>
      <trkpt lat="43.00361" lon="0.78618">
        <ele>746.6</ele>
        <time>2019-04-28T10:01:54Z</time>
      </trkpt>
      <trkpt lat="43.00351" lon="0.78604">
        <ele>748.52</ele>
        <time>2019-04-28T10:02:10Z</time>
      </trkpt>
      <trkpt lat="43.00348" lon="0.78598">
        <ele>749.97</ele>
        <time>2019-04-28T10:02:25Z</time>
      </trkpt>
      <trkpt lat="43.0034" lon="0.78585">
        <ele>751.89</ele>
        <time>2019-04-28T10:02:40Z</time>
      </trkpt>
      <trkpt lat="43.00332" lon="0.78576">
        <ele>752.85</ele>
        <time>2019-04-28T10:02:53Z</time>
      </trkpt>
      <trkpt lat="43.00333" lon="0.78575">
        <ele>751.89</ele>
        <time>2019-04-28T10:03:07Z</time>
      </trkpt>
      <trkpt lat="43.00334" lon="0.78575">
        <ele>750.93</ele>
        <time>2019-04-28T10:03:11Z</time>
      </trkpt>
      <trkpt lat="43.00341" lon="0.78579">
        <ele>749</ele>
        <time>2019-04-28T10:03:18Z</time>
      </trkpt>
      <trkpt lat="43.00345" lon="0.7858">
        <ele>747.56</ele>
        <time>2019-04-28T10:03:22Z</time>
      </trkpt>
      <trkpt lat="43.00354" lon="0.78582">
        <ele>745.64</ele>
        <time>2019-04-28T10:03:31Z</time>
      </trkpt>
      <trkpt lat="43.00357" lon="0.78581">
        <ele>744.68</ele>
        <time>2019-04-28T10:03:33Z</time>
      </trkpt>
      <trkpt lat="43.00367" lon="0.78583">
        <ele>743.24</ele>
        <time>2019-04-28T10:03:45Z</time>
      </trkpt>
      <trkpt lat="43.00377" lon="0.78582">
        <ele>742.76</ele>
        <time>2019-04-28T10:04:16Z</time>
      </trkpt>
      <trkpt lat="43.00373" lon="0.78582">
        <ele>744.2</ele>
        <time>2019-04-28T10:04:31Z</time>
      </trkpt>
      <trkpt lat="43.00367" lon="0.7859">
        <ele>746.12</ele>
        <time>2019-04-28T10:04:52Z</time>
      </trkpt>
      <trkpt lat="43.00358" lon="0.78606">
        <ele>747.08</ele>
        <time>2019-04-28T10:05:06Z</time>
      </trkpt>
      <trkpt lat="43.00358" lon="0.78617">
        <ele>747.08</ele>
        <time>2019-04-28T10:05:19Z</time>
      </trkpt>
      <trkpt lat="43.00361" lon="0.7862">
        <ele>747.08</ele>
        <time>2019-04-28T10:05:21Z</time>
      </trkpt>
      <trkpt lat="43.00363" lon="0.78621">
        <ele>747.08</ele>
        <time>2019-04-28T10:05:22Z</time>
      </trkpt>
      <trkpt lat="43.00371" lon="0.7863">
        <ele>743.72</ele>
        <time>2019-04-28T10:05:25Z</time>
      </trkpt>
      <trkpt lat="43.00374" lon="0.78633">
        <ele>742.76</ele>
        <time>2019-04-28T10:05:26Z</time>
      </trkpt>
      <trkpt lat="43.00375" lon="0.78637">
        <ele>742.76</ele>
        <time>2019-04-28T10:05:27Z</time>
      </trkpt>
      <trkpt lat="43.00377" lon="0.78642">
        <ele>741.79</ele>
        <time>2019-04-28T10:05:28Z</time>
      </trkpt>
      <trkpt lat="43.00379" lon="0.78649">
        <ele>740.35</ele>
        <time>2019-04-28T10:05:29Z</time>
      </trkpt>
      <trkpt lat="43.00379" lon="0.78655">
        <ele>739.39</ele>
        <time>2019-04-28T10:05:30Z</time>
      </trkpt>
      <trkpt lat="43.00381" lon="0.78669">
        <ele>737.47</ele>
        <time>2019-04-28T10:05:32Z</time>
      </trkpt>
      <trkpt lat="43.00381" lon="0.78675">
        <ele>736.03</ele>
        <time>2019-04-28T10:05:33Z</time>
      </trkpt>
      <trkpt lat="43.00385" lon="0.78698">
        <ele>731.22</ele>
        <time>2019-04-28T10:05:37Z</time>
      </trkpt>
      <trkpt lat="43.00386" lon="0.78715">
        <ele>727.86</ele>
        <time>2019-04-28T10:05:41Z</time>
      </trkpt>
      <trkpt lat="43.00382" lon="0.78734">
        <ele>724.49</ele>
        <time>2019-04-28T10:05:46Z</time>
      </trkpt>
      <trkpt lat="43.00383" lon="0.78738">
        <ele>724.01</ele>
        <time>2019-04-28T10:05:47Z</time>
      </trkpt>
      <trkpt lat="43.00388" lon="0.78748">
        <ele>723.05</ele>
        <time>2019-04-28T10:05:55Z</time>
      </trkpt>
      <trkpt lat="43.00397" lon="0.7876">
        <ele>719.68</ele>
        <time>2019-04-28T10:06:02Z</time>
      </trkpt>
      <trkpt lat="43.004" lon="0.78759">
        <ele>719.2</ele>
        <time>2019-04-28T10:06:04Z</time>
      </trkpt>
      <trkpt lat="43.00414" lon="0.78757">
        <ele>715.84</ele>
        <time>2019-04-28T10:06:09Z</time>
      </trkpt>
      <trkpt lat="43.00427" lon="0.78757">
        <ele>711.99</ele>
        <time>2019-04-28T10:06:15Z</time>
      </trkpt>
      <trkpt lat="43.00437" lon="0.78755">
        <ele>710.55</ele>
        <time>2019-04-28T10:06:18Z</time>
      </trkpt>
      <trkpt lat="43.00462" lon="0.78759">
        <ele>708.15</ele>
        <time>2019-04-28T10:06:29Z</time>
      </trkpt>
      <trkpt lat="43.00487" lon="0.78756">
        <ele>707.67</ele>
        <time>2019-04-28T10:06:41Z</time>
      </trkpt>
      <trkpt lat="43.00493" lon="0.78755">
        <ele>707.67</ele>
        <time>2019-04-28T10:06:44Z</time>
      </trkpt>
      <trkpt lat="43.00501" lon="0.78751">
        <ele>707.67</ele>
        <time>2019-04-28T10:06:49Z</time>
      </trkpt>
      <trkpt lat="43.00519" lon="0.78752">
        <ele>704.3</ele>
        <time>2019-04-28T10:06:56Z</time>
      </trkpt>
      <trkpt lat="43.00548" lon="0.78742">
        <ele>700.46</ele>
        <time>2019-04-28T10:07:02Z</time>
      </trkpt>
      <trkpt lat="43.00561" lon="0.78739">
        <ele>697.57</ele>
        <time>2019-04-28T10:07:05Z</time>
      </trkpt>
      <trkpt lat="43.00566" lon="0.78739">
        <ele>697.57</ele>
        <time>2019-04-28T10:07:06Z</time>
      </trkpt>
      <trkpt lat="43.00579" lon="0.78741">
        <ele>695.65</ele>
        <time>2019-04-28T10:07:08Z</time>
      </trkpt>
      <trkpt lat="43.00586" lon="0.78743">
        <ele>695.65</ele>
        <time>2019-04-28T10:07:09Z</time>
      </trkpt>
      <trkpt lat="43.00608" lon="0.78748">
        <ele>692.77</ele>
        <time>2019-04-28T10:07:12Z</time>
      </trkpt>
      <trkpt lat="43.00615" lon="0.78751">
        <ele>692.77</ele>
        <time>2019-04-28T10:07:13Z</time>
      </trkpt>
      <trkpt lat="43.00626" lon="0.78758">
        <ele>691.33</ele>
        <time>2019-04-28T10:07:15Z</time>
      </trkpt>
      <trkpt lat="43.00631" lon="0.78759">
        <ele>690.84</ele>
        <time>2019-04-28T10:07:16Z</time>
      </trkpt>
      <trkpt lat="43.00671" lon="0.78762">
        <ele>690.36</ele>
        <time>2019-04-28T10:07:26Z</time>
      </trkpt>
      <trkpt lat="43.00704" lon="0.78764">
        <ele>691.81</ele>
        <time>2019-04-28T10:07:37Z</time>
      </trkpt>
      <trkpt lat="43.00707" lon="0.78763">
        <ele>691.81</ele>
        <time>2019-04-28T10:07:38Z</time>
      </trkpt>
      <trkpt lat="43.00734" lon="0.78739">
        <ele>693.25</ele>
        <time>2019-04-28T10:07:48Z</time>
      </trkpt>
      <trkpt lat="43.00751" lon="0.78723">
        <ele>693.25</ele>
        <time>2019-04-28T10:07:54Z</time>
      </trkpt>
      <trkpt lat="43.00754" lon="0.7872">
        <ele>693.25</ele>
        <time>2019-04-28T10:07:55Z</time>
      </trkpt>
      <trkpt lat="43.00757" lon="0.78718">
        <ele>693.25</ele>
        <time>2019-04-28T10:07:56Z</time>
      </trkpt>
      <trkpt lat="43.00761" lon="0.78715">
        <ele>693.25</ele>
        <time>2019-04-28T10:07:57Z</time>
      </trkpt>
      <trkpt lat="43.00765" lon="0.78712">
        <ele>691.81</ele>
        <time>2019-04-28T10:07:58Z</time>
      </trkpt>
      <trkpt lat="43.00769" lon="0.78709">
        <ele>691.81</ele>
        <time>2019-04-28T10:07:59Z</time>
      </trkpt>
      <trkpt lat="43.00773" lon="0.78705">
        <ele>691.33</ele>
        <time>2019-04-28T10:08:00Z</time>
      </trkpt>
      <trkpt lat="43.00777" lon="0.78702">
        <ele>690.84</ele>
        <time>2019-04-28T10:08:01Z</time>
      </trkpt>
      <trkpt lat="43.00782" lon="0.78699">
        <ele>690.36</ele>
        <time>2019-04-28T10:08:02Z</time>
      </trkpt>
      <trkpt lat="43.00828" lon="0.78665">
        <ele>689.4</ele>
        <time>2019-04-28T10:08:13Z</time>
      </trkpt>
      <trkpt lat="43.00852" lon="0.78646">
        <ele>690.84</ele>
        <time>2019-04-28T10:08:21Z</time>
      </trkpt>
      <trkpt lat="43.00855" lon="0.78645">
        <ele>690.84</ele>
        <time>2019-04-28T10:08:22Z</time>
      </trkpt>
      <trkpt lat="43.00882" lon="0.78636">
        <ele>689.4</ele>
        <time>2019-04-28T10:08:33Z</time>
      </trkpt>
      <trkpt lat="43.00885" lon="0.78631">
        <ele>688.92</ele>
        <time>2019-04-28T10:08:45Z</time>
      </trkpt>
      <trkpt lat="43.00888" lon="0.7863">
        <ele>688.92</ele>
        <time>2019-04-28T10:09:22Z</time>
      </trkpt>
      <trkpt lat="43.00887" lon="0.78629">
        <ele>688.44</ele>
        <time>2019-04-28T10:10:10Z</time>
      </trkpt>
      <trkpt lat="43.00885" lon="0.78629">
        <ele>688.44</ele>
        <time>2019-04-28T10:10:44Z</time>
      </trkpt>
      <trkpt lat="43.00887" lon="0.78629">
        <ele>687.96</ele>
        <time>2019-04-28T10:11:24Z</time>
      </trkpt>
      <trkpt lat="43.00887" lon="0.7863">
        <ele>687.96</ele>
        <time>2019-04-28T10:11:56Z</time>
      </trkpt>
      <trkpt lat="43.00888" lon="0.78632">
        <ele>687.48</ele>
        <time>2019-04-28T10:12:34Z</time>
      </trkpt>
      <trkpt lat="43.00887" lon="0.78632">
        <ele>687.48</ele>
        <time>2019-04-28T10:13:15Z</time>
      </trkpt>
      <trkpt lat="43.00887" lon="0.78632">
        <ele>687</ele>
        <time>2019-04-28T10:13:57Z</time>
      </trkpt>
      <trkpt lat="43.00893" lon="0.78636">
        <ele>687</ele>
        <time>2019-04-28T10:14:19Z</time>
      </trkpt>
      <trkpt lat="43.00906" lon="0.78648">
        <ele>685.08</ele>
        <time>2019-04-28T10:14:23Z</time>
      </trkpt>
      <trkpt lat="43.00925" lon="0.78667">
        <ele>683.15</ele>
        <time>2019-04-28T10:14:27Z</time>
      </trkpt>
      <trkpt lat="43.00954" lon="0.78704">
        <ele>680.75</ele>
        <time>2019-04-28T10:14:34Z</time>
      </trkpt>
      <trkpt lat="43.00958" lon="0.78709">
        <ele>679.79</ele>
        <time>2019-04-28T10:14:35Z</time>
      </trkpt>
      <trkpt lat="43.00992" lon="0.78742">
        <ele>679.79</ele>
        <time>2019-04-28T10:14:47Z</time>
      </trkpt>
      <trkpt lat="43.01032" lon="0.78787">
        <ele>679.31</ele>
        <time>2019-04-28T10:15:01Z</time>
      </trkpt>
      <trkpt lat="43.01048" lon="0.78815">
        <ele>676.91</ele>
        <time>2019-04-28T10:15:12Z</time>
      </trkpt>
      <trkpt lat="43.01062" lon="0.7883">
        <ele>674.5</ele>
        <time>2019-04-28T10:15:15Z</time>
      </trkpt>
      <trkpt lat="43.01076" lon="0.78841">
        <ele>673.06</ele>
        <time>2019-04-28T10:15:18Z</time>
      </trkpt>
      <trkpt lat="43.01085" lon="0.78847">
        <ele>672.58</ele>
        <time>2019-04-28T10:15:20Z</time>
      </trkpt>
      <trkpt lat="43.01104" lon="0.78854">
        <ele>668.73</ele>
        <time>2019-04-28T10:15:24Z</time>
      </trkpt>
      <trkpt lat="43.01108" lon="0.78855">
        <ele>669.22</ele>
        <time>2019-04-28T10:15:25Z</time>
      </trkpt>
      <trkpt lat="43.01112" lon="0.78855">
        <ele>668.73</ele>
        <time>2019-04-28T10:15:26Z</time>
      </trkpt>
      <trkpt lat="43.01116" lon="0.78854">
        <ele>668.73</ele>
        <time>2019-04-28T10:15:27Z</time>
      </trkpt>
      <trkpt lat="43.0112" lon="0.78853">
        <ele>668.25</ele>
        <time>2019-04-28T10:15:28Z</time>
      </trkpt>
      <trkpt lat="43.01124" lon="0.78852">
        <ele>668.25</ele>
        <time>2019-04-28T10:15:29Z</time>
      </trkpt>
      <trkpt lat="43.01126" lon="0.78851">
        <ele>668.25</ele>
        <time>2019-04-28T10:15:30Z</time>
      </trkpt>
      <trkpt lat="43.01128" lon="0.78849">
        <ele>668.25</ele>
        <time>2019-04-28T10:15:31Z</time>
      </trkpt>
      <trkpt lat="43.0113" lon="0.78849">
        <ele>668.25</ele>
        <time>2019-04-28T10:15:32Z</time>
      </trkpt>
      <trkpt lat="43.0113" lon="0.78849">
        <ele>667.77</ele>
        <time>2019-04-28T10:15:43Z</time>
      </trkpt>
      <trkpt lat="43.0113" lon="0.78848">
        <ele>667.29</ele>
        <time>2019-04-28T10:16:12Z</time>
      </trkpt>
      <trkpt lat="43.01139" lon="0.78846">
        <ele>666.33</ele>
        <time>2019-04-28T10:16:26Z</time>
      </trkpt>
      <trkpt lat="43.01144" lon="0.78844">
        <ele>664.89</ele>
        <time>2019-04-28T10:16:27Z</time>
      </trkpt>
      <trkpt lat="43.01149" lon="0.78843">
        <ele>663.93</ele>
        <time>2019-04-28T10:16:28Z</time>
      </trkpt>
      <trkpt lat="43.01156" lon="0.78843">
        <ele>662.49</ele>
        <time>2019-04-28T10:16:29Z</time>
      </trkpt>
      <trkpt lat="43.01163" lon="0.78845">
        <ele>661.52</ele>
        <time>2019-04-28T10:16:30Z</time>
      </trkpt>
      <trkpt lat="43.0117" lon="0.78849">
        <ele>660.08</ele>
        <time>2019-04-28T10:16:31Z</time>
      </trkpt>
      <trkpt lat="43.01176" lon="0.78853">
        <ele>660.08</ele>
        <time>2019-04-28T10:16:32Z</time>
      </trkpt>
      <trkpt lat="43.0118" lon="0.78859">
        <ele>658.16</ele>
        <time>2019-04-28T10:16:33Z</time>
      </trkpt>
      <trkpt lat="43.01183" lon="0.78864">
        <ele>657.2</ele>
        <time>2019-04-28T10:16:34Z</time>
      </trkpt>
      <trkpt lat="43.01186" lon="0.78869">
        <ele>655.76</ele>
        <time>2019-04-28T10:16:35Z</time>
      </trkpt>
      <trkpt lat="43.01189" lon="0.78873">
        <ele>654.8</ele>
        <time>2019-04-28T10:16:36Z</time>
      </trkpt>
      <trkpt lat="43.01206" lon="0.78877">
        <ele>650.47</ele>
        <time>2019-04-28T10:16:39Z</time>
      </trkpt>
      <trkpt lat="43.01228" lon="0.78878">
        <ele>647.1</ele>
        <time>2019-04-28T10:16:42Z</time>
      </trkpt>
      <trkpt lat="43.01235" lon="0.78879">
        <ele>647.1</ele>
        <time>2019-04-28T10:16:43Z</time>
      </trkpt>
      <trkpt lat="43.01247" lon="0.78881">
        <ele>647.1</ele>
        <time>2019-04-28T10:16:45Z</time>
      </trkpt>
      <trkpt lat="43.01256" lon="0.78884">
        <ele>647.1</ele>
        <time>2019-04-28T10:16:47Z</time>
      </trkpt>
      <trkpt lat="43.01259" lon="0.78888">
        <ele>647.1</ele>
        <time>2019-04-28T10:16:48Z</time>
      </trkpt>
      <trkpt lat="43.0127" lon="0.78909">
        <ele>647.1</ele>
        <time>2019-04-28T10:16:53Z</time>
      </trkpt>
      <trkpt lat="43.01275" lon="0.78923">
        <ele>646.62</ele>
        <time>2019-04-28T10:16:56Z</time>
      </trkpt>
      <trkpt lat="43.01286" lon="0.7896">
        <ele>645.18</ele>
        <time>2019-04-28T10:17:06Z</time>
      </trkpt>
      <trkpt lat="43.01299" lon="0.78983">
        <ele>646.62</ele>
        <time>2019-04-28T10:17:16Z</time>
      </trkpt>
      <trkpt lat="43.01316" lon="0.79004">
        <ele>647.59</ele>
        <time>2019-04-28T10:17:31Z</time>
      </trkpt>
      <trkpt lat="43.01317" lon="0.79009">
        <ele>646.14</ele>
        <time>2019-04-28T10:17:45Z</time>
      </trkpt>
      <trkpt lat="43.01317" lon="0.79017">
        <ele>643.74</ele>
        <time>2019-04-28T10:17:57Z</time>
      </trkpt>
      <trkpt lat="43.01315" lon="0.79029">
        <ele>639.41</ele>
        <time>2019-04-28T10:18:02Z</time>
      </trkpt>
      <trkpt lat="43.01315" lon="0.79032">
        <ele>638.45</ele>
        <time>2019-04-28T10:18:03Z</time>
      </trkpt>
      <trkpt lat="43.01314" lon="0.7904">
        <ele>636.05</ele>
        <time>2019-04-28T10:18:15Z</time>
      </trkpt>
      <trkpt lat="43.01314" lon="0.79041">
        <ele>636.05</ele>
        <time>2019-04-28T10:18:23Z</time>
      </trkpt>
      <trkpt lat="43.01321" lon="0.79054">
        <ele>634.13</ele>
        <time>2019-04-28T10:18:33Z</time>
      </trkpt>
      <trkpt lat="43.01311" lon="0.79055">
        <ele>630.76</ele>
        <time>2019-04-28T10:18:38Z</time>
      </trkpt>
      <trkpt lat="43.013" lon="0.79055">
        <ele>626.44</ele>
        <time>2019-04-28T10:18:42Z</time>
      </trkpt>
      <trkpt lat="43.01279" lon="0.7906">
        <ele>622.59</ele>
        <time>2019-04-28T10:18:45Z</time>
      </trkpt>
      <trkpt lat="43.0127" lon="0.79066">
        <ele>625.96</ele>
        <time>2019-04-28T10:18:47Z</time>
      </trkpt>
      <trkpt lat="43.01268" lon="0.7907">
        <ele>626.44</ele>
        <time>2019-04-28T10:18:49Z</time>
      </trkpt>
      <trkpt lat="43.01259" lon="0.79094">
        <ele>628.84</ele>
        <time>2019-04-28T10:19:00Z</time>
      </trkpt>
      <trkpt lat="43.01246" lon="0.79119">
        <ele>631.72</ele>
        <time>2019-04-28T10:19:11Z</time>
      </trkpt>
      <trkpt lat="43.01242" lon="0.79129">
        <ele>631.24</ele>
        <time>2019-04-28T10:19:15Z</time>
      </trkpt>
      <trkpt lat="43.01232" lon="0.79157">
        <ele>627.88</ele>
        <time>2019-04-28T10:19:22Z</time>
      </trkpt>
      <trkpt lat="43.01223" lon="0.79186">
        <ele>624.51</ele>
        <time>2019-04-28T10:19:27Z</time>
      </trkpt>
      <trkpt lat="43.01216" lon="0.79203">
        <ele>622.59</ele>
        <time>2019-04-28T10:19:30Z</time>
      </trkpt>
      <trkpt lat="43.0121" lon="0.7923">
        <ele>618.75</ele>
        <time>2019-04-28T10:19:34Z</time>
      </trkpt>
      <trkpt lat="43.01207" lon="0.79252">
        <ele>615.86</ele>
        <time>2019-04-28T10:19:37Z</time>
      </trkpt>
      <trkpt lat="43.01204" lon="0.79291">
        <ele>611.54</ele>
        <time>2019-04-28T10:19:42Z</time>
      </trkpt>
      <trkpt lat="43.01197" lon="0.79317">
        <ele>608.65</ele>
        <time>2019-04-28T10:19:45Z</time>
      </trkpt>
      <trkpt lat="43.01191" lon="0.79332">
        <ele>607.69</ele>
        <time>2019-04-28T10:19:47Z</time>
      </trkpt>
      <trkpt lat="43.01187" lon="0.79337">
        <ele>607.21</ele>
        <time>2019-04-28T10:19:48Z</time>
      </trkpt>
      <trkpt lat="43.01182" lon="0.79341">
        <ele>606.25</ele>
        <time>2019-04-28T10:19:49Z</time>
      </trkpt>
      <trkpt lat="43.01178" lon="0.79343">
        <ele>606.73</ele>
        <time>2019-04-28T10:19:50Z</time>
      </trkpt>
      <trkpt lat="43.01173" lon="0.79344">
        <ele>606.25</ele>
        <time>2019-04-28T10:19:51Z</time>
      </trkpt>
      <trkpt lat="43.01148" lon="0.79344">
        <ele>603.85</ele>
        <time>2019-04-28T10:19:56Z</time>
      </trkpt>
      <trkpt lat="43.01145" lon="0.79344">
        <ele>603.85</ele>
        <time>2019-04-28T10:19:57Z</time>
      </trkpt>
      <trkpt lat="43.01141" lon="0.79343">
        <ele>603.36</ele>
        <time>2019-04-28T10:19:58Z</time>
      </trkpt>
      <trkpt lat="43.01109" lon="0.79338">
        <ele>599.52</ele>
        <time>2019-04-28T10:20:05Z</time>
      </trkpt>
      <trkpt lat="43.011" lon="0.79336">
        <ele>598.56</ele>
        <time>2019-04-28T10:20:07Z</time>
      </trkpt>
      <trkpt lat="43.01086" lon="0.79335">
        <ele>595.67</ele>
        <time>2019-04-28T10:20:10Z</time>
      </trkpt>
      <trkpt lat="43.01082" lon="0.79334">
        <ele>595.67</ele>
        <time>2019-04-28T10:20:11Z</time>
      </trkpt>
      <trkpt lat="43.0107" lon="0.79331">
        <ele>593.75</ele>
        <time>2019-04-28T10:20:14Z</time>
      </trkpt>
      <trkpt lat="43.01052" lon="0.79327">
        <ele>590.39</ele>
        <time>2019-04-28T10:20:18Z</time>
      </trkpt>
      <trkpt lat="43.01042" lon="0.79325">
        <ele>589.91</ele>
        <time>2019-04-28T10:20:20Z</time>
      </trkpt>
      <trkpt lat="43.01026" lon="0.79321">
        <ele>586.54</ele>
        <time>2019-04-28T10:20:23Z</time>
      </trkpt>
      <trkpt lat="43.0102" lon="0.79319">
        <ele>586.06</ele>
        <time>2019-04-28T10:20:24Z</time>
      </trkpt>
      <trkpt lat="43.00996" lon="0.79309">
        <ele>582.7</ele>
        <time>2019-04-28T10:20:28Z</time>
      </trkpt>
      <trkpt lat="43.0099" lon="0.79307">
        <ele>580.77</ele>
        <time>2019-04-28T10:20:29Z</time>
      </trkpt>
      <trkpt lat="43.0097" lon="0.79295">
        <ele>577.89</ele>
        <time>2019-04-28T10:20:33Z</time>
      </trkpt>
      <trkpt lat="43.00961" lon="0.79289">
        <ele>575.49</ele>
        <time>2019-04-28T10:20:37Z</time>
      </trkpt>
      <trkpt lat="43.0094" lon="0.79282">
        <ele>572.12</ele>
        <time>2019-04-28T10:20:41Z</time>
      </trkpt>
      <trkpt lat="43.00937" lon="0.79294">
        <ele>567.32</ele>
        <time>2019-04-28T10:20:46Z</time>
      </trkpt>
      <trkpt lat="43.00945" lon="0.79313">
        <ele>561.55</ele>
        <time>2019-04-28T10:20:50Z</time>
      </trkpt>
      <trkpt lat="43.00953" lon="0.79328">
        <ele>559.62</ele>
        <time>2019-04-28T10:20:53Z</time>
      </trkpt>
      <trkpt lat="43.00954" lon="0.79331">
        <ele>558.66</ele>
        <time>2019-04-28T10:20:54Z</time>
      </trkpt>
      <trkpt lat="43.00959" lon="0.79348">
        <ele>553.86</ele>
        <time>2019-04-28T10:21:00Z</time>
      </trkpt>
      <trkpt lat="43.00964" lon="0.7936">
        <ele>550.49</ele>
        <time>2019-04-28T10:21:04Z</time>
      </trkpt>
      <trkpt lat="43.00969" lon="0.79372">
        <ele>547.13</ele>
        <time>2019-04-28T10:21:10Z</time>
      </trkpt>
      <trkpt lat="43.00974" lon="0.79382">
        <ele>544.72</ele>
        <time>2019-04-28T10:21:14Z</time>
      </trkpt>
      <trkpt lat="43.00976" lon="0.79385">
        <ele>544.24</ele>
        <time>2019-04-28T10:21:16Z</time>
      </trkpt>
      <trkpt lat="43.00981" lon="0.79395">
        <ele>541.84</ele>
        <time>2019-04-28T10:21:23Z</time>
      </trkpt>
      <trkpt lat="43.0099" lon="0.79409">
        <ele>537.99</ele>
        <time>2019-04-28T10:21:29Z</time>
      </trkpt>
      <trkpt lat="43.00997" lon="0.79418">
        <ele>535.59</ele>
        <time>2019-04-28T10:21:33Z</time>
      </trkpt>
      <trkpt lat="43.0101" lon="0.79434">
        <ele>531.75</ele>
        <time>2019-04-28T10:21:40Z</time>
      </trkpt>
      <trkpt lat="43.0102" lon="0.79449">
        <ele>527.9</ele>
        <time>2019-04-28T10:21:44Z</time>
      </trkpt>
      <trkpt lat="43.01028" lon="0.79459">
        <ele>525.5</ele>
        <time>2019-04-28T10:21:49Z</time>
      </trkpt>
      <trkpt lat="43.01036" lon="0.79468">
        <ele>523.58</ele>
        <time>2019-04-28T10:21:54Z</time>
      </trkpt>
      <trkpt lat="43.0104" lon="0.79474">
        <ele>521.65</ele>
        <time>2019-04-28T10:21:58Z</time>
      </trkpt>
      <trkpt lat="43.01045" lon="0.79482">
        <ele>518.77</ele>
        <time>2019-04-28T10:22:01Z</time>
      </trkpt>
      <trkpt lat="43.0106" lon="0.79499">
        <ele>514.44</ele>
        <time>2019-04-28T10:22:10Z</time>
      </trkpt>
      <trkpt lat="43.01069" lon="0.79508">
        <ele>513</ele>
        <time>2019-04-28T10:22:16Z</time>
      </trkpt>
      <trkpt lat="43.01072" lon="0.79513">
        <ele>511.56</ele>
        <time>2019-04-28T10:22:19Z</time>
      </trkpt>
      <trkpt lat="43.01081" lon="0.79526">
        <ele>508.19</ele>
        <time>2019-04-28T10:22:27Z</time>
      </trkpt>
      <trkpt lat="43.01087" lon="0.79534">
        <ele>506.27</ele>
        <time>2019-04-28T10:22:30Z</time>
      </trkpt>
      <trkpt lat="43.01094" lon="0.79542">
        <ele>503.39</ele>
        <time>2019-04-28T10:22:32Z</time>
      </trkpt>
      <trkpt lat="43.01112" lon="0.79559">
        <ele>500.98</ele>
        <time>2019-04-28T10:22:36Z</time>
      </trkpt>
      <trkpt lat="43.01123" lon="0.79568">
        <ele>499.54</ele>
        <time>2019-04-28T10:22:38Z</time>
      </trkpt>
      <trkpt lat="43.01146" lon="0.79581">
        <ele>497.14</ele>
        <time>2019-04-28T10:22:42Z</time>
      </trkpt>
      <trkpt lat="43.01163" lon="0.79592">
        <ele>494.26</ele>
        <time>2019-04-28T10:22:45Z</time>
      </trkpt>
      <trkpt lat="43.01181" lon="0.796">
        <ele>493.29</ele>
        <time>2019-04-28T10:22:48Z</time>
      </trkpt>
      <trkpt lat="43.01187" lon="0.79602">
        <ele>492.81</ele>
        <time>2019-04-28T10:22:49Z</time>
      </trkpt>
      <trkpt lat="43.01192" lon="0.79604">
        <ele>492.33</ele>
        <time>2019-04-28T10:22:50Z</time>
      </trkpt>
      <trkpt lat="43.01197" lon="0.79606">
        <ele>491.37</ele>
        <time>2019-04-28T10:22:51Z</time>
      </trkpt>
      <trkpt lat="43.01204" lon="0.79608">
        <ele>490.89</ele>
        <time>2019-04-28T10:22:52Z</time>
      </trkpt>
      <trkpt lat="43.0121" lon="0.79609">
        <ele>490.89</ele>
        <time>2019-04-28T10:22:53Z</time>
      </trkpt>
      <trkpt lat="43.01216" lon="0.79609">
        <ele>489.93</ele>
        <time>2019-04-28T10:22:54Z</time>
      </trkpt>
      <trkpt lat="43.01228" lon="0.79609">
        <ele>489.45</ele>
        <time>2019-04-28T10:22:56Z</time>
      </trkpt>
      <trkpt lat="43.01248" lon="0.79611">
        <ele>486.56</ele>
        <time>2019-04-28T10:22:59Z</time>
      </trkpt>
      <trkpt lat="43.01255" lon="0.79612">
        <ele>486.08</ele>
        <time>2019-04-28T10:23:00Z</time>
      </trkpt>
      <trkpt lat="43.01262" lon="0.79612">
        <ele>485.12</ele>
        <time>2019-04-28T10:23:01Z</time>
      </trkpt>
      <trkpt lat="43.01269" lon="0.79612">
        <ele>484.64</ele>
        <time>2019-04-28T10:23:02Z</time>
      </trkpt>
      <trkpt lat="43.01275" lon="0.79612">
        <ele>483.68</ele>
        <time>2019-04-28T10:23:03Z</time>
      </trkpt>
      <trkpt lat="43.01281" lon="0.79612">
        <ele>482.24</ele>
        <time>2019-04-28T10:23:04Z</time>
      </trkpt>
      <trkpt lat="43.01293" lon="0.79612">
        <ele>481.28</ele>
        <time>2019-04-28T10:23:06Z</time>
      </trkpt>
      <trkpt lat="43.01299" lon="0.79611">
        <ele>480.32</ele>
        <time>2019-04-28T10:23:07Z</time>
      </trkpt>
      <trkpt lat="43.01317" lon="0.79607">
        <ele>478.87</ele>
        <time>2019-04-28T10:23:10Z</time>
      </trkpt>
      <trkpt lat="43.01323" lon="0.79607">
        <ele>477.91</ele>
        <time>2019-04-28T10:23:11Z</time>
      </trkpt>
      <trkpt lat="43.01335" lon="0.79607">
        <ele>476.95</ele>
        <time>2019-04-28T10:23:13Z</time>
      </trkpt>
      <trkpt lat="43.01339" lon="0.79609">
        <ele>475.99</ele>
        <time>2019-04-28T10:23:14Z</time>
      </trkpt>
      <trkpt lat="43.01345" lon="0.79611">
        <ele>474.55</ele>
        <time>2019-04-28T10:23:16Z</time>
      </trkpt>
      <trkpt lat="43.01348" lon="0.79611">
        <ele>474.07</ele>
        <time>2019-04-28T10:23:17Z</time>
      </trkpt>
      <trkpt lat="43.01351" lon="0.79613">
        <ele>473.11</ele>
        <time>2019-04-28T10:23:18Z</time>
      </trkpt>
      <trkpt lat="43.01355" lon="0.79613">
        <ele>471.66</ele>
        <time>2019-04-28T10:23:19Z</time>
      </trkpt>
      <trkpt lat="43.01358" lon="0.79614">
        <ele>470.7</ele>
        <time>2019-04-28T10:23:20Z</time>
      </trkpt>
      <trkpt lat="43.01361" lon="0.79614">
        <ele>469.74</ele>
        <time>2019-04-28T10:23:21Z</time>
      </trkpt>
      <trkpt lat="43.01364" lon="0.79615">
        <ele>469.26</ele>
        <time>2019-04-28T10:23:22Z</time>
      </trkpt>
      <trkpt lat="43.01366" lon="0.79617">
        <ele>468.3</ele>
        <time>2019-04-28T10:23:23Z</time>
      </trkpt>
      <trkpt lat="43.01368" lon="0.79618">
        <ele>467.82</ele>
        <time>2019-04-28T10:23:24Z</time>
      </trkpt>
      <trkpt lat="43.0137" lon="0.79619">
        <ele>466.86</ele>
        <time>2019-04-28T10:23:25Z</time>
      </trkpt>
      <trkpt lat="43.01374" lon="0.79622">
        <ele>466.38</ele>
        <time>2019-04-28T10:23:27Z</time>
      </trkpt>
      <trkpt lat="43.01378" lon="0.79626">
        <ele>464.93</ele>
        <time>2019-04-28T10:23:29Z</time>
      </trkpt>
      <trkpt lat="43.01384" lon="0.79632">
        <ele>463.97</ele>
        <time>2019-04-28T10:23:31Z</time>
      </trkpt>
      <trkpt lat="43.01389" lon="0.79636">
        <ele>463.49</ele>
        <time>2019-04-28T10:23:32Z</time>
      </trkpt>
      <trkpt lat="43.01404" lon="0.79648">
        <ele>462.05</ele>
        <time>2019-04-28T10:23:36Z</time>
      </trkpt>
      <trkpt lat="43.01409" lon="0.79651">
        <ele>461.57</ele>
        <time>2019-04-28T10:23:37Z</time>
      </trkpt>
      <trkpt lat="43.01419" lon="0.79655">
        <ele>461.57</ele>
        <time>2019-04-28T10:23:39Z</time>
      </trkpt>
      <trkpt lat="43.01424" lon="0.79656">
        <ele>460.61</ele>
        <time>2019-04-28T10:23:40Z</time>
      </trkpt>
      <trkpt lat="43.01447" lon="0.79658">
        <ele>458.69</ele>
        <time>2019-04-28T10:23:47Z</time>
      </trkpt>
      <trkpt lat="43.01463" lon="0.79664">
        <ele>455.8</ele>
        <time>2019-04-28T10:23:51Z</time>
      </trkpt>
      <trkpt lat="43.01482" lon="0.79668">
        <ele>452.44</ele>
        <time>2019-04-28T10:23:56Z</time>
      </trkpt>
      <trkpt lat="43.01502" lon="0.79678">
        <ele>449.07</ele>
        <time>2019-04-28T10:24:00Z</time>
      </trkpt>
      <trkpt lat="43.01508" lon="0.7968">
        <ele>448.11</ele>
        <time>2019-04-28T10:24:01Z</time>
      </trkpt>
      <trkpt lat="43.01514" lon="0.79681">
        <ele>447.63</ele>
        <time>2019-04-28T10:24:02Z</time>
      </trkpt>
      <trkpt lat="43.01544" lon="0.79683">
        <ele>445.71</ele>
        <time>2019-04-28T10:24:06Z</time>
      </trkpt>
      <trkpt lat="43.01559" lon="0.79686">
        <ele>444.27</ele>
        <time>2019-04-28T10:24:08Z</time>
      </trkpt>
      <trkpt lat="43.01566" lon="0.79689">
        <ele>443.79</ele>
        <time>2019-04-28T10:24:09Z</time>
      </trkpt>
      <trkpt lat="43.0158" lon="0.79696">
        <ele>442.82</ele>
        <time>2019-04-28T10:24:11Z</time>
      </trkpt>
      <trkpt lat="43.01624" lon="0.7973">
        <ele>439.46</ele>
        <time>2019-04-28T10:24:18Z</time>
      </trkpt>
      <trkpt lat="43.01629" lon="0.79735">
        <ele>438.98</ele>
        <time>2019-04-28T10:24:19Z</time>
      </trkpt>
      <trkpt lat="43.01639" lon="0.79745">
        <ele>437.54</ele>
        <time>2019-04-28T10:24:22Z</time>
      </trkpt>
      <trkpt lat="43.01642" lon="0.79744">
        <ele>437.54</ele>
        <time>2019-04-28T10:24:23Z</time>
      </trkpt>
      <trkpt lat="43.01678" lon="0.79724">
        <ele>437.06</ele>
        <time>2019-04-28T10:24:35Z</time>
      </trkpt>
      <trkpt lat="43.01709" lon="0.79723">
        <ele>438.02</ele>
        <time>2019-04-28T10:24:46Z</time>
      </trkpt>
      <trkpt lat="43.01746" lon="0.79707">
        <ele>438.5</ele>
        <time>2019-04-28T10:24:58Z</time>
      </trkpt>
      <trkpt lat="43.01783" lon="0.79686">
        <ele>440.9</ele>
        <time>2019-04-28T10:25:11Z</time>
      </trkpt>
      <trkpt lat="43.01791" lon="0.79683">
        <ele>439.46</ele>
        <time>2019-04-28T10:25:13Z</time>
      </trkpt>
      <trkpt lat="43.01796" lon="0.79682">
        <ele>438.98</ele>
        <time>2019-04-28T10:25:14Z</time>
      </trkpt>
      <trkpt lat="43.0185" lon="0.79678">
        <ele>436.1</ele>
        <time>2019-04-28T10:25:22Z</time>
      </trkpt>
      <trkpt lat="43.01899" lon="0.79676">
        <ele>435.13</ele>
        <time>2019-04-28T10:25:29Z</time>
      </trkpt>
      <trkpt lat="43.01917" lon="0.79669">
        <ele>434.65</ele>
        <time>2019-04-28T10:25:32Z</time>
      </trkpt>
      <trkpt lat="43.02003" lon="0.79607">
        <ele>433.69</ele>
        <time>2019-04-28T10:25:48Z</time>
      </trkpt>
      <trkpt lat="43.02102" lon="0.79536">
        <ele>432.25</ele>
        <time>2019-04-28T10:26:06Z</time>
      </trkpt>
      <trkpt lat="43.02106" lon="0.79534">
        <ele>432.25</ele>
        <time>2019-04-28T10:26:07Z</time>
      </trkpt>
      <trkpt lat="43.02109" lon="0.79536">
        <ele>432.25</ele>
        <time>2019-04-28T10:26:08Z</time>
      </trkpt>
      <trkpt lat="43.02112" lon="0.79539">
        <ele>432.25</ele>
        <time>2019-04-28T10:26:09Z</time>
      </trkpt>
      <trkpt lat="43.02114" lon="0.79544">
        <ele>432.25</ele>
        <time>2019-04-28T10:26:10Z</time>
      </trkpt>
      <trkpt lat="43.02116" lon="0.79548">
        <ele>432.25</ele>
        <time>2019-04-28T10:26:11Z</time>
      </trkpt>
      <trkpt lat="43.02117" lon="0.79553">
        <ele>432.25</ele>
        <time>2019-04-28T10:26:12Z</time>
      </trkpt>
      <trkpt lat="43.02119" lon="0.79557">
        <ele>432.25</ele>
        <time>2019-04-28T10:26:13Z</time>
      </trkpt>
      <trkpt lat="43.02119" lon="0.79562">
        <ele>432.25</ele>
        <time>2019-04-28T10:26:14Z</time>
      </trkpt>
      <trkpt lat="43.02119" lon="0.79568">
        <ele>432.25</ele>
        <time>2019-04-28T10:26:15Z</time>
      </trkpt>
      <trkpt lat="43.02119" lon="0.79573">
        <ele>432.25</ele>
        <time>2019-04-28T10:26:16Z</time>
      </trkpt>
      <trkpt lat="43.0212" lon="0.79591">
        <ele>431.77</ele>
        <time>2019-04-28T10:26:19Z</time>
      </trkpt>
      <trkpt lat="43.02122" lon="0.79596">
        <ele>431.77</ele>
        <time>2019-04-28T10:26:20Z</time>
      </trkpt>
      <trkpt lat="43.02126" lon="0.796">
        <ele>431.77</ele>
        <time>2019-04-28T10:26:21Z</time>
      </trkpt>
      <trkpt lat="43.02131" lon="0.79603">
        <ele>431.77</ele>
        <time>2019-04-28T10:26:22Z</time>
      </trkpt>
      <trkpt lat="43.02136" lon="0.79603">
        <ele>431.77</ele>
        <time>2019-04-28T10:26:23Z</time>
      </trkpt>
      <trkpt lat="43.02141" lon="0.796">
        <ele>431.77</ele>
        <time>2019-04-28T10:26:24Z</time>
      </trkpt>
      <trkpt lat="43.02145" lon="0.79595">
        <ele>431.77</ele>
        <time>2019-04-28T10:26:25Z</time>
      </trkpt>
      <trkpt lat="43.02148" lon="0.79589">
        <ele>431.77</ele>
        <time>2019-04-28T10:26:26Z</time>
      </trkpt>
      <trkpt lat="43.0215" lon="0.79583">
        <ele>431.77</ele>
        <time>2019-04-28T10:26:27Z</time>
      </trkpt>
      <trkpt lat="43.02153" lon="0.79577">
        <ele>431.77</ele>
        <time>2019-04-28T10:26:28Z</time>
      </trkpt>
      <trkpt lat="43.02156" lon="0.79572">
        <ele>431.77</ele>
        <time>2019-04-28T10:26:29Z</time>
      </trkpt>
      <trkpt lat="43.02161" lon="0.7957">
        <ele>431.77</ele>
        <time>2019-04-28T10:26:30Z</time>
      </trkpt>
      <trkpt lat="43.02165" lon="0.79568">
        <ele>431.77</ele>
        <time>2019-04-28T10:26:31Z</time>
      </trkpt>
      <trkpt lat="43.02169" lon="0.79565">
        <ele>431.77</ele>
        <time>2019-04-28T10:26:32Z</time>
      </trkpt>
      <trkpt lat="43.02173" lon="0.79562">
        <ele>431.77</ele>
        <time>2019-04-28T10:26:33Z</time>
      </trkpt>
      <trkpt lat="43.02253" lon="0.79483">
        <ele>431.77</ele>
        <time>2019-04-28T10:26:52Z</time>
      </trkpt>
      <trkpt lat="43.02301" lon="0.79424">
        <ele>431.29</ele>
        <time>2019-04-28T10:27:04Z</time>
      </trkpt>
      <trkpt lat="43.02305" lon="0.79421">
        <ele>431.29</ele>
        <time>2019-04-28T10:27:05Z</time>
      </trkpt>
      <trkpt lat="43.02311" lon="0.79418">
        <ele>431.29</ele>
        <time>2019-04-28T10:27:06Z</time>
      </trkpt>
      <trkpt lat="43.02316" lon="0.79417">
        <ele>431.29</ele>
        <time>2019-04-28T10:27:07Z</time>
      </trkpt>
      <trkpt lat="43.02321" lon="0.79415">
        <ele>431.29</ele>
        <time>2019-04-28T10:27:08Z</time>
      </trkpt>
      <trkpt lat="43.0235" lon="0.79406">
        <ele>431.29</ele>
        <time>2019-04-28T10:27:14Z</time>
      </trkpt>
      <trkpt lat="43.02364" lon="0.794">
        <ele>431.29</ele>
        <time>2019-04-28T10:27:17Z</time>
      </trkpt>
      <trkpt lat="43.02373" lon="0.79398">
        <ele>431.29</ele>
        <time>2019-04-28T10:27:19Z</time>
      </trkpt>
      <trkpt lat="43.02377" lon="0.79399">
        <ele>432.25</ele>
        <time>2019-04-28T10:27:20Z</time>
      </trkpt>
      <trkpt lat="43.0238" lon="0.79401">
        <ele>432.25</ele>
        <time>2019-04-28T10:27:21Z</time>
      </trkpt>
      <trkpt lat="43.02383" lon="0.79404">
        <ele>432.73</ele>
        <time>2019-04-28T10:27:22Z</time>
      </trkpt>
      <trkpt lat="43.02384" lon="0.79407">
        <ele>432.73</ele>
        <time>2019-04-28T10:27:23Z</time>
      </trkpt>
      <trkpt lat="43.02385" lon="0.79411">
        <ele>433.69</ele>
        <time>2019-04-28T10:27:24Z</time>
      </trkpt>
      <trkpt lat="43.02385" lon="0.79415">
        <ele>433.69</ele>
        <time>2019-04-28T10:27:25Z</time>
      </trkpt>
      <trkpt lat="43.02385" lon="0.79419">
        <ele>433.69</ele>
        <time>2019-04-28T10:27:26Z</time>
      </trkpt>
      <trkpt lat="43.02385" lon="0.79422">
        <ele>434.17</ele>
        <time>2019-04-28T10:27:27Z</time>
      </trkpt>
      <trkpt lat="43.02385" lon="0.79425">
        <ele>434.17</ele>
        <time>2019-04-28T10:27:28Z</time>
      </trkpt>
      <trkpt lat="43.02385" lon="0.79428">
        <ele>434.65</ele>
        <time>2019-04-28T10:27:29Z</time>
      </trkpt>
      <trkpt lat="43.02387" lon="0.79453">
        <ele>438.02</ele>
        <time>2019-04-28T10:27:40Z</time>
      </trkpt>
      <trkpt lat="43.02386" lon="0.79476">
        <ele>440.9</ele>
        <time>2019-04-28T10:27:51Z</time>
      </trkpt>
      <trkpt lat="43.02377" lon="0.79503">
        <ele>444.75</ele>
        <time>2019-04-28T10:28:05Z</time>
      </trkpt>
      <trkpt lat="43.02365" lon="0.79534">
        <ele>447.15</ele>
        <time>2019-04-28T10:28:20Z</time>
      </trkpt>
      <trkpt lat="43.02361" lon="0.79568">
        <ele>449.55</ele>
        <time>2019-04-28T10:28:37Z</time>
      </trkpt>
      <trkpt lat="43.02364" lon="0.79591">
        <ele>452.92</ele>
        <time>2019-04-28T10:28:49Z</time>
      </trkpt>
      <trkpt lat="43.02367" lon="0.79614">
        <ele>456.28</ele>
        <time>2019-04-28T10:29:03Z</time>
      </trkpt>
      <trkpt lat="43.02378" lon="0.79643">
        <ele>459.65</ele>
        <time>2019-04-28T10:29:20Z</time>
      </trkpt>
      <trkpt lat="43.02395" lon="0.7967">
        <ele>462.05</ele>
        <time>2019-04-28T10:29:38Z</time>
      </trkpt>
      <trkpt lat="43.02413" lon="0.79699">
        <ele>464.93</ele>
        <time>2019-04-28T10:29:56Z</time>
      </trkpt>
      <trkpt lat="43.02426" lon="0.79738">
        <ele>467.82</ele>
        <time>2019-04-28T10:30:15Z</time>
      </trkpt>
      <trkpt lat="43.02436" lon="0.79761">
        <ele>468.3</ele>
        <time>2019-04-28T10:30:25Z</time>
      </trkpt>
      <trkpt lat="43.02436" lon="0.79764">
        <ele>468.3</ele>
        <time>2019-04-28T10:30:26Z</time>
      </trkpt>
      <trkpt lat="43.02434" lon="0.79768">
        <ele>468.3</ele>
        <time>2019-04-28T10:30:27Z</time>
      </trkpt>
      <trkpt lat="43.02409" lon="0.79816">
        <ele>467.82</ele>
        <time>2019-04-28T10:30:40Z</time>
      </trkpt>
      <trkpt lat="43.02386" lon="0.79888">
        <ele>467.82</ele>
        <time>2019-04-28T10:30:55Z</time>
      </trkpt>
      <trkpt lat="43.02383" lon="0.7989">
        <ele>467.82</ele>
        <time>2019-04-28T10:30:56Z</time>
      </trkpt>
      <trkpt lat="43.02379" lon="0.79892">
        <ele>468.3</ele>
        <time>2019-04-28T10:30:57Z</time>
      </trkpt>
      <trkpt lat="43.02376" lon="0.79892">
        <ele>468.3</ele>
        <time>2019-04-28T10:30:58Z</time>
      </trkpt>
      <trkpt lat="43.02374" lon="0.79892">
        <ele>469.26</ele>
        <time>2019-04-28T10:30:59Z</time>
      </trkpt>
      <trkpt lat="43.02346" lon="0.79884">
        <ele>470.22</ele>
        <time>2019-04-28T10:31:10Z</time>
      </trkpt>
      <trkpt lat="43.02338" lon="0.79889">
        <ele>470.7</ele>
        <time>2019-04-28T10:31:14Z</time>
      </trkpt>
      <trkpt lat="43.02338" lon="0.79888">
        <ele>471.18</ele>
        <time>2019-04-28T10:31:24Z</time>
      </trkpt>
      <trkpt lat="43.02339" lon="0.79887">
        <ele>470.7</ele>
        <time>2019-04-28T10:31:45Z</time>
      </trkpt>
      <trkpt lat="43.02338" lon="0.79889">
        <ele>471.66</ele>
        <time>2019-04-28T10:32:09Z</time>
      </trkpt>
      <trkpt lat="43.02338" lon="0.79889">
        <ele>470.22</ele>
        <time>2019-04-28T10:32:12Z</time>
      </trkpt>
      <trkpt lat="43.02337" lon="0.79889">
        <ele>470.22</ele>
        <time>2019-04-28T10:32:18Z</time>
      </trkpt>
    </trkseg>
  </trk>
</gpx>